/** * @author Addy Koster * @copyright 2020 */ <
Nr Satellites Latitude Longitude Tram ID Speed gpsHDOP Date - Time
6 51.944557190 4.484710693 5 2.35 1.870 2024-06-16 18:14:26
7 51.944702148 4.484756470 5 3.63 1.680 2024-06-16 18:14:07
4 51.944919586 4.484833241 5 3.02 2.290 2024-06-16 18:13:26
5 51.944896698 4.484408855 5 2.61 2.510 2024-06-16 18:13:18
8 51.944679260 4.484076500 5 0.96 1.120 2024-06-16 18:12:33
7 51.944671631 4.483811378 5 3.44 1.440 2024-06-16 18:12:14
7 51.944751740 4.483570099 5 2.72 1.640 2024-06-16 18:11:54
8 51.944679260 4.483999729 5 1.74 1.110 2024-06-16 18:10:56
9 51.944751740 4.484207153 5 4.06 0.930 2024-06-16 18:10:47
8 51.944995880 4.484419346 5 1.98 1.110 2024-06-16 18:10:08
8 51.945144653 4.484589100 5 1.59 1.110 2024-06-16 18:09:47
8 51.945308685 4.484758377 5 0.54 1.110 2024-06-16 18:09:26
9 51.945461273 4.484847069 5 2.35 0.930 2024-06-16 18:07:46
9 51.945602417 4.484659672 5 13.91 0.930 2024-06-16 18:07:37
8 51.945850372 4.484285831 5 12.41 1.100 2024-06-16 18:07:26
9 51.945976257 4.483917236 5 7.76 0.930 2024-06-16 18:07:16
9 51.945858002 4.483572960 5 15.28 0.930 2024-06-16 18:07:06
9 51.945381165 4.483224392 5 22.56 0.930 2024-06-16 18:06:56
9 51.944839478 4.482826710 5 20.69 0.930 2024-06-16 18:06:46
9 51.944377899 4.482445240 5 20.37 0.930 2024-06-16 18:06:36
9 51.943847656 4.482122421 5 23.87 0.930 2024-06-16 18:06:26
8 51.943244934 4.481826782 5 23.61 1.340 2024-06-16 18:06:16
9 51.942634583 4.481374264 5 22.67 0.930 2024-06-16 18:06:08
7 51.942180634 4.480885506 5 18.34 1.440 2024-06-16 18:05:56
7 51.941612244 4.480303764 5 30.37 1.060 2024-06-16 18:05:46
9 51.940853119 4.479429722 5 17.91 0.930 2024-06-16 18:05:37
8 51.940185547 4.479246140 5 3.57 0.960 2024-06-16 18:04:57
9 51.939937592 4.479288101 5 16.09 0.930 2024-06-16 18:04:47
7 51.939414978 4.479477882 5 19.26 1.140 2024-06-16 18:04:38
9 51.938858032 4.479582310 5 17.84 0.930 2024-06-16 18:04:28
8 51.938434601 4.479561329 5 11.91 1.000 2024-06-16 18:04:20
9 51.938106537 4.479572296 5 12.17 0.930 2024-06-16 18:04:09
8 51.937843323 4.479395866 5 10.35 1.330 2024-06-16 18:03:58
8 51.937644958 4.479054451 5 10.37 1.320 2024-06-16 18:03:47
9 51.937305450 4.478470802 5 10.70 0.930 2024-06-16 18:03:27
9 51.937080383 4.478141308 5 17.04 0.930 2024-06-16 18:03:17
9 51.936706543 4.477558136 5 21.82 0.930 2024-06-16 18:03:08
8 51.936191559 4.476977348 5 22.50 1.320 2024-06-16 18:02:58
9 51.935619354 4.476535320 5 16.56 0.930 2024-06-16 18:02:47
9 51.935188293 4.476110935 5 16.56 0.930 2024-06-16 18:02:37
9 51.934886932 4.475528240 5 18.61 0.930 2024-06-16 18:02:29
8 51.934524536 4.474956512 5 16.89 1.080 2024-06-16 18:02:18
9 51.934200287 4.474425793 5 3.89 0.930 2024-06-16 18:01:37
9 51.933746338 4.473837376 5 19.37 0.930 2024-06-16 18:01:31
8 51.932739258 4.473212719 5 3.50 1.080 2024-06-16 18:00:30
9 51.932624817 4.473504066 5 8.69 0.930 2024-06-16 18:00:20
9 51.932533264 4.473882675 5 8.76 0.930 2024-06-16 18:00:09
8 51.932445526 4.474113941 5 8.72 1.080 2024-06-16 17:59:59
8 51.932292938 4.474562645 5 21.09 1.080 2024-06-16 17:59:49
9 51.931972504 4.475471020 5 27.82 0.920 2024-06-16 17:59:39
8 51.931606293 4.476505756 5 26.71 1.080 2024-06-16 17:59:29
9 51.931262970 4.477396965 5 24.37 0.920 2024-06-16 17:59:20
8 51.930950165 4.478232384 5 22.93 1.070 2024-06-16 17:59:11
8 51.930641174 4.479028225 5 21.24 1.070 2024-06-16 17:58:59
8 51.930320740 4.479743958 5 15.78 1.070 2024-06-16 17:58:49
9 51.930072784 4.480256081 5 15.85 1.070 2024-06-16 17:58:39
8 51.929813385 4.480932713 5 15.22 1.070 2024-06-16 17:58:29
8 51.929550171 4.481597900 5 20.24 1.070 2024-06-16 17:58:20
9 51.929321289 4.482352734 5 18.78 0.920 2024-06-16 17:58:10
9 51.928977966 4.482701778 5 15.02 0.920 2024-06-16 17:58:02
9 51.928573608 4.482368469 5 20.59 0.920 2024-06-16 17:57:49
9 51.928215027 4.481684685 5 22.65 0.920 2024-06-16 17:57:39
7 51.928016663 4.480834961 5 25.39 1.050 2024-06-16 17:57:31
7 51.927787781 4.479856491 5 25.34 1.350 2024-06-16 17:57:19
8 51.927555084 4.478938580 5 25.32 1.070 2024-06-16 17:57:09
8 51.927249908 4.478065491 5 22.80 1.070 2024-06-16 17:56:59
8 51.926887512 4.477341175 5 19.63 1.070 2024-06-16 17:56:52
8 51.926486969 4.476876259 5 24.11 1.070 2024-06-16 17:56:39
9 51.925762177 4.477083683 5 26.93 0.920 2024-06-16 17:56:29
9 51.925186157 4.477277279 5 15.96 0.920 2024-06-16 17:56:20
7 51.924854279 4.477405071 5 16.45 1.460 2024-06-16 17:56:09
9 51.924522400 4.477242470 5 14.91 1.060 2024-06-16 17:56:00
8 51.924293518 4.476617336 5 4.09 1.060 2024-06-16 17:55:39
9 51.924152374 4.476353168 5 14.06 0.920 2024-06-16 17:55:29
9 51.924053192 4.475769520 5 13.07 1.280 2024-06-16 17:55:20
9 51.923976898 4.475247383 5 12.61 0.920 2024-06-16 17:55:09
9 51.923995972 4.474698067 5 12.91 1.060 2024-06-16 17:55:01
9 51.923919678 4.474313736 5 3.02 0.920 2024-06-16 17:54:49
9 51.923625946 4.474180222 5 2.22 1.480 2024-06-16 17:54:40
9 51.944763184 4.484404564 3 0.57 0.920 2024-06-16 17:53:58
9 51.944591522 4.484212875 3 2.44 0.920 2024-06-16 17:53:38
10 51.944599152 4.483872414 3 3.65 0.860 2024-06-16 17:53:19
6 51.921745300 4.471410275 5 23.65 1.350 2024-06-16 17:53:11
8 51.921291351 4.471843243 5 16.37 1.260 2024-06-16 17:53:01
6 51.920864105 4.472034931 5 11.52 2.200 2024-06-16 17:52:51
7 51.920639038 4.472055435 5 3.50 1.440 2024-06-16 17:52:42
7 51.920413971 4.472028255 5 20.63 1.440 2024-06-16 17:52:32
8 51.919815063 4.472130775 5 23.43 1.050 2024-06-16 17:52:22
8 51.919170380 4.472284317 5 23.50 1.050 2024-06-16 17:52:12
6 51.918552399 4.472451687 5 23.65 1.400 2024-06-16 17:52:02
9 51.944679260 4.483594418 3 7.63 0.920 2024-06-16 17:51:58
8 51.917491913 4.472871780 5 23.82 1.050 2024-06-16 17:51:53
9 51.944782257 4.483969688 3 1.20 0.920 2024-06-16 17:51:38
8 51.944854736 4.484175205 3 1.37 0.970 2024-06-16 17:51:28
9 51.916374207 4.473687649 5 20.28 0.920 2024-06-16 17:51:23
9 51.915935516 4.474243164 5 15.82 0.920 2024-06-16 17:51:13
9 51.944976807 4.484614849 3 1.37 0.920 2024-06-16 17:51:09
8 51.915607452 4.474659920 5 23.46 1.050 2024-06-16 17:51:03
8 51.915050507 4.475095272 5 22.69 1.050 2024-06-16 17:50:52
7 51.914428711 4.475501537 5 32.91 1.430 2024-06-16 17:50:42
7 51.913608551 4.476085663 5 34.95 1.430 2024-06-16 17:50:32
9 51.945121765 4.484952450 3 0.50 0.920 2024-06-16 17:50:28
9 51.912834167 4.476655960 5 33.09 0.920 2024-06-16 17:50:22
7 51.912101746 4.477146626 5 23.11 1.340 2024-06-16 17:50:12
10 51.945301056 4.484878063 3 2.19 0.850 2024-06-16 17:50:08
9 51.911628723 4.477474213 5 17.32 0.920 2024-06-16 17:50:03
9 51.911266327 4.477740765 5 8.93 0.920 2024-06-16 17:49:52
7 51.911106110 4.477808952 5 0.22 1.500 2024-06-16 17:49:32
8 51.910923004 4.477828979 5 9.39 0.970 2024-06-16 17:49:13
7 51.910572052 4.478131771 5 17.76 1.560 2024-06-16 17:49:03
9 51.945461273 4.484998226 3 3.04 0.920 2024-06-16 17:49:00
7 51.910068512 4.478419304 5 16.61 1.500 2024-06-16 17:48:52
7 51.909709930 4.478410244 5 18.63 1.500 2024-06-16 17:48:45
10 51.945892334 4.484176159 3 9.48 0.850 2024-06-16 17:48:33
6 51.909343719 4.478761196 5 18.11 1.230 2024-06-16 17:48:33
6 51.908924103 4.478935719 5 10.07 1.560 2024-06-16 17:48:23
9 51.946002960 4.483835220 3 6.13 0.920 2024-06-16 17:48:22
7 51.908805847 4.479391575 5 16.39 1.120 2024-06-16 17:48:13
9 51.945804596 4.483517647 3 16.46 0.920 2024-06-16 17:48:12
7 51.909057617 4.480029106 5 20.43 1.120 2024-06-16 17:48:03
9 51.945358276 4.483139515 3 22.17 0.920 2024-06-16 17:48:02
7 51.909397125 4.480710506 5 21.06 1.120 2024-06-16 17:47:54
10 51.944927216 4.482812881 3 12.15 0.850 2024-06-16 17:47:52
7 51.909729004 4.481466770 5 21.82 1.110 2024-06-16 17:47:42
9 51.944805145 4.482705116 3 5.80 0.920 2024-06-16 17:47:42
7 51.909969330 4.482140064 5 13.76 1.110 2024-06-16 17:47:35
9 51.944557190 4.482622147 3 5.06 0.920 2024-06-16 17:47:22
10 51.944194794 4.482368469 3 19.67 0.850 2024-06-16 17:47:12
9 51.943691254 4.482035160 3 24.65 0.920 2024-06-16 17:47:03
10 51.942531586 4.481252670 3 23.13 0.920 2024-06-16 17:46:44
7 51.909954071 4.482631207 5 1.63 1.170 2024-06-16 17:46:34
9 51.941604614 4.480247498 3 26.89 0.890 2024-06-16 17:46:22
10 51.941070557 4.479565144 3 27.74 0.920 2024-06-16 17:46:11
9 51.940502167 4.479072094 3 20.37 0.890 2024-06-16 17:46:01
10 51.940010071 4.479097843 3 16.65 0.850 2024-06-16 17:45:52
7 51.909790039 4.482487679 5 6.46 1.120 2024-06-16 17:45:32
6 51.909610748 4.482507229 5 13.00 1.340 2024-06-16 17:45:22
7 51.909366608 4.482143879 5 15.41 1.200 2024-06-16 17:45:12
9 51.938144684 4.479489803 3 5.39 0.970 2024-06-16 17:45:11
8 51.909133911 4.481624126 5 16.69 0.990 2024-06-16 17:45:05
8 51.937999725 4.479347229 3 6.24 1.190 2024-06-16 17:45:00
9 51.909008026 4.481110573 5 10.35 0.960 2024-06-16 17:44:53
9 51.937793732 4.479001999 3 10.93 0.920 2024-06-16 17:44:52
9 51.937553406 4.478698730 3 11.82 0.920 2024-06-16 17:44:40
6 51.909187317 4.480287552 5 9.98 1.240 2024-06-16 17:44:39
9 51.937282562 4.478345394 3 13.46 0.920 2024-06-16 17:44:33
7 51.909202576 4.479917526 5 14.35 1.120 2024-06-16 17:44:22
8 51.936958313 4.477951527 3 20.24 1.190 2024-06-16 17:44:21
8 51.908916473 4.479438782 5 16.85 1.120 2024-06-16 17:44:12
9 51.936496735 4.477335453 3 23.28 0.910 2024-06-16 17:44:10
7 51.908859253 4.478908539 5 13.80 1.120 2024-06-16 17:44:04
9 51.935989380 4.476744652 3 25.91 1.030 2024-06-16 17:44:01
7 51.909252167 4.478670597 5 10.26 1.120 2024-06-16 17:43:52
10 51.935512543 4.476309776 3 19.11 0.910 2024-06-16 17:43:50
7 51.909439087 4.478622437 5 6.72 1.120 2024-06-16 17:43:44
10 51.935127258 4.475724220 3 23.80 0.910 2024-06-16 17:43:40
7 51.909732819 4.478418827 5 19.74 1.040 2024-06-16 17:43:33
10 51.934646606 4.475070953 3 21.48 0.850 2024-06-16 17:43:32
8 51.910137177 4.478096485 5 13.15 0.980 2024-06-16 17:43:23
10 51.934326172 4.474524021 3 9.82 0.850 2024-06-16 17:43:21
9 51.910491943 4.478112221 5 16.57 0.890 2024-06-16 17:43:14
10 51.934226990 4.474333286 3 11.69 0.850 2024-06-16 17:43:13
8 51.911026001 4.477781296 5 22.13 0.980 2024-06-16 17:43:02
10 51.933872223 4.473849297 3 22.71 0.850 2024-06-16 17:43:01
9 51.933418274 4.473282814 3 20.08 0.910 2024-06-16 17:42:53
8 51.911483765 4.477454662 5 14.26 0.980 2024-06-16 17:42:52
9 51.933097839 4.472926617 3 14.28 1.000 2024-06-16 17:42:41
7 51.911754608 4.477850437 5 0.52 1.010 2024-06-16 17:42:22
10 51.932922363 4.473159790 3 3.87 1.000 2024-06-16 17:42:20
10 51.932720184 4.473672390 3 22.72 1.000 2024-06-16 17:42:11
7 51.911632538 4.478088379 5 5.39 1.520 2024-06-16 17:42:03
10 51.932407379 4.474503040 3 21.17 1.000 2024-06-16 17:42:00
10 51.932090759 4.475402355 3 26.84 1.000 2024-06-16 17:41:50
7 51.912044525 4.479606628 5 25.09 1.520 2024-06-16 17:41:49
8 51.931793213 4.476341724 3 22.08 1.310 2024-06-16 17:41:40
9 51.912170410 4.480674267 5 24.26 0.890 2024-06-16 17:41:32
10 51.931453705 4.477118015 3 23.09 0.850 2024-06-16 17:41:30
9 51.912269592 4.481598377 5 17.46 0.890 2024-06-16 17:41:22
10 51.931137085 4.477993011 3 23.59 1.000 2024-06-16 17:41:20
9 51.912372589 4.482075691 5 11.63 0.890 2024-06-16 17:41:13
10 51.930812836 4.478900433 3 25.56 1.070 2024-06-16 17:41:11
9 51.930412292 4.479776859 3 21.06 1.030 2024-06-16 17:41:01
8 51.912609100 4.482104301 5 0.22 0.960 2024-06-16 17:40:52
9 51.930000305 4.480491638 3 24.84 0.910 2024-06-16 17:40:50
10 51.929718018 4.481276035 3 18.24 0.850 2024-06-16 17:40:41
9 51.912769318 4.482079029 5 1.67 0.890 2024-06-16 17:40:32
10 51.929435730 4.481997013 3 20.26 0.850 2024-06-16 17:40:30
9 51.912975311 4.482004642 5 10.21 0.890 2024-06-16 17:40:24
10 51.929279327 4.482591629 3 13.11 0.910 2024-06-16 17:40:21
8 51.913486481 4.481880188 5 25.93 0.990 2024-06-16 17:40:12
9 51.928955078 4.482597828 3 20.39 0.910 2024-06-16 17:40:09
8 51.914264679 4.482070923 5 36.26 0.960 2024-06-16 17:40:04
8 51.928543091 4.482040405 3 22.52 0.990 2024-06-16 17:40:00
9 51.915283203 4.481958866 5 36.71 0.890 2024-06-16 17:39:52
9 51.928386688 4.481169701 3 20.20 0.990 2024-06-16 17:39:50
8 51.916168213 4.481842995 5 27.39 1.000 2024-06-16 17:39:42
9 51.928123474 4.480359554 3 20.52 0.990 2024-06-16 17:39:40
9 51.916778564 4.481699467 5 14.39 0.890 2024-06-16 17:39:33
10 51.927906036 4.479696751 3 13.85 0.840 2024-06-16 17:39:30
8 51.917240143 4.481475830 5 17.13 1.070 2024-06-16 17:39:22
10 51.927742004 4.479170322 3 22.72 0.840 2024-06-16 17:39:22
9 51.917686462 4.481231213 5 16.13 0.890 2024-06-16 17:39:13
10 51.927471161 4.478326797 3 20.11 0.910 2024-06-16 17:39:10
9 51.918121338 4.481270790 5 14.50 1.120 2024-06-16 17:39:04
10 51.927162170 4.477652550 3 18.35 0.910 2024-06-16 17:39:01
8 51.918296814 4.481694698 5 0.67 1.120 2024-06-16 17:38:52
10 51.926937103 4.477024555 3 16.57 0.840 2024-06-16 17:38:51
9 51.926479340 4.476769447 3 0.11 0.910 2024-06-16 17:38:30
8 51.918380737 4.481901169 5 1.13 0.990 2024-06-16 17:38:22
8 51.918498993 4.482648849 5 13.54 1.000 2024-06-16 17:38:13
7 51.926403046 4.476951599 3 23.59 1.080 2024-06-16 17:38:10
9 51.925731659 4.477278233 3 28.04 0.970 2024-06-16 17:38:00
7 51.918685913 4.483970165 5 20.69 1.060 2024-06-16 17:37:53
8 51.925113678 4.477323532 3 20.28 1.300 2024-06-16 17:37:50
10 51.924827576 4.477277279 3 11.37 0.840 2024-06-16 17:37:40
10 51.924697876 4.476777554 3 11.87 0.840 2024-06-16 17:37:30
6 51.918781281 4.485786915 5 23.21 1.360 2024-06-16 17:37:17
6 51.918823242 4.486073494 5 23.19 1.360 2024-06-16 17:37:03
7 51.919082642 4.486873150 5 20.84 1.130 2024-06-16 17:36:53
9 51.924518585 4.476590157 3 0.76 0.970 2024-06-16 17:36:51
8 51.919311523 4.487551689 5 22.20 1.010 2024-06-16 17:36:44
8 51.919548035 4.488276005 5 18.11 1.070 2024-06-16 17:36:32
10 51.924404144 4.476469517 3 6.54 0.910 2024-06-16 17:36:31
10 51.924129486 4.476090908 3 17.17 1.060 2024-06-16 17:36:20
7 51.919712067 4.488806725 5 0.43 1.520 2024-06-16 17:36:13
10 51.923969269 4.475376606 3 15.28 0.910 2024-06-16 17:36:10
9 51.923892975 4.474854469 3 9.06 1.000 2024-06-16 17:36:00
9 51.923862457 4.474498272 3 5.65 1.000 2024-06-16 17:35:50
10 51.923770905 4.474057674 3 11.09 1.110 2024-06-16 17:35:43
8 51.919830322 4.488961220 5 2.13 1.000 2024-06-16 17:35:42
7 51.920043945 4.489316940 5 12.96 1.130 2024-06-16 17:35:33
10 51.923500061 4.473550797 3 10.22 1.010 2024-06-16 17:35:30
8 51.920375824 4.490135670 5 5.46 1.120 2024-06-16 17:35:23
8 51.923339844 4.473103046 3 2.50 1.010 2024-06-16 17:35:20
10 51.923351288 4.472878933 3 5.85 1.110 2024-06-16 17:35:00
10 51.923328400 4.472381115 3 14.67 1.110 2024-06-16 17:34:50
10 51.923179626 4.471924305 3 8.67 1.110 2024-06-16 17:34:40
7 51.921009064 4.492164612 5 20.48 1.520 2024-06-16 17:34:37
8 51.921279907 4.492897034 5 19.11 0.970 2024-06-16 17:34:25
10 51.923217773 4.471702099 3 1.00 1.110 2024-06-16 17:34:20
7 51.921531677 4.493620872 5 17.96 1.520 2024-06-16 17:34:16
10 51.923046112 4.471515179 3 11.65 1.100 2024-06-16 17:34:10
8 51.921775818 4.494227409 5 18.26 0.970 2024-06-16 17:34:07
8 51.922824860 4.470924377 3 14.26 1.020 2024-06-16 17:33:59
8 51.921985626 4.495011330 5 22.96 1.010 2024-06-16 17:33:55
6 51.922454834 4.470765591 3 15.85 2.290 2024-06-16 17:33:50
7 51.922237396 4.495858669 5 17.32 1.520 2024-06-16 17:33:47
8 51.921924591 4.471012115 3 20.50 1.100 2024-06-16 17:33:40
7 51.921428680 4.471457958 3 21.91 1.200 2024-06-16 17:33:30
7 51.920940399 4.471689224 3 15.76 1.200 2024-06-16 17:33:20
7 51.920581818 4.471922874 3 11.65 1.410 2024-06-16 17:33:11
9 51.918800354 4.472246170 3 17.67 0.910 2024-06-16 17:32:35
9 51.923213959 4.497625351 5 9.28 0.900 2024-06-16 17:32:32
7 51.923557281 4.497445107 5 4.04 1.520 2024-06-16 17:32:25
9 51.918457031 4.472430706 3 8.56 0.910 2024-06-16 17:32:25
10 51.918323517 4.472488403 3 6.22 0.840 2024-06-16 17:32:14
10 51.918052673 4.472569942 3 19.28 0.840 2024-06-16 17:32:03
9 51.917476654 4.472846031 3 22.71 1.020 2024-06-16 17:31:54
8 51.923969269 4.496222496 5 11.56 1.530 2024-06-16 17:31:45
10 51.916946411 4.473018646 3 12.33 0.840 2024-06-16 17:31:44
9 51.924324036 4.496041775 5 13.56 1.020 2024-06-16 17:31:37
10 51.916709900 4.473207474 3 15.56 0.840 2024-06-16 17:31:34
10 51.916286469 4.473691463 3 20.74 0.840 2024-06-16 17:31:24
10 51.915946960 4.474102497 3 8.02 0.840 2024-06-16 17:31:14
9 51.915725708 4.474384785 3 18.98 0.980 2024-06-16 17:31:05
9 51.915180206 4.474946499 3 26.30 0.910 2024-06-16 17:30:55
9 51.914569855 4.475443363 3 25.09 0.910 2024-06-16 17:30:43
7 51.927074432 4.496144772 5 20.78 1.150 2024-06-16 17:30:33
7 51.913871765 4.475881577 3 33.82 1.420 2024-06-16 17:30:33
8 51.912998199 4.476490498 3 36.43 1.010 2024-06-16 17:30:23
10 51.912147522 4.477000237 3 24.93 0.900 2024-06-16 17:30:15
5 51.927711487 4.496161938 5 24.17 4.440 2024-06-16 17:30:14
9 51.911640167 4.477307320 3 14.96 0.900 2024-06-16 17:30:04
7 51.928329468 4.496283531 5 13.06 1.150 2024-06-16 17:30:04
8 51.928680420 4.496392727 5 16.89 1.030 2024-06-16 17:29:54
10 51.911251068 4.477591038 3 14.00 0.840 2024-06-16 17:29:53
8 51.929023743 4.496716499 5 11.22 1.080 2024-06-16 17:29:44
8 51.929397583 4.496714592 5 17.70 0.980 2024-06-16 17:29:34
9 51.911064148 4.477729321 3 0.44 0.900 2024-06-16 17:29:33
9 51.910903931 4.477848530 3 14.98 0.900 2024-06-16 17:29:24
8 51.930023193 4.496724606 5 21.45 1.510 2024-06-16 17:29:24
8 51.930591583 4.496829033 5 20.04 1.040 2024-06-16 17:29:13
9 51.931175232 4.497036934 5 21.43 0.910 2024-06-16 17:29:04
9 51.931728363 4.497217655 5 20.45 0.910 2024-06-16 17:28:54
9 51.909385681 4.478786945 3 16.48 0.980 2024-06-16 17:28:48
9 51.932178497 4.497369289 5 13.41 0.910 2024-06-16 17:28:43
9 51.908946991 4.479364395 3 17.80 0.900 2024-06-16 17:28:38
8 51.909011841 4.479567528 3 23.74 1.010 2024-06-16 17:28:34
9 51.932415009 4.497362614 5 6.08 0.910 2024-06-16 17:28:34
8 51.909374237 4.480452538 3 27.13 1.290 2024-06-16 17:28:19
8 51.932426453 4.497106552 5 7.22 0.980 2024-06-16 17:28:15
8 51.909709930 4.481415272 3 22.37 0.960 2024-06-16 17:28:08
9 51.909919739 4.482085705 3 10.82 0.960 2024-06-16 17:28:02
6 51.932537079 4.496690750 5 1.72 2.320 2024-06-16 17:27:26
8 51.932579041 4.496465206 5 9.93 1.050 2024-06-16 17:27:04
8 51.932613373 4.495881557 5 20.80 1.050 2024-06-16 17:26:54
8 51.932685852 4.494960785 5 19.59 1.050 2024-06-16 17:26:43
7 51.932613373 4.494212627 5 16.67 1.160 2024-06-16 17:26:33
8 51.932735443 4.493286610 5 28.96 1.050 2024-06-16 17:26:24
8 51.932846069 4.492111683 5 30.48 1.050 2024-06-16 17:26:16
9 51.932964325 4.490859032 5 29.50 0.920 2024-06-16 17:26:04
9 51.910041809 4.482402325 3 0.09 0.880 2024-06-16 17:25:59
8 51.933109283 4.489761353 5 24.69 1.500 2024-06-16 17:25:54
6 51.933197021 4.488869190 5 13.72 1.760 2024-06-16 17:25:44
8 51.933097839 4.488342762 5 10.82 1.060 2024-06-16 17:25:34
8 51.932754517 4.487939358 5 20.58 1.060 2024-06-16 17:25:24
8 51.932174683 4.487425327 5 25.24 0.990 2024-06-16 17:25:14
8 51.930080414 4.486481667 5 15.74 1.090 2024-06-16 17:25:05
10 51.909927368 4.482277393 3 0.06 0.880 2024-06-16 17:24:48
9 51.910068512 4.482325554 3 0.00 0.950 2024-06-16 17:24:18
9 51.928672791 4.486642838 5 12.98 0.920 2024-06-16 17:24:13
7 51.928256989 4.486703396 5 14.54 1.190 2024-06-16 17:24:03
9 51.927787781 4.486718655 5 25.48 0.920 2024-06-16 17:23:52
8 51.927124023 4.486701965 5 17.45 1.190 2024-06-16 17:23:42
9 51.909934998 4.482378483 3 0.32 0.880 2024-06-16 17:23:38
9 51.926681519 4.486690521 5 9.13 0.930 2024-06-16 17:23:34
9 51.926311493 4.486697674 5 15.87 0.930 2024-06-16 17:23:22
8 51.909782410 4.482411385 3 7.61 1.150 2024-06-16 17:23:18
9 51.925720215 4.486569881 5 17.82 0.930 2024-06-16 17:23:12
8 51.909484863 4.482257366 3 15.45 1.150 2024-06-16 17:23:08
6 51.925262451 4.486448288 5 12.93 1.270 2024-06-16 17:23:03
10 51.908809662 4.481513500 3 13.41 0.830 2024-06-16 17:22:59
8 51.924900055 4.486193180 5 12.82 1.040 2024-06-16 17:22:52
9 51.924831390 4.485619068 5 5.43 0.930 2024-06-16 17:22:42
9 51.924808502 4.485291004 5 7.67 0.930 2024-06-16 17:22:34
10 51.909164429 4.480117321 3 12.06 0.880 2024-06-16 17:22:23
9 51.924858093 4.484783173 5 14.39 0.930 2024-06-16 17:22:22
9 51.925220490 4.483214855 5 28.30 1.110 2024-06-16 17:22:14
10 51.908962250 4.479568481 3 14.69 0.900 2024-06-16 17:22:13
8 51.925292969 4.482890129 5 24.56 1.110 2024-06-16 17:22:04
8 51.908882141 4.478969097 3 15.32 1.010 2024-06-16 17:22:03
9 51.909191132 4.478632450 3 17.24 1.020 2024-06-16 17:21:55
9 51.925331116 4.481920719 5 17.04 0.930 2024-06-16 17:21:53
9 51.909690857 4.478390217 3 22.30 0.970 2024-06-16 17:21:42
9 51.925292969 4.481635094 5 0.54 0.930 2024-06-16 17:21:42
10 51.910186768 4.478104591 3 17.63 0.830 2024-06-16 17:21:33
9 51.925212860 4.481455326 5 13.80 0.930 2024-06-16 17:21:32
9 51.910652161 4.478134632 3 21.82 0.900 2024-06-16 17:21:22
9 51.925018311 4.480912685 5 14.70 0.930 2024-06-16 17:21:22
9 51.911170959 4.477738857 3 18.59 0.900 2024-06-16 17:21:12
8 51.924671173 4.479852200 5 12.37 1.050 2024-06-16 17:21:06
10 51.911514282 4.477729797 3 13.37 0.830 2024-06-16 17:21:03
9 51.924625397 4.479550362 5 2.37 0.940 2024-06-16 17:20:42
9 51.911548615 4.478175640 3 0.04 0.900 2024-06-16 17:20:33
8 51.924591064 4.479285717 5 13.15 1.470 2024-06-16 17:20:32
9 51.924457550 4.478808403 5 15.76 1.090 2024-06-16 17:20:22
8 51.924304962 4.478334904 5 0.11 1.200 2024-06-16 17:20:03
10 51.911636353 4.477990150 3 1.13 0.830 2024-06-16 17:19:52
7 51.924011230 4.478041649 5 12.39 1.250 2024-06-16 17:19:33
7 51.911750793 4.478157520 3 1.72 1.260 2024-06-16 17:19:32
8 51.911605835 4.478223324 3 7.72 1.100 2024-06-16 17:19:02
8 51.911960602 4.479232311 3 28.43 1.100 2024-06-16 17:18:52
7 51.912059784 4.479543686 3 26.39 1.460 2024-06-16 17:18:49
7 51.923629761 4.478111267 5 0.18 1.290 2024-06-16 17:18:33
9 51.912250519 4.480510235 3 22.65 0.950 2024-06-16 17:18:32
9 51.912284851 4.481398582 3 17.46 0.950 2024-06-16 17:18:22
8 51.923484802 4.478188038 5 12.63 1.060 2024-06-16 17:18:13
9 51.912208557 4.481984138 3 19.56 0.950 2024-06-16 17:18:13
7 51.944953918 4.484088898 2 2.68 1.210 2024-06-16 17:18:06
7 51.912006378 4.482154369 3 0.78 1.060 2024-06-16 17:18:03
8 51.923099518 4.478427410 5 17.56 1.060 2024-06-16 17:18:02
7 51.922676086 4.478606224 5 12.54 1.130 2024-06-16 17:17:53
7 51.921768188 4.479019165 5 20.85 1.210 2024-06-16 17:17:44
9 51.911876678 4.482253075 3 11.76 0.950 2024-06-16 17:17:43
8 51.911544800 4.482450485 3 18.89 1.010 2024-06-16 17:17:35
9 51.910957336 4.482672691 3 27.85 0.950 2024-06-16 17:17:22
8 51.944694519 4.483979702 2 1.35 1.130 2024-06-16 17:17:16
9 51.910408020 4.483442783 3 32.30 0.950 2024-06-16 17:17:13
9 51.909954071 4.484545231 3 29.54 0.950 2024-06-16 17:17:03
9 51.909542084 4.485567093 3 28.85 0.950 2024-06-16 17:16:53
9 51.909103394 4.486633301 3 29.85 0.950 2024-06-16 17:16:43
9 51.908702850 4.487626553 3 17.48 0.950 2024-06-16 17:16:32
7 51.908420563 4.488249302 3 25.15 1.450 2024-06-16 17:16:24
8 51.919677734 4.477879524 5 12.24 1.070 2024-06-16 17:16:20
9 51.908042908 4.489268780 3 32.39 0.960 2024-06-16 17:16:12
8 51.919559479 4.477330685 5 7.11 1.070 2024-06-16 17:16:10
9 51.907611847 4.490365505 3 29.19 0.960 2024-06-16 17:16:04
7 51.919487000 4.476688385 5 18.43 1.110 2024-06-16 17:16:00
5 51.919334412 4.475873470 5 14.98 2.230 2024-06-16 17:15:50
8 51.919185638 4.475166321 5 12.93 1.070 2024-06-16 17:15:40
9 51.944679260 4.483726978 2 7.28 0.960 2024-06-16 17:15:35
8 51.919101715 4.474452019 5 15.32 1.070 2024-06-16 17:15:31
8 51.918918610 4.473802090 5 11.04 1.070 2024-06-16 17:15:20
8 51.918758392 4.473333836 5 13.28 1.080 2024-06-16 17:15:10
8 51.918678284 4.472769737 5 11.21 1.080 2024-06-16 17:15:02
7 51.918441772 4.472325325 5 11.98 1.300 2024-06-16 17:14:52
6 51.918197632 4.472512245 5 15.46 1.270 2024-06-16 17:14:41
5 51.917785645 4.472804070 5 17.67 2.190 2024-06-16 17:14:33
7 51.917308807 4.472945690 5 19.74 1.310 2024-06-16 17:14:21
8 51.916950226 4.473102570 5 14.30 1.080 2024-06-16 17:14:12
8 51.944667816 4.484010220 2 3.56 1.160 2024-06-16 17:13:55
8 51.916641235 4.473426819 5 9.70 1.080 2024-06-16 17:13:51
8 51.916339874 4.473754406 5 14.69 1.080 2024-06-16 17:13:40
9 51.944713593 4.484262943 2 0.87 0.970 2024-06-16 17:13:35
6 51.916011810 4.474075794 5 5.87 1.180 2024-06-16 17:13:31
8 51.915851593 4.474236965 5 9.11 1.080 2024-06-16 17:13:22
6 51.944908142 4.484490395 2 3.09 3.500 2024-06-16 17:13:15
7 51.907268524 4.491308212 3 0.37 1.660 2024-06-16 17:13:13
6 51.915641785 4.474654675 5 17.85 2.020 2024-06-16 17:13:11
5 51.945030212 4.484615803 2 3.00 3.690 2024-06-16 17:13:06
7 51.915187836 4.474986553 5 20.61 1.310 2024-06-16 17:13:03
7 51.914718628 4.475295067 5 19.11 1.310 2024-06-16 17:12:50
6 51.914203644 4.475681305 5 26.43 2.020 2024-06-16 17:12:40
7 51.913581848 4.476109028 5 25.02 1.310 2024-06-16 17:12:30
7 51.906833649 4.492438316 3 20.69 1.670 2024-06-16 17:12:27
6 51.913024902 4.476469517 5 17.96 1.410 2024-06-16 17:12:20
7 51.906581879 4.493110657 3 23.21 1.670 2024-06-16 17:12:14
6 51.912609100 4.476795197 5 19.37 2.020 2024-06-16 17:12:11
9 51.945255280 4.484728813 2 2.09 0.980 2024-06-16 17:12:06
8 51.906299591 4.493782997 3 15.98 1.040 2024-06-16 17:12:04
8 51.912124634 4.477093220 5 16.95 1.090 2024-06-16 17:12:00
7 51.906150818 4.494113445 3 7.33 1.680 2024-06-16 17:11:54
8 51.911773682 4.477280140 5 11.69 1.090 2024-06-16 17:11:50
7 51.906288147 4.494110107 3 0.65 1.680 2024-06-16 17:11:45
8 51.911487579 4.477302074 5 12.35 1.090 2024-06-16 17:11:41
8 51.906448364 4.494030476 3 11.41 1.150 2024-06-16 17:11:34
6 51.911262512 4.476761341 5 20.04 1.460 2024-06-16 17:11:30
6 51.906700134 4.494380951 3 14.56 1.280 2024-06-16 17:11:24
5 51.911037445 4.476027966 5 21.67 1.860 2024-06-16 17:11:20
9 51.945411682 4.484858036 2 2.72 0.980 2024-06-16 17:11:15
7 51.906990051 4.494704723 3 15.57 1.150 2024-06-16 17:11:14
7 51.910797119 4.475283146 5 16.74 1.320 2024-06-16 17:11:10
8 51.907218933 4.495024204 3 9.54 1.090 2024-06-16 17:11:06
9 51.945621490 4.484616756 2 16.59 0.980 2024-06-16 17:11:05
6 51.910610199 4.474689007 5 17.46 1.460 2024-06-16 17:11:01
8 51.945930481 4.484116077 2 15.35 1.180 2024-06-16 17:10:55
8 51.907447815 4.494677544 3 8.52 1.050 2024-06-16 17:10:54
5 51.910404205 4.474070549 5 17.43 1.870 2024-06-16 17:10:51
9 51.945945740 4.483617783 2 16.56 0.980 2024-06-16 17:10:45
8 51.907558441 4.494405270 3 5.56 1.050 2024-06-16 17:10:45
6 51.910179138 4.473389149 5 19.02 1.700 2024-06-16 17:10:41
9 51.945423126 4.483231068 2 25.59 0.980 2024-06-16 17:10:35
8 51.907764435 4.494153500 3 16.07 1.050 2024-06-16 17:10:34
6 51.909938812 4.472662926 5 19.06 1.710 2024-06-16 17:10:30
9 51.944824219 4.482861996 2 19.09 0.980 2024-06-16 17:10:25
8 51.908058167 4.493618965 3 21.58 1.050 2024-06-16 17:10:24
6 51.909744263 4.472017288 5 16.04 1.710 2024-06-16 17:10:20
8 51.944374084 4.482574940 2 21.06 1.150 2024-06-16 17:10:15
8 51.908218384 4.492924213 3 9.15 1.050 2024-06-16 17:10:14
6 51.909549713 4.471362591 5 18.06 1.590 2024-06-16 17:10:11
9 51.943870544 4.482244968 2 22.48 0.990 2024-06-16 17:10:05
5 51.908279419 4.492349148 3 20.00 2.420 2024-06-16 17:10:04
8 51.909339905 4.470634937 5 19.82 1.100 2024-06-16 17:10:00
9 51.943305969 4.481901646 2 24.11 0.990 2024-06-16 17:09:55
7 51.907947540 4.491624355 3 22.20 1.700 2024-06-16 17:09:54
8 51.909114838 4.469891548 5 21.87 1.100 2024-06-16 17:09:51
8 51.942684174 4.481524944 2 25.45 1.050 2024-06-16 17:09:46
8 51.908870697 4.469108105 5 19.72 1.100 2024-06-16 17:09:44
7 51.907562256 4.490892887 3 9.56 1.700 2024-06-16 17:09:44
8 51.942108154 4.481041908 2 19.13 1.040 2024-06-16 17:09:38
7 51.908649445 4.468382359 5 16.91 1.320 2024-06-16 17:09:31
4 51.941680908 4.480457783 2 24.02 1.950 2024-06-16 17:09:25
8 51.907691956 4.490190029 3 0.83 1.050 2024-06-16 17:09:24
8 51.908470154 4.467772961 5 13.48 1.100 2024-06-16 17:09:20
9 51.941299438 4.479841232 2 20.20 0.990 2024-06-16 17:09:15
8 51.907951355 4.489544868 3 22.45 1.050 2024-06-16 17:09:15
8 51.908329010 4.467252731 5 9.67 1.110 2024-06-16 17:09:12
9 51.940830231 4.479285240 2 23.41 0.990 2024-06-16 17:09:05
8 51.940406799 4.479056358 2 6.46 1.140 2024-06-16 17:08:55
8 51.908779144 4.487499237 3 22.95 1.060 2024-06-16 17:08:43
8 51.908004761 4.466712952 5 15.95 1.110 2024-06-16 17:08:40
8 51.907718658 4.466277599 5 11.54 1.110 2024-06-16 17:08:30
8 51.909107208 4.486649990 3 28.87 1.060 2024-06-16 17:08:29
8 51.907608032 4.465638161 5 18.37 1.110 2024-06-16 17:08:21
8 51.909503937 4.485716820 3 30.63 1.060 2024-06-16 17:08:20
8 51.940280914 4.479258060 2 0.39 1.160 2024-06-16 17:08:16
8 51.907375336 4.465142250 5 19.50 1.110 2024-06-16 17:08:11
8 51.909908295 4.484680653 3 26.13 1.060 2024-06-16 17:08:10
8 51.939922333 4.479343414 2 23.35 1.210 2024-06-16 17:08:06
7 51.906894684 4.464766026 5 18.20 1.240 2024-06-16 17:08:03
7 51.906646729 4.464089870 5 18.72 1.240 2024-06-16 17:07:50
8 51.910453796 4.483312130 3 11.98 1.060 2024-06-16 17:07:49
8 51.906414032 4.463341713 5 20.74 1.110 2024-06-16 17:07:40
7 51.910701752 4.482902050 3 18.09 1.170 2024-06-16 17:07:39
8 51.906143188 4.462543011 5 21.80 1.110 2024-06-16 17:07:30
8 51.911167145 4.482581139 3 19.72 1.060 2024-06-16 17:07:29
9 51.938079834 4.479556084 2 10.19 1.000 2024-06-16 17:07:21
8 51.905834198 4.461734772 5 23.13 1.120 2024-06-16 17:07:20
5 51.911670685 4.482413292 3 23.71 4.170 2024-06-16 17:07:19
8 51.937801361 4.479105949 2 16.82 1.060 2024-06-16 17:07:11
7 51.912303925 4.482272148 3 13.35 1.730 2024-06-16 17:07:10
8 51.905536652 4.460894108 5 21.20 1.120 2024-06-16 17:07:10
9 51.937446594 4.478678703 2 15.89 1.000 2024-06-16 17:07:01
8 51.905261993 4.460186958 5 12.93 1.120 2024-06-16 17:07:00
8 51.905117035 4.459847450 5 7.24 1.120 2024-06-16 17:06:51
9 51.937183380 4.478229523 2 17.67 1.000 2024-06-16 17:06:51
8 51.936809540 4.477594852 2 24.26 1.060 2024-06-16 17:06:41
8 51.904880524 4.459313393 5 23.63 1.120 2024-06-16 17:06:41
8 51.913383484 4.482028961 3 18.15 1.060 2024-06-16 17:06:37
7 51.904548645 4.458339214 5 26.22 1.170 2024-06-16 17:06:31
8 51.936325073 4.476920128 2 27.21 1.060 2024-06-16 17:06:31
8 51.913990021 4.481921673 3 27.67 1.070 2024-06-16 17:06:22
9 51.935760498 4.476423740 2 17.39 1.010 2024-06-16 17:06:21
7 51.904209137 4.457200050 5 23.21 1.180 2024-06-16 17:06:20
8 51.914699554 4.481829166 3 27.67 1.070 2024-06-16 17:06:12
9 51.935394287 4.475978851 2 21.50 1.010 2024-06-16 17:06:11
8 51.903900146 4.455258846 5 20.69 1.120 2024-06-16 17:06:07
7 51.915416718 4.481846809 3 23.87 1.170 2024-06-16 17:06:02
9 51.934932709 4.475466728 2 22.39 1.010 2024-06-16 17:06:01
9 51.934551239 4.474879742 2 19.61 1.010 2024-06-16 17:05:52
8 51.916023254 4.481826305 3 21.41 1.070 2024-06-16 17:05:52
8 51.903789520 4.454449654 5 18.76 1.120 2024-06-16 17:05:50
8 51.916503906 4.481847763 3 10.76 1.070 2024-06-16 17:05:41
8 51.916774750 4.481837749 3 16.48 1.070 2024-06-16 17:05:32
8 51.903640747 4.453623295 5 3.85 1.130 2024-06-16 17:05:30
9 51.934246063 4.474389553 2 11.33 1.010 2024-06-16 17:05:22
8 51.917610168 4.481503487 3 16.54 1.070 2024-06-16 17:05:21
8 51.903556824 4.453235626 5 17.50 1.130 2024-06-16 17:05:21
8 51.917747498 4.481455803 3 15.43 1.070 2024-06-16 17:05:14
9 51.933856964 4.473943710 2 27.98 1.010 2024-06-16 17:05:11
8 51.903465271 4.452416420 5 18.98 1.130 2024-06-16 17:05:11
8 51.918178558 4.481544495 3 12.98 1.760 2024-06-16 17:05:03
8 51.903446198 4.451545238 5 22.93 1.130 2024-06-16 17:05:02
8 51.933300018 4.473244667 2 23.85 1.070 2024-06-16 17:05:02
7 51.918289185 4.481956005 3 1.85 1.760 2024-06-16 17:04:52
9 51.932926178 4.473031044 2 8.45 1.020 2024-06-16 17:04:51
8 51.903484344 4.450572968 5 25.02 1.130 2024-06-16 17:04:51
9 51.932739258 4.473480701 2 20.74 1.020 2024-06-16 17:04:41
8 51.903606415 4.449604511 5 23.98 1.130 2024-06-16 17:04:41
7 51.918262482 4.482200146 3 0.33 1.760 2024-06-16 17:04:32
8 51.903747559 4.448756695 5 18.50 1.130 2024-06-16 17:04:30
9 51.932399750 4.474353313 2 27.11 1.020 2024-06-16 17:04:30
7 51.918388367 4.483224392 3 15.43 1.180 2024-06-16 17:04:26
8 51.932041168 4.475325108 2 24.59 1.070 2024-06-16 17:04:21
8 51.903926849 4.448020458 5 20.48 1.130 2024-06-16 17:04:21
6 51.931732178 4.476272583 2 25.69 1.880 2024-06-16 17:04:11
8 51.904132843 4.447334766 5 14.70 1.130 2024-06-16 17:04:11
9 51.931392670 4.477246284 2 29.32 1.020 2024-06-16 17:04:01
8 51.931045532 4.478323460 2 24.69 1.240 2024-06-16 17:03:51
8 51.904293060 4.446921825 5 6.50 1.140 2024-06-16 17:03:50
7 51.918750763 4.485161304 3 0.80 1.770 2024-06-16 17:03:48
7 51.904430389 4.446402550 5 17.00 1.370 2024-06-16 17:03:41
7 51.930759430 4.479232788 2 23.35 1.220 2024-06-16 17:03:40
7 51.930442810 4.480074883 2 23.04 1.770 2024-06-16 17:03:30
8 51.904628754 4.445801735 5 17.76 1.140 2024-06-16 17:03:30
8 51.930133820 4.480864525 2 20.09 1.250 2024-06-16 17:03:20
8 51.918956757 4.486680031 3 11.22 1.080 2024-06-16 17:03:11
8 51.904975891 4.445388794 5 0.65 1.140 2024-06-16 17:03:11
8 51.929752350 4.481536865 2 25.54 1.250 2024-06-16 17:03:10
8 51.905124664 4.445230007 5 16.54 1.140 2024-06-16 17:03:02
9 51.929439545 4.482390404 2 19.06 1.030 2024-06-16 17:03:01
8 51.905586243 4.445167542 5 23.11 1.140 2024-06-16 17:02:52
9 51.929176331 4.482835770 2 17.78 1.030 2024-06-16 17:02:51
8 51.919128418 4.487201214 3 7.45 1.080 2024-06-16 17:02:48
8 51.906196594 4.445458412 5 24.95 1.140 2024-06-16 17:02:41
9 51.928787231 4.482492924 2 24.39 1.030 2024-06-16 17:02:40
8 51.928485870 4.481718063 2 24.28 1.140 2024-06-16 17:02:31
8 51.906826019 4.445583820 5 19.52 1.140 2024-06-16 17:02:30
8 51.919212341 4.487693787 3 0.78 1.080 2024-06-16 17:02:28
8 51.907287598 4.445614815 5 14.98 1.140 2024-06-16 17:02:22
8 51.928192139 4.480729103 2 29.48 1.140 2024-06-16 17:02:21
9 51.927799225 4.479664326 2 28.73 1.030 2024-06-16 17:02:12
8 51.907821655 4.445669174 5 23.56 1.140 2024-06-16 17:02:10
8 51.919307709 4.487866402 3 1.02 1.080 2024-06-16 17:02:08
8 51.908386230 4.445773125 5 18.69 1.150 2024-06-16 17:02:01
8 51.927505493 4.478697300 2 26.08 1.140 2024-06-16 17:02:00
7 51.919391632 4.488086224 3 15.37 1.120 2024-06-16 17:01:58
8 51.908920288 4.445861340 5 19.61 1.150 2024-06-16 17:01:51
8 51.927139282 4.477759838 2 25.22 1.150 2024-06-16 17:01:50
7 51.919593811 4.488729000 3 11.93 1.230 2024-06-16 17:01:50
9 51.926712036 4.476957321 2 25.28 1.030 2024-06-16 17:01:42
8 51.909442902 4.445927143 5 16.95 1.150 2024-06-16 17:01:41
8 51.919914246 4.489271164 3 10.28 1.080 2024-06-16 17:01:38
8 51.909843445 4.446018219 5 8.63 1.150 2024-06-16 17:01:30
9 51.926094055 4.476993084 2 28.06 1.030 2024-06-16 17:01:30
4 51.920364380 4.490269184 3 7.32 5.840 2024-06-16 17:01:30
7 51.909950256 4.446265697 5 10.22 1.370 2024-06-16 17:01:20
6 51.925411224 4.477394581 2 22.48 2.020 2024-06-16 17:01:20
7 51.924926758 4.477582932 2 18.00 1.440 2024-06-16 17:01:10
7 51.909934998 4.446603298 5 0.63 1.210 2024-06-16 17:01:01
9 51.924541473 4.477409363 2 15.46 1.370 2024-06-16 17:01:01
8 51.920902252 4.492194176 3 25.78 1.090 2024-06-16 17:00:53
8 51.921249390 4.493211746 3 23.63 1.090 2024-06-16 17:00:44
8 51.921558380 4.494078636 3 24.15 1.090 2024-06-16 17:00:32
7 51.921882629 4.495052814 3 27.84 1.230 2024-06-16 17:00:23
6 51.922264099 4.496062756 3 25.61 1.430 2024-06-16 17:00:12
8 51.922664642 4.496781349 3 17.56 1.090 2024-06-16 17:00:03
8 51.924327850 4.476927757 2 0.70 1.280 2024-06-16 16:59:51
8 51.924354553 4.475954533 2 21.58 1.290 2024-06-16 16:59:05
7 51.910503387 4.450852871 5 5.87 1.380 2024-06-16 16:59:04
7 51.922969818 4.497440338 3 0.13 1.200 2024-06-16 16:59:03
9 51.924175262 4.475215912 2 13.67 1.050 2024-06-16 16:58:56
8 51.910621643 4.451228619 5 14.56 1.160 2024-06-16 16:58:52
9 51.924179077 4.474514008 2 7.63 1.050 2024-06-16 16:58:45
8 51.910945892 4.451812267 5 18.00 1.160 2024-06-16 16:58:42
8 51.924152374 4.474166870 2 7.56 1.160 2024-06-16 16:58:36
8 51.911273956 4.452436447 5 16.45 1.160 2024-06-16 16:58:33
8 51.923046112 4.497603893 3 12.46 1.100 2024-06-16 16:58:31
7 51.923923492 4.473806381 2 20.41 1.960 2024-06-16 16:58:26
9 51.923732758 4.472927094 2 24.91 1.050 2024-06-16 16:58:15
8 51.923282623 4.497600079 3 0.07 1.100 2024-06-16 16:58:08
9 51.923526764 4.472074032 2 12.26 1.050 2024-06-16 16:58:05
9 51.923271179 4.471850395 2 4.33 1.050 2024-06-16 16:57:55
7 51.922790527 4.471306801 2 17.91 1.290 2024-06-16 16:57:46
8 51.923286438 4.497333050 3 5.78 1.100 2024-06-16 16:57:37
7 51.923530579 4.497009277 3 15.17 1.200 2024-06-16 16:57:27
8 51.923786163 4.496746540 3 18.09 1.100 2024-06-16 16:57:17
7 51.921211243 4.471606731 2 14.09 1.230 2024-06-16 16:57:09
9 51.945285797 4.484863281 1 0.70 0.940 2024-06-16 16:57:05
6 51.920879364 4.472023010 2 13.45 1.390 2024-06-16 16:56:59
8 51.924163818 4.495976448 3 11.96 1.100 2024-06-16 16:56:58
7 51.920516968 4.472029686 2 5.56 1.230 2024-06-16 16:56:50
8 51.925037384 4.496035099 3 23.93 1.100 2024-06-16 16:56:45
7 51.920356750 4.471985340 2 8.70 1.330 2024-06-16 16:56:39
6 51.920127869 4.472075462 2 6.35 2.000 2024-06-16 16:56:29
8 51.912826538 4.457788944 5 16.74 1.170 2024-06-16 16:56:22
8 51.919868469 4.472072124 2 13.96 1.310 2024-06-16 16:56:19
7 51.926021576 4.496078968 3 15.52 1.220 2024-06-16 16:56:18
8 51.912967682 4.458465099 5 12.21 1.180 2024-06-16 16:56:12
9 51.919090271 4.472234726 2 23.11 1.060 2024-06-16 16:56:09
5 51.926525116 4.496313572 3 3.76 2.940 2024-06-16 16:56:08
9 51.918106079 4.472414970 2 14.48 1.110 2024-06-16 16:56:05
9 51.945434570 4.484889507 1 1.72 0.940 2024-06-16 16:55:53
8 51.945518494 4.484694481 1 15.02 1.180 2024-06-16 16:55:46
8 51.913028717 4.458925724 5 0.33 1.180 2024-06-16 16:55:41
7 51.927204132 4.496486187 3 19.65 1.210 2024-06-16 16:55:36
9 51.945819855 4.484148026 1 16.82 0.940 2024-06-16 16:55:34
7 51.927703857 4.496315956 3 20.87 1.210 2024-06-16 16:55:26
9 51.945957184 4.483686447 1 14.82 0.940 2024-06-16 16:55:24
8 51.913085938 4.459171295 5 6.61 1.180 2024-06-16 16:55:21
6 51.928173065 4.496363163 3 16.30 2.020 2024-06-16 16:55:15
9 51.945590973 4.483310223 1 22.71 0.940 2024-06-16 16:55:13
8 51.913162231 4.459648609 5 18.61 1.180 2024-06-16 16:55:13
9 51.916355133 4.473602295 2 20.54 1.060 2024-06-16 16:55:08
7 51.928558350 4.496508121 3 17.70 1.210 2024-06-16 16:55:04
8 51.913299561 4.460409164 5 8.87 1.180 2024-06-16 16:55:03
9 51.945037842 4.482924461 1 23.00 0.940 2024-06-16 16:55:03
8 51.915920258 4.474146366 2 20.22 1.320 2024-06-16 16:54:57
9 51.944549561 4.482582569 1 17.87 0.990 2024-06-16 16:54:53
8 51.913349152 4.460738659 5 8.48 1.180 2024-06-16 16:54:52
8 51.915515900 4.474714279 2 17.22 1.110 2024-06-16 16:54:48
5 51.928836823 4.496733665 3 1.83 3.150 2024-06-16 16:54:47
9 51.944057465 4.482277870 1 30.52 0.940 2024-06-16 16:54:43
8 51.913475037 4.461453915 5 21.46 1.180 2024-06-16 16:54:40
9 51.915050507 4.475153923 2 18.00 1.070 2024-06-16 16:54:38
9 51.943298340 4.481810093 1 31.73 0.990 2024-06-16 16:54:34
8 51.913677216 4.462443352 5 18.96 1.180 2024-06-16 16:54:32
8 51.914585114 4.475420952 2 24.09 1.330 2024-06-16 16:54:27
9 51.942638397 4.481297493 1 26.63 0.940 2024-06-16 16:54:24
8 51.913784027 4.463250160 5 16.63 1.180 2024-06-16 16:54:24
7 51.913963318 4.475714207 2 23.84 1.860 2024-06-16 16:54:17
8 51.942111969 4.480822563 1 18.95 1.180 2024-06-16 16:54:13
8 51.913917542 4.463928699 5 9.48 1.180 2024-06-16 16:54:11
7 51.913429260 4.476309299 2 26.76 1.860 2024-06-16 16:54:07
8 51.941539764 4.480240345 1 31.74 0.990 2024-06-16 16:54:05
7 51.912754059 4.476896763 2 32.78 1.860 2024-06-16 16:53:57
9 51.941020966 4.479550838 1 22.24 0.940 2024-06-16 16:53:54
8 51.913993835 4.464291573 5 2.24 1.190 2024-06-16 16:53:51
9 51.911926270 4.477227688 2 20.61 1.070 2024-06-16 16:53:47
9 51.940593719 4.479178429 1 16.06 0.940 2024-06-16 16:53:43
8 51.914085388 4.464643002 5 13.52 1.190 2024-06-16 16:53:41
8 51.911449432 4.477560997 2 14.95 1.100 2024-06-16 16:53:37
9 51.940299988 4.479137421 1 0.18 0.990 2024-06-16 16:53:34
8 51.914276123 4.465342522 5 22.11 1.410 2024-06-16 16:53:31
8 51.911136627 4.477731705 2 5.93 1.110 2024-06-16 16:53:27
8 51.940048218 4.479169369 1 22.15 1.190 2024-06-16 16:53:23
8 51.914703369 4.465912819 5 12.85 1.190 2024-06-16 16:53:21
9 51.911006927 4.477802277 2 8.69 1.070 2024-06-16 16:53:17
8 51.939430237 4.479345798 1 25.98 1.190 2024-06-16 16:53:13
8 51.915134430 4.466114998 5 19.04 1.190 2024-06-16 16:53:12
9 51.910633087 4.477971077 2 9.54 1.070 2024-06-16 16:53:07
8 51.938808441 4.479410172 1 18.26 1.190 2024-06-16 16:53:06
8 51.915531158 4.466526985 5 14.95 1.190 2024-06-16 16:53:03
7 51.910388947 4.478398800 2 21.34 1.290 2024-06-16 16:52:57
9 51.938373566 4.479577541 1 18.22 0.940 2024-06-16 16:52:54
8 51.915790558 4.467229843 5 14.30 1.190 2024-06-16 16:52:51
5 51.909839630 4.478612423 2 21.48 2.690 2024-06-16 16:52:47
8 51.938056946 4.479586601 1 8.69 1.190 2024-06-16 16:52:45
8 51.915897369 4.467709541 5 3.04 1.190 2024-06-16 16:52:42
8 51.909328461 4.478841782 2 17.74 1.340 2024-06-16 16:52:37
6 51.937862396 4.479327679 1 12.19 1.640 2024-06-16 16:52:34
8 51.915977478 4.468031883 5 18.54 1.190 2024-06-16 16:52:31
8 51.909088135 4.479239941 2 11.04 1.340 2024-06-16 16:52:28
7 51.937599182 4.478887558 1 11.56 1.220 2024-06-16 16:52:25
8 51.916175842 4.468937397 5 23.17 1.190 2024-06-16 16:52:22
6 51.909194946 4.479966164 2 16.34 2.010 2024-06-16 16:52:18
8 51.937381744 4.478555202 1 8.85 1.190 2024-06-16 16:52:15
8 51.916378021 4.469808102 5 22.72 1.190 2024-06-16 16:52:11
8 51.909332275 4.480570793 2 13.80 1.190 2024-06-16 16:52:09
8 51.916587830 4.470725060 5 19.17 1.190 2024-06-16 16:52:01
7 51.933181763 4.489150047 3 15.07 1.220 2024-06-16 16:51:59
7 51.909484863 4.481095791 2 17.74 1.360 2024-06-16 16:51:58
8 51.937221527 4.478330135 1 6.04 1.190 2024-06-16 16:51:53
8 51.916725159 4.471432686 5 20.63 1.190 2024-06-16 16:51:52
8 51.909732819 4.481750488 2 17.02 1.190 2024-06-16 16:51:50
6 51.933048248 4.488553524 3 11.93 1.320 2024-06-16 16:51:49
8 51.936992645 4.477958202 1 17.93 1.190 2024-06-16 16:51:44
8 51.916904449 4.472187519 5 17.04 1.190 2024-06-16 16:51:42
7 51.932621002 4.487949848 3 23.80 1.220 2024-06-16 16:51:40
8 51.936595917 4.477334499 1 22.96 1.190 2024-06-16 16:51:34
8 51.917610168 4.472437382 5 23.37 1.200 2024-06-16 16:51:32
7 51.931762695 4.487089634 3 25.48 1.220 2024-06-16 16:51:29
7 51.930690765 4.486455441 3 22.17 1.220 2024-06-16 16:51:26
9 51.936096191 4.476704597 1 20.39 0.940 2024-06-16 16:51:24
7 51.909770966 4.482494354 2 5.19 1.430 2024-06-16 16:51:18
8 51.935649872 4.476359367 1 15.32 1.200 2024-06-16 16:51:14
7 51.909515381 4.482369423 2 12.21 1.430 2024-06-16 16:51:07
9 51.935230255 4.475801945 1 20.87 0.940 2024-06-16 16:51:04
7 51.909225464 4.482077122 2 16.22 1.430 2024-06-16 16:50:57
9 51.934818268 4.475329399 1 22.96 1.200 2024-06-16 16:50:53
8 51.908859253 4.481648445 2 16.91 1.120 2024-06-16 16:50:47
8 51.934391022 4.474764347 1 19.46 1.200 2024-06-16 16:50:45
7 51.919513702 4.471724987 5 25.13 1.430 2024-06-16 16:50:44
9 51.934131622 4.474327564 1 4.33 0.940 2024-06-16 16:50:35
5 51.920082092 4.471598148 5 18.78 2.350 2024-06-16 16:50:34
8 51.908905029 4.480759621 2 19.19 1.200 2024-06-16 16:50:34
7 51.928733826 4.486573696 3 29.39 1.220 2024-06-16 16:50:29
5 51.920597076 4.471571922 5 17.07 2.350 2024-06-16 16:50:24
8 51.933998108 4.474103451 1 15.11 1.200 2024-06-16 16:50:24
8 51.933559418 4.473503590 1 24.48 1.200 2024-06-16 16:50:18
8 51.909145355 4.480068207 2 14.46 1.200 2024-06-16 16:50:18
7 51.928028107 4.486572266 3 25.24 1.220 2024-06-16 16:50:17
6 51.920989990 4.471329212 5 19.78 1.500 2024-06-16 16:50:14
9 51.908920288 4.479399681 2 17.48 1.080 2024-06-16 16:50:07
7 51.927349091 4.486608505 3 18.93 1.220 2024-06-16 16:50:07
7 51.921516418 4.471114159 5 23.34 1.290 2024-06-16 16:50:05
8 51.933185577 4.473008156 1 17.78 1.200 2024-06-16 16:50:04
8 51.908973694 4.478829861 2 13.41 1.200 2024-06-16 16:49:58
8 51.922519684 4.470874310 5 17.61 1.200 2024-06-16 16:49:57
7 51.926933289 4.486654282 3 3.98 1.220 2024-06-16 16:49:57
8 51.932884216 4.473074436 1 9.09 1.220 2024-06-16 16:49:53
7 51.909332275 4.478562832 2 17.17 1.880 2024-06-16 16:49:49
7 51.926757812 4.486690521 3 8.45 1.220 2024-06-16 16:49:47
9 51.932621002 4.473757267 1 30.26 0.940 2024-06-16 16:49:43
7 51.926357269 4.486638069 3 20.28 1.220 2024-06-16 16:49:37
9 51.909839630 4.478230476 2 20.35 1.080 2024-06-16 16:49:37
9 51.932258606 4.474781036 1 29.17 0.940 2024-06-16 16:49:34
7 51.910247803 4.478048325 2 18.02 1.880 2024-06-16 16:49:28
7 51.925773621 4.486515045 3 20.08 1.220 2024-06-16 16:49:27
8 51.931880951 4.475815296 1 31.08 1.130 2024-06-16 16:49:23
9 51.910720825 4.477973938 2 21.87 1.080 2024-06-16 16:49:17
7 51.925292969 4.486392975 3 16.17 1.220 2024-06-16 16:49:17
8 51.931507111 4.476963043 1 31.54 1.200 2024-06-16 16:49:14
8 51.911231995 4.477617264 2 14.57 1.340 2024-06-16 16:49:07
7 51.924957275 4.486200809 3 7.02 1.220 2024-06-16 16:49:07
9 51.931129456 4.477959633 1 26.24 0.940 2024-06-16 16:49:05
7 51.924911499 4.485711575 3 7.09 1.220 2024-06-16 16:48:58
9 51.911548615 4.477642059 2 8.98 1.090 2024-06-16 16:48:57
9 51.930763245 4.478862286 1 26.85 0.940 2024-06-16 16:48:53
7 51.924907684 4.485374928 3 9.76 1.220 2024-06-16 16:48:47
8 51.930324554 4.479739666 1 27.59 1.200 2024-06-16 16:48:45
7 51.925029755 4.484829426 3 21.98 1.220 2024-06-16 16:48:38
9 51.929916382 4.480615139 1 21.39 0.940 2024-06-16 16:48:35
7 51.924365997 4.471380234 5 14.17 1.250 2024-06-16 16:48:30
6 51.925193787 4.483831882 3 29.28 1.450 2024-06-16 16:48:27
9 51.929603577 4.481454372 1 26.35 0.940 2024-06-16 16:48:25
6 51.924571991 4.472125530 5 23.26 1.900 2024-06-16 16:48:20
7 51.925533295 4.481945992 3 22.80 1.230 2024-06-16 16:48:17
9 51.929393768 4.482313633 1 20.52 0.940 2024-06-16 16:48:14
7 51.924736023 4.473064423 5 20.63 1.440 2024-06-16 16:48:10
9 51.929046631 4.482677460 1 20.39 0.940 2024-06-16 16:48:07
9 51.928573608 4.482279778 1 25.52 0.940 2024-06-16 16:47:53
6 51.924880981 4.474368095 5 10.57 1.540 2024-06-16 16:47:50
8 51.911682129 4.478082657 2 7.08 1.210 2024-06-16 16:47:47
7 51.928237915 4.481385708 1 28.78 1.280 2024-06-16 16:47:45
5 51.925151825 4.479830742 3 14.52 1.650 2024-06-16 16:47:45
8 51.924652100 4.474493504 5 11.67 1.210 2024-06-16 16:47:40
8 51.911819458 4.478570461 2 21.00 1.210 2024-06-16 16:47:38
9 51.927940369 4.480279446 1 31.13 0.940 2024-06-16 16:47:33
8 51.924324036 4.474656105 5 14.17 1.210 2024-06-16 16:47:30
7 51.912120819 4.479519367 2 25.78 1.280 2024-06-16 16:47:28
7 51.925144196 4.479350090 3 3.30 1.230 2024-06-16 16:47:24
9 51.927600861 4.479150772 1 28.89 0.940 2024-06-16 16:47:23
8 51.924201965 4.474816799 5 4.93 1.210 2024-06-16 16:47:20
7 51.912322998 4.480663300 2 25.85 1.440 2024-06-16 16:47:17
8 51.927291870 4.478116512 1 26.11 1.210 2024-06-16 16:47:14
6 51.924972534 4.479102135 3 13.06 1.280 2024-06-16 16:47:11
8 51.912307739 4.481529713 2 15.04 1.210 2024-06-16 16:47:07
8 51.927013397 4.477256775 1 21.13 1.210 2024-06-16 16:47:05
7 51.924678802 4.478610516 3 13.02 1.230 2024-06-16 16:47:03
8 51.912220001 4.482051373 2 13.87 1.210 2024-06-16 16:46:58
8 51.926685333 4.476740360 1 14.93 1.210 2024-06-16 16:46:53
6 51.924125671 4.474282265 5 1.19 3.280 2024-06-16 16:46:50
8 51.911930084 4.482335091 2 17.70 1.210 2024-06-16 16:46:48
8 51.924011230 4.474134445 5 0.82 1.210 2024-06-16 16:46:41
7 51.911426544 4.482537270 2 25.30 1.530 2024-06-16 16:46:39
8 51.926383972 4.476616859 1 5.63 1.210 2024-06-16 16:46:34
7 51.910812378 4.482855797 2 21.76 1.280 2024-06-16 16:46:27
9 51.925914764 4.476828098 1 32.85 0.990 2024-06-16 16:46:23
5 51.924282074 4.478184223 3 8.48 1.560 2024-06-16 16:46:21
8 51.910434723 4.483537197 2 24.26 1.210 2024-06-16 16:46:17
7 51.925243378 4.477198601 1 25.13 1.450 2024-06-16 16:46:14
6 51.923938751 4.477826595 3 8.98 2.000 2024-06-16 16:46:10
8 51.910011292 4.484582901 2 30.06 1.210 2024-06-16 16:46:08
8 51.924713135 4.477382183 1 19.06 1.210 2024-06-16 16:46:05
8 51.909595490 4.485615253 2 29.00 1.210 2024-06-16 16:45:58
8 51.924316406 4.477002144 1 15.15 1.210 2024-06-16 16:45:54
7 51.923656464 4.477873325 3 2.37 2.000 2024-06-16 16:45:50
8 51.909221649 4.486625195 2 25.30 1.210 2024-06-16 16:45:48
7 51.908546448 4.488204956 2 17.54 1.280 2024-06-16 16:45:40
7 51.923473358 4.477824688 3 5.48 1.230 2024-06-16 16:45:20
9 51.924236298 4.476648331 1 0.41 1.230 2024-06-16 16:45:15
7 51.923274994 4.477790833 3 8.98 1.230 2024-06-16 16:45:10
7 51.922889709 4.478025436 3 18.28 1.230 2024-06-16 16:45:00
8 51.907562256 4.490554333 2 18.48 1.210 2024-06-16 16:44:59
7 51.922431946 4.478172302 3 10.32 1.230 2024-06-16 16:44:50
9 51.924327850 4.476684093 1 1.98 0.930 2024-06-16 16:44:42
7 51.921981812 4.478415966 3 18.54 1.230 2024-06-16 16:44:41
7 51.921352386 4.479138374 3 15.34 1.230 2024-06-16 16:44:31
8 51.924308777 4.476378441 1 18.63 1.120 2024-06-16 16:44:31
7 51.907150269 4.491152287 2 0.39 1.250 2024-06-16 16:44:25
9 51.924179077 4.475621700 1 14.39 0.930 2024-06-16 16:44:21
9 51.924034119 4.475027561 1 15.98 0.930 2024-06-16 16:44:11
7 51.923812866 4.474235535 1 0.74 1.230 2024-06-16 16:43:51
3 51.920185089 4.479662418 3 9.02 3.960 2024-06-16 16:43:50
6 51.907051086 4.492369652 2 15.80 1.990 2024-06-16 16:43:36
9 51.923645020 4.474227905 1 2.35 0.930 2024-06-16 16:43:32
8 51.906803131 4.492943764 2 18.52 1.230 2024-06-16 16:43:27
7 51.919197083 4.474342823 5 20.50 1.230 2024-06-16 16:43:25
9 51.923500061 4.473791122 1 16.85 0.930 2024-06-16 16:43:24
6 51.919788361 4.477874756 3 5.80 1.990 2024-06-16 16:43:21
7 51.919277191 4.474627018 5 20.91 1.230 2024-06-16 16:43:17
5 51.906536102 4.493607998 2 20.19 2.070 2024-06-16 16:43:17
6 51.919692993 4.477451801 3 6.78 1.620 2024-06-16 16:43:11
6 51.906276703 4.494254589 2 15.30 1.990 2024-06-16 16:43:07
7 51.919425964 4.475613594 5 15.96 1.230 2024-06-16 16:43:04
7 51.923400879 4.473027706 1 1.09 1.790 2024-06-16 16:43:01
7 51.919528961 4.476782322 3 7.22 1.230 2024-06-16 16:43:01
7 51.906391144 4.494869709 2 12.98 1.230 2024-06-16 16:42:57
4 51.919555664 4.476148605 5 15.89 3.710 2024-06-16 16:42:54
5 51.919342041 4.476081848 3 10.04 3.420 2024-06-16 16:42:51
8 51.906734467 4.495281696 2 13.69 1.210 2024-06-16 16:42:49
8 51.919887543 4.477550507 5 11.76 1.210 2024-06-16 16:42:45
5 51.919319153 4.475667477 3 6.58 2.090 2024-06-16 16:42:41
8 51.923339844 4.472723484 1 3.83 1.210 2024-06-16 16:42:41
8 51.907165527 4.495305538 2 2.19 1.210 2024-06-16 16:42:36
9 51.923233032 4.472141266 1 16.63 0.930 2024-06-16 16:42:31
7 51.919273376 4.475228310 3 16.89 1.230 2024-06-16 16:42:30
8 51.907203674 4.494958878 2 11.95 1.210 2024-06-16 16:42:26
8 51.923084259 4.471379280 1 18.43 1.270 2024-06-16 16:42:21
7 51.919090271 4.474410057 3 15.96 1.230 2024-06-16 16:42:20
8 51.907348633 4.494469166 2 9.74 1.440 2024-06-16 16:42:16
7 51.918952942 4.473787308 3 16.04 1.230 2024-06-16 16:42:11
7 51.922367096 4.470957756 1 22.00 1.500 2024-06-16 16:42:10
7 51.907566071 4.493889332 2 19.84 1.290 2024-06-16 16:42:06
7 51.918762207 4.473027229 3 15.50 1.230 2024-06-16 16:42:01
7 51.922214508 4.471100807 1 26.30 1.270 2024-06-16 16:42:01
8 51.907844543 4.493094444 2 21.13 1.580 2024-06-16 16:41:59
7 51.918621063 4.472452641 3 11.85 1.230 2024-06-16 16:41:53
7 51.921669006 4.471656799 1 21.41 2.370 2024-06-16 16:41:50
8 51.907993317 4.492506981 2 15.70 1.210 2024-06-16 16:41:47
7 51.918361664 4.472262383 3 14.32 1.230 2024-06-16 16:41:43
9 51.921203613 4.471937656 1 16.96 0.960 2024-06-16 16:41:41
9 51.908039093 4.491847038 2 17.30 1.000 2024-06-16 16:41:37
8 51.919269562 4.480315685 5 11.76 1.210 2024-06-16 16:41:36
7 51.917934418 4.472439766 3 20.76 1.230 2024-06-16 16:41:32
9 51.907688141 4.491195202 2 11.96 1.000 2024-06-16 16:41:27
7 51.918933868 4.480549812 5 11.85 1.460 2024-06-16 16:41:23
7 51.917407990 4.472731113 3 10.69 1.230 2024-06-16 16:41:22
8 51.920688629 4.472118855 1 1.19 1.100 2024-06-16 16:41:21
9 51.920413971 4.472004414 1 21.87 1.070 2024-06-16 16:41:11
7 51.917026520 4.472966194 3 16.45 1.230 2024-06-16 16:41:10
8 51.918560028 4.480836391 5 18.39 1.210 2024-06-16 16:41:03
8 51.919811249 4.472085476 1 22.19 1.210 2024-06-16 16:41:01
7 51.916725159 4.473226070 3 6.98 1.230 2024-06-16 16:41:00
8 51.919158936 4.472173691 1 21.30 1.230 2024-06-16 16:40:51
7 51.916427612 4.473521709 3 22.78 1.230 2024-06-16 16:40:51
9 51.917724609 4.481350422 5 12.39 1.040 2024-06-16 16:40:46
8 51.908546448 4.487973690 2 34.98 1.030 2024-06-16 16:40:44
10 51.918601990 4.472329617 1 24.08 1.230 2024-06-16 16:40:41
7 51.915969849 4.474107265 3 17.89 1.230 2024-06-16 16:40:40
9 51.909008026 4.486845493 2 30.74 1.000 2024-06-16 16:40:33
9 51.918006897 4.472543716 1 25.63 0.930 2024-06-16 16:40:31
7 51.915664673 4.474677086 3 21.80 1.980 2024-06-16 16:40:30
9 51.917407990 4.481595516 5 14.78 1.000 2024-06-16 16:40:25
9 51.909385681 4.485866547 2 27.09 1.000 2024-06-16 16:40:24
7 51.915187836 4.475013733 3 11.56 1.230 2024-06-16 16:40:22
8 51.917392731 4.472784996 1 22.56 1.210 2024-06-16 16:40:21
9 51.909767151 4.484947205 2 25.50 1.000 2024-06-16 16:40:14
8 51.916904449 4.481959820 5 25.78 1.210 2024-06-16 16:40:14
8 51.916915894 4.473042488 1 19.54 1.210 2024-06-16 16:40:12
7 51.914989471 4.475247860 3 7.00 1.230 2024-06-16 16:40:11
8 51.910072327 4.484202385 2 16.02 1.210 2024-06-16 16:40:05
10 51.916473389 4.473492146 1 20.89 1.210 2024-06-16 16:40:04
8 51.916259766 4.482132435 5 26.39 1.210 2024-06-16 16:40:04
6 51.914638519 4.475471497 3 26.46 1.980 2024-06-16 16:40:02
8 51.910293579 4.483685493 2 15.39 1.210 2024-06-16 16:39:54
8 51.915580750 4.482222557 5 25.85 1.210 2024-06-16 16:39:53
10 51.916065216 4.473897457 1 14.46 1.000 2024-06-16 16:39:51
6 51.913898468 4.475751877 3 31.24 1.270 2024-06-16 16:39:50
9 51.910518646 4.483141422 2 13.91 1.000 2024-06-16 16:39:44
8 51.914916992 4.482256413 5 26.50 1.210 2024-06-16 16:39:43
10 51.915802002 4.474265099 1 21.52 1.920 2024-06-16 16:39:41
6 51.913093567 4.476194382 3 33.63 1.970 2024-06-16 16:39:40
8 51.914192200 4.482250690 5 28.15 1.210 2024-06-16 16:39:36
7 51.910793304 4.482707977 2 15.19 1.430 2024-06-16 16:39:35
9 51.915290833 4.474763870 1 24.26 1.070 2024-06-16 16:39:31
7 51.912349701 4.476800919 3 27.61 1.230 2024-06-16 16:39:30
8 51.911266327 4.482416153 2 21.76 1.210 2024-06-16 16:39:24
8 51.913291931 4.481930256 5 16.30 1.210 2024-06-16 16:39:23
8 51.914806366 4.475141048 1 22.96 1.050 2024-06-16 16:39:21
7 51.911792755 4.477188110 3 16.07 1.230 2024-06-16 16:39:20
8 51.911853790 4.482234001 2 21.39 1.210 2024-06-16 16:39:14
9 51.912940979 4.482017994 5 13.15 1.000 2024-06-16 16:39:14
7 51.914188385 4.475687504 1 31.58 1.790 2024-06-16 16:39:12
7 51.911479950 4.477223873 3 16.69 1.230 2024-06-16 16:39:10
8 51.912342072 4.482089520 2 15.32 1.260 2024-06-16 16:39:04
10 51.913459778 4.476239204 1 34.26 0.930 2024-06-16 16:39:03
7 51.911228180 4.476533890 3 20.50 1.230 2024-06-16 16:39:01
6 51.912780762 4.482203484 2 5.80 2.460 2024-06-16 16:38:54
7 51.912723541 4.482030869 5 5.61 1.920 2024-06-16 16:38:53
8 51.910976410 4.475773335 3 21.93 1.050 2024-06-16 16:38:51
10 51.912696838 4.476814270 1 33.17 1.210 2024-06-16 16:38:51
8 51.912666321 4.482031345 2 2.61 1.260 2024-06-16 16:38:45
9 51.912498474 4.482007504 5 15.78 1.260 2024-06-16 16:38:44
8 51.910785675 4.475170612 3 13.56 1.050 2024-06-16 16:38:41
9 51.912017822 4.477177143 1 22.48 0.930 2024-06-16 16:38:41
10 51.911544800 4.477441311 1 15.85 0.870 2024-06-16 16:38:31
8 51.910614014 4.474676609 3 14.07 1.050 2024-06-16 16:38:30
8 51.913055420 4.481991768 2 21.96 1.210 2024-06-16 16:38:26
11 51.911216736 4.477691650 1 7.65 0.760 2024-06-16 16:38:21
8 51.910404205 4.474083900 3 16.84 1.050 2024-06-16 16:38:20
8 51.913658142 4.481914043 2 27.08 1.310 2024-06-16 16:38:14
9 51.910232544 4.473524570 3 12.67 1.050 2024-06-16 16:38:10
8 51.914363861 4.481845856 2 28.93 1.210 2024-06-16 16:38:04
9 51.912185669 4.481529713 5 2.33 1.000 2024-06-16 16:38:03
9 51.911071777 4.477819920 1 15.15 1.160 2024-06-16 16:38:01
9 51.910068512 4.472970963 3 15.63 1.050 2024-06-16 16:38:00
9 51.915096283 4.481835365 2 32.34 1.160 2024-06-16 16:37:54
9 51.912185669 4.481132507 5 17.54 1.210 2024-06-16 16:37:53
9 51.909881592 4.472372532 3 13.85 1.050 2024-06-16 16:37:51
8 51.910591125 4.478180408 1 23.39 1.210 2024-06-16 16:37:51
10 51.912132263 4.480402946 5 17.82 1.000 2024-06-16 16:37:45
8 51.915843964 4.481774807 2 26.52 1.210 2024-06-16 16:37:44
9 51.909717560 4.471834183 3 14.24 0.930 2024-06-16 16:37:41
7 51.909664154 4.478384495 1 19.82 1.460 2024-06-16 16:37:40
7 51.909530640 4.478476524 1 19.11 1.460 2024-06-16 16:37:38
9 51.916481018 4.481716633 2 25.06 1.000 2024-06-16 16:37:34
9 51.912059784 4.479697704 5 21.61 1.160 2024-06-16 16:37:33
9 51.909576416 4.471323490 3 12.48 0.930 2024-06-16 16:37:30
7 51.917102814 4.481544971 2 22.26 1.460 2024-06-16 16:37:24
7 51.911815643 4.478838444 5 23.82 1.220 2024-06-16 16:37:23
9 51.909095764 4.478770733 1 13.70 0.930 2024-06-16 16:37:21
9 51.909488678 4.470829964 3 15.54 0.930 2024-06-16 16:37:20
8 51.917648315 4.481315136 2 19.69 1.210 2024-06-16 16:37:16
9 51.911586761 4.478073120 5 16.95 1.160 2024-06-16 16:37:13
9 51.908847809 4.479112625 1 12.72 0.930 2024-06-16 16:37:11
9 51.909290314 4.470232487 3 17.50 0.930 2024-06-16 16:37:11
10 51.911273956 4.477740288 5 14.02 0.890 2024-06-16 16:37:04
8 51.918201447 4.481328011 2 12.72 1.960 2024-06-16 16:37:04
9 51.908969879 4.479769707 1 24.35 1.210 2024-06-16 16:37:02
8 51.909061432 4.469585896 3 17.69 1.180 2024-06-16 16:37:00
8 51.910976410 4.477938652 5 13.57 1.210 2024-06-16 16:36:53
10 51.909286499 4.480525494 1 20.93 1.160 2024-06-16 16:36:51
8 51.908901215 4.468928814 3 19.22 1.220 2024-06-16 16:36:51
6 51.910633087 4.478170395 5 17.87 1.960 2024-06-16 16:36:43
8 51.908695221 4.468334198 3 15.34 1.050 2024-06-16 16:36:43
10 51.909584045 4.481259823 1 21.35 1.220 2024-06-16 16:36:41
8 51.910243988 4.478282452 5 15.67 1.210 2024-06-16 16:36:34
10 51.909782410 4.481869698 1 13.93 1.070 2024-06-16 16:36:31
8 51.908527374 4.467858791 3 11.21 1.050 2024-06-16 16:36:30
7 51.918395996 4.481935978 2 1.19 1.460 2024-06-16 16:36:27
10 51.909904480 4.482260704 1 12.09 0.930 2024-06-16 16:36:21
9 51.908382416 4.467420101 3 12.63 1.050 2024-06-16 16:36:20
9 51.918540955 4.483160019 2 4.61 1.150 2024-06-16 16:36:10
8 51.908210754 4.466946602 3 13.63 1.050 2024-06-16 16:36:10
8 51.909130096 4.479234695 5 14.09 1.050 2024-06-16 16:36:02
9 51.907962799 4.466564655 3 9.43 1.050 2024-06-16 16:36:01
6 51.918918610 4.484838486 2 3.48 1.960 2024-06-16 16:35:55
7 51.909458160 4.480721474 5 20.93 1.220 2024-06-16 16:35:53
8 51.907775879 4.466265202 3 9.87 1.050 2024-06-16 16:35:50
10 51.909801483 4.482532978 1 0.33 0.830 2024-06-16 16:35:43
8 51.907711029 4.466006279 3 4.22 1.050 2024-06-16 16:35:40
8 51.907665253 4.465765953 3 11.15 1.050 2024-06-16 16:35:30
8 51.907592773 4.465294361 3 7.58 1.050 2024-06-16 16:35:20
7 51.919261932 4.486898899 2 24.67 1.420 2024-06-16 16:35:06
8 51.907421112 4.465125084 3 9.63 1.220 2024-06-16 16:35:01
7 51.919559479 4.487921715 2 22.08 1.420 2024-06-16 16:34:56
8 51.907081604 4.464888096 3 15.98 1.170 2024-06-16 16:34:50
8 51.919876099 4.488699436 2 19.13 1.240 2024-06-16 16:34:46
8 51.906826019 4.464409828 3 14.96 1.170 2024-06-16 16:34:43
9 51.920051575 4.489130974 2 0.83 1.150 2024-06-16 16:34:37
8 51.906738281 4.463781834 3 17.37 1.170 2024-06-16 16:34:30
8 51.920211792 4.489270687 2 0.85 1.200 2024-06-16 16:34:27
9 51.906490326 4.463047028 3 19.24 1.170 2024-06-16 16:34:20
8 51.920448303 4.489477158 2 8.63 1.200 2024-06-16 16:34:17
8 51.906173706 4.462303162 3 20.95 1.220 2024-06-16 16:34:10
7 51.920803070 4.490256786 2 10.19 1.330 2024-06-16 16:34:08
8 51.905860901 4.461521626 3 21.96 1.050 2024-06-16 16:34:00
8 51.905578613 4.460698128 3 19.37 1.220 2024-06-16 16:33:50
8 51.905269623 4.459943771 3 1.85 1.220 2024-06-16 16:33:36
7 51.905170441 4.459726334 3 12.72 1.210 2024-06-16 16:33:20
8 51.921108246 4.492754459 2 23.72 1.010 2024-06-16 16:33:19
7 51.921401978 4.493607044 2 13.82 1.230 2024-06-16 16:33:12
8 51.904899597 4.459035397 3 23.04 1.170 2024-06-16 16:33:11
8 51.904567719 4.458083630 3 26.63 1.210 2024-06-16 16:33:01
9 51.921600342 4.494270802 2 20.59 0.930 2024-06-16 16:32:59
8 51.904174805 4.456916332 3 23.80 1.160 2024-06-16 16:32:50
6 51.921848297 4.495008469 2 22.39 2.210 2024-06-16 16:32:50
8 51.903900146 4.455914497 3 22.82 1.160 2024-06-16 16:32:40
6 51.922183990 4.495812893 2 24.80 1.590 2024-06-16 16:32:39
9 51.903747559 4.455149174 3 16.39 0.930 2024-06-16 16:32:31
8 51.922496796 4.496603489 2 16.95 1.290 2024-06-16 16:32:29
9 51.903728485 4.454470158 3 18.11 0.930 2024-06-16 16:32:21
9 51.922763824 4.496987820 2 13.26 1.130 2024-06-16 16:32:21
8 51.903682709 4.453808784 3 9.80 1.050 2024-06-16 16:32:12
8 51.903648376 4.453571796 3 2.06 1.050 2024-06-16 16:32:02
9 51.903594971 4.453177929 3 18.35 0.930 2024-06-16 16:31:51
7 51.903495789 4.452346325 3 22.58 1.210 2024-06-16 16:31:41
8 51.903457642 4.451423645 3 25.46 1.050 2024-06-16 16:31:31
9 51.903533936 4.450515270 3 16.20 0.930 2024-06-16 16:31:21
10 51.922939301 4.497400761 2 5.37 0.890 2024-06-16 16:31:19
9 51.903594971 4.449711800 3 19.20 0.930 2024-06-16 16:31:11
8 51.923133850 4.497585773 2 10.83 1.190 2024-06-16 16:31:09
9 51.903713226 4.448853493 3 22.76 0.930 2024-06-16 16:31:01
10 51.909790039 4.482759476 1 0.02 1.180 2024-06-16 16:31:01
8 51.923419952 4.497422218 2 5.46 1.260 2024-06-16 16:30:59
9 51.903869629 4.448128700 3 11.95 0.930 2024-06-16 16:30:50
9 51.903984070 4.447687149 3 11.56 0.930 2024-06-16 16:30:41
6 51.923545837 4.497169018 2 7.63 1.930 2024-06-16 16:30:39
9 51.904140472 4.447172642 3 11.52 0.930 2024-06-16 16:30:30
8 51.923675537 4.496830940 2 7.63 1.000 2024-06-16 16:30:29
8 51.904205322 4.446917534 3 2.76 1.150 2024-06-16 16:30:22
10 51.923770905 4.496524811 2 10.33 0.930 2024-06-16 16:30:19
8 51.923919678 4.496072292 2 10.96 1.030 2024-06-16 16:30:10
8 51.904277802 4.446642876 3 11.54 1.150 2024-06-16 16:30:10
9 51.904418945 4.446080208 3 18.19 0.930 2024-06-16 16:30:00
8 51.924263000 4.496027946 2 16.20 1.140 2024-06-16 16:29:59
9 51.904674530 4.445516586 3 16.70 0.930 2024-06-16 16:29:51
9 51.924694061 4.496085644 2 20.67 1.010 2024-06-16 16:29:49
9 51.925334930 4.496197701 2 27.30 1.010 2024-06-16 16:29:44
7 51.904945374 4.445341110 3 11.26 1.200 2024-06-16 16:29:41
4 51.905368805 4.445158958 3 21.96 2.550 2024-06-16 16:29:32
9 51.925930023 4.496272087 2 22.95 1.010 2024-06-16 16:29:30
6 51.905895233 4.445390224 3 20.17 1.250 2024-06-16 16:29:21
6 51.906394958 4.445609570 3 22.37 1.270 2024-06-16 16:29:11
8 51.906936646 4.445669174 3 18.87 1.200 2024-06-16 16:29:00
9 51.926307678 4.496308327 2 0.80 0.970 2024-06-16 16:28:52
8 51.907558441 4.445749283 3 31.02 1.140 2024-06-16 16:28:51
9 51.908367157 4.445830345 3 24.69 0.930 2024-06-16 16:28:41
7 51.908985138 4.445914745 3 25.50 1.200 2024-06-16 16:28:32
9 51.909587860 4.445996284 3 17.87 1.060 2024-06-16 16:28:20
6 51.926864624 4.496359825 2 24.35 1.910 2024-06-16 16:28:16
8 51.909992218 4.446164608 3 7.58 1.060 2024-06-16 16:28:10
6 51.927528381 4.496378422 2 26.41 2.410 2024-06-16 16:28:04
7 51.928215027 4.496431828 2 22.72 1.220 2024-06-16 16:27:54
9 51.909980774 4.446615696 3 0.82 1.060 2024-06-16 16:27:50
10 51.928741455 4.496629715 2 16.85 0.930 2024-06-16 16:27:44
8 51.909980774 4.446891785 3 14.72 1.060 2024-06-16 16:27:30
8 51.929016113 4.496936321 2 5.70 1.130 2024-06-16 16:27:24
8 51.909915924 4.447647095 3 20.19 1.060 2024-06-16 16:27:21
6 51.929325104 4.496994495 2 17.13 1.290 2024-06-16 16:27:15
9 51.909812927 4.448356628 3 14.17 0.930 2024-06-16 16:27:10
7 51.929744720 4.496846676 2 12.54 1.210 2024-06-16 16:27:05
7 51.909736633 4.482557297 1 0.87 1.190 2024-06-16 16:27:02
9 51.930206299 4.496861935 2 22.82 1.100 2024-06-16 16:26:54
8 51.930740356 4.497111320 2 21.22 1.250 2024-06-16 16:26:45
7 51.909576416 4.482608795 1 11.45 1.280 2024-06-16 16:26:41
9 51.909751892 4.448827267 3 3.07 0.930 2024-06-16 16:26:41
9 51.931270599 4.497191429 2 21.78 1.240 2024-06-16 16:26:34
7 51.909248352 4.482264519 1 15.28 1.280 2024-06-16 16:26:31
9 51.909721375 4.449123859 3 12.76 0.930 2024-06-16 16:26:31
9 51.931766510 4.497350693 2 15.96 1.090 2024-06-16 16:26:24
7 51.908943176 4.481956482 1 15.06 1.280 2024-06-16 16:26:21
9 51.909679413 4.449640751 3 14.41 0.930 2024-06-16 16:26:20
9 51.931983948 4.497410774 2 5.04 1.090 2024-06-16 16:26:14
8 51.908653259 4.481587887 1 13.57 1.120 2024-06-16 16:26:13
8 51.909961700 4.450146675 3 14.30 1.060 2024-06-16 16:26:11
9 51.932270050 4.497384548 2 14.45 1.090 2024-06-16 16:26:04
8 51.908699036 4.481077671 1 15.04 1.120 2024-06-16 16:26:01
8 51.932437897 4.496849060 2 18.13 1.780 2024-06-16 16:25:54
7 51.908924103 4.480583191 1 15.04 1.190 2024-06-16 16:25:53
9 51.910152435 4.450432777 3 0.74 1.060 2024-06-16 16:25:51
8 51.932518005 4.496159077 2 17.13 1.780 2024-06-16 16:25:46
7 51.909141541 4.479995251 1 14.04 1.190 2024-06-16 16:25:41
7 51.932624817 4.495316029 2 22.93 1.930 2024-06-16 16:25:34
9 51.908927917 4.479514599 1 13.70 0.930 2024-06-16 16:25:31
9 51.932693481 4.494422436 2 17.35 1.090 2024-06-16 16:25:24
9 51.908817291 4.479177475 1 8.91 0.930 2024-06-16 16:25:21
9 51.910263062 4.450645447 3 6.04 0.930 2024-06-16 16:25:20
9 51.932720184 4.493459225 2 25.15 1.080 2024-06-16 16:25:16
6 51.908966064 4.478972435 1 15.43 1.900 2024-06-16 16:25:11
8 51.910465240 4.451099873 3 14.00 1.060 2024-06-16 16:25:11
7 51.932853699 4.492361069 2 27.82 1.930 2024-06-16 16:25:05
6 51.909461975 4.478751183 1 20.20 1.890 2024-06-16 16:25:02
8 51.910755157 4.451588154 3 18.04 1.110 2024-06-16 16:25:01
9 51.932960510 4.491190434 2 29.43 1.080 2024-06-16 16:24:54
6 51.909912109 4.478308678 1 21.52 1.890 2024-06-16 16:24:50
8 51.911170959 4.452233791 3 22.13 1.110 2024-06-16 16:24:50
9 51.933074951 4.490107059 2 23.85 1.080 2024-06-16 16:24:44
7 51.910408020 4.478247643 1 21.17 1.190 2024-06-16 16:24:42
9 51.911571503 4.452872753 3 6.98 1.110 2024-06-16 16:24:40
8 51.933265686 4.489119053 2 20.76 1.780 2024-06-16 16:24:34
9 51.911777496 4.453329086 3 18.96 1.110 2024-06-16 16:24:33
8 51.910930634 4.477959633 1 23.37 1.110 2024-06-16 16:24:31
8 51.933208466 4.488467216 2 14.76 1.110 2024-06-16 16:24:24
8 51.911369324 4.477677345 1 11.91 1.110 2024-06-16 16:24:21
8 51.912124634 4.454042912 3 17.06 1.110 2024-06-16 16:24:20
8 51.932941437 4.487901211 2 22.41 0.970 2024-06-16 16:24:14
9 51.912319183 4.454548359 3 10.32 1.110 2024-06-16 16:24:10
7 51.932415009 4.487349987 2 29.91 2.330 2024-06-16 16:24:04
7 51.931682587 4.486940384 2 30.74 1.190 2024-06-16 16:23:56
6 51.930332184 4.486413002 2 22.00 1.440 2024-06-16 16:23:46
9 51.912269592 4.454835892 3 0.85 0.930 2024-06-16 16:23:40
9 51.912361145 4.455185890 3 10.07 0.930 2024-06-16 16:23:30
9 51.912464142 4.455949783 3 23.34 0.930 2024-06-16 16:23:20
8 51.912723541 4.456870079 3 18.59 1.100 2024-06-16 16:23:11
10 51.928565979 4.486601830 2 24.13 0.880 2024-06-16 16:23:03
8 51.927936554 4.486633301 2 24.02 1.100 2024-06-16 16:22:53
9 51.912887573 4.458165169 3 14.70 0.930 2024-06-16 16:22:52
9 51.927265167 4.486631870 2 8.09 1.070 2024-06-16 16:22:43
9 51.912975311 4.458765507 3 10.95 0.930 2024-06-16 16:22:40
8 51.926898956 4.486501694 2 1.43 1.780 2024-06-16 16:22:33
9 51.913047791 4.459110260 3 1.19 0.930 2024-06-16 16:22:32
9 51.913135529 4.459523201 3 17.45 0.930 2024-06-16 16:22:22
7 51.926700592 4.486471653 2 7.96 1.170 2024-06-16 16:22:13
9 51.913311005 4.460295200 3 17.30 0.930 2024-06-16 16:22:10
8 51.926456451 4.486587524 2 16.80 1.090 2024-06-16 16:22:03
9 51.913436890 4.460830212 3 1.82 0.930 2024-06-16 16:22:00
8 51.925975800 4.486639500 2 24.41 1.090 2024-06-16 16:21:53
9 51.913490295 4.461194038 3 15.22 0.930 2024-06-16 16:21:51
7 51.925426483 4.486586571 2 21.89 1.180 2024-06-16 16:21:44
9 51.913604736 4.461796284 3 10.41 0.930 2024-06-16 16:21:41
8 51.924983978 4.486447811 2 7.80 0.990 2024-06-16 16:21:33
9 51.913692474 4.462505817 3 19.34 1.060 2024-06-16 16:21:31
9 51.924884796 4.486238003 2 8.98 1.060 2024-06-16 16:21:24
9 51.913845062 4.463390350 3 19.74 0.930 2024-06-16 16:21:21
8 51.911666870 4.478078842 1 0.06 1.090 2024-06-16 16:21:21
10 51.924926758 4.485939980 2 0.63 0.880 2024-06-16 16:21:13
9 51.911743164 4.478304386 1 14.46 0.930 2024-06-16 16:21:11
9 51.913917542 4.463963509 3 7.19 0.930 2024-06-16 16:21:11
9 51.912002563 4.479155064 1 27.26 0.930 2024-06-16 16:21:03
9 51.924785614 4.485678673 2 2.65 1.050 2024-06-16 16:20:53
8 51.914009094 4.464308739 3 0.78 0.980 2024-06-16 16:20:52
9 51.912269592 4.480218410 1 26.95 0.930 2024-06-16 16:20:51
7 51.924884796 4.485262394 2 18.65 1.200 2024-06-16 16:20:45
8 51.912319183 4.481250763 1 19.96 0.990 2024-06-16 16:20:41
8 51.925025940 4.484425068 2 23.04 1.160 2024-06-16 16:20:33
8 51.912277222 4.481868267 1 15.13 1.060 2024-06-16 16:20:31
9 51.914039612 4.464539051 3 9.41 0.920 2024-06-16 16:20:30
9 51.925216675 4.483468533 2 21.78 1.020 2024-06-16 16:20:24
8 51.912006378 4.482254505 1 19.84 1.080 2024-06-16 16:20:22
8 51.914154053 4.465165615 3 26.48 1.060 2024-06-16 16:20:21
9 51.925464630 4.482636452 2 22.65 1.050 2024-06-16 16:20:14
8 51.911521912 4.482461929 1 25.13 1.010 2024-06-16 16:20:11
8 51.914524078 4.465789318 3 18.39 1.080 2024-06-16 16:20:11
9 51.910846710 4.482777119 1 28.41 0.920 2024-06-16 16:20:01
8 51.914882660 4.466036797 3 16.82 1.080 2024-06-16 16:20:00
10 51.925525665 4.481763840 2 4.54 0.880 2024-06-16 16:19:53
8 51.910385132 4.483561039 1 28.21 1.080 2024-06-16 16:19:51
8 51.915172577 4.466189384 3 1.31 1.080 2024-06-16 16:19:50
9 51.925399780 4.481297970 2 17.15 1.140 2024-06-16 16:19:44
8 51.915317535 4.466326237 3 10.30 1.080 2024-06-16 16:19:41
8 51.909954071 4.484620094 1 32.78 1.080 2024-06-16 16:19:41
9 51.925220490 4.480583668 2 18.61 1.040 2024-06-16 16:19:35
7 51.915771484 4.466863632 3 19.15 1.150 2024-06-16 16:19:32
9 51.909458160 4.485818386 1 36.02 0.920 2024-06-16 16:19:31
9 51.908966064 4.487051010 1 31.06 0.920 2024-06-16 16:19:23
9 51.915939331 4.467734337 3 24.04 0.920 2024-06-16 16:19:21
9 51.916221619 4.468740940 3 21.96 0.920 2024-06-16 16:19:11
9 51.908435822 4.488399506 1 24.87 0.920 2024-06-16 16:19:10
9 51.925189972 4.479779720 2 2.57 0.920 2024-06-16 16:19:03
9 51.916454315 4.469646931 3 21.37 0.920 2024-06-16 16:19:03
8 51.908325195 4.488652229 1 28.71 1.290 2024-06-16 16:19:01
9 51.925216675 4.479407787 2 13.13 1.070 2024-06-16 16:18:54
9 51.907867432 4.489686966 1 31.65 0.920 2024-06-16 16:18:52
9 51.916591644 4.470493317 3 18.52 0.920 2024-06-16 16:18:50
7 51.925094604 4.478805065 2 17.74 2.650 2024-06-16 16:18:46
9 51.916721344 4.471278191 3 22.39 0.920 2024-06-16 16:18:43
9 51.907455444 4.490493298 1 25.46 0.920 2024-06-16 16:18:41
8 51.924869537 4.478460312 2 1.07 2.660 2024-06-16 16:18:33
6 51.907161713 4.491086006 1 6.91 2.690 2024-06-16 16:18:32
9 51.916870117 4.472064018 3 17.82 0.920 2024-06-16 16:18:31
8 51.924678802 4.478336811 2 0.15 2.670 2024-06-16 16:18:23
9 51.916984558 4.472638607 3 12.09 0.920 2024-06-16 16:18:21
9 51.917301178 4.472691059 3 15.13 0.920 2024-06-16 16:18:12
8 51.924522400 4.478230476 2 1.13 1.070 2024-06-16 16:18:05
9 51.924415588 4.478091717 2 10.72 0.920 2024-06-16 16:17:53
8 51.919063568 4.472207546 3 17.93 1.050 2024-06-16 16:17:35
7 51.923919678 4.477896690 2 2.00 1.200 2024-06-16 16:17:33
6 51.907310486 4.491322517 1 0.35 2.430 2024-06-16 16:17:24
8 51.919559479 4.472158432 3 19.34 1.050 2024-06-16 16:17:23
9 51.909862518 4.482516766 5 0.33 1.080 2024-06-16 16:17:18
7 51.920101166 4.471987724 3 15.70 1.790 2024-06-16 16:17:14
7 51.923789978 4.477780342 2 0.94 1.060 2024-06-16 16:17:13
6 51.906978607 4.491980553 1 27.11 1.850 2024-06-16 16:17:11
8 51.920528412 4.471793652 3 16.30 1.040 2024-06-16 16:17:04
6 51.906860352 4.492247105 1 27.41 1.850 2024-06-16 16:17:02
5 51.921020508 4.471821785 3 18.80 1.530 2024-06-16 16:16:54
7 51.906490326 4.493154049 1 25.39 1.160 2024-06-16 16:16:51
10 51.923606873 4.477673054 2 0.09 1.060 2024-06-16 16:16:43
8 51.906188965 4.493838310 1 17.45 0.990 2024-06-16 16:16:41
7 51.921798706 4.471384048 3 17.22 1.130 2024-06-16 16:16:37
7 51.906215668 4.494229794 1 6.89 1.130 2024-06-16 16:16:31
8 51.909740448 4.482631683 5 0.35 1.070 2024-06-16 16:16:29
7 51.922260284 4.471297741 3 13.46 1.780 2024-06-16 16:16:24
8 51.923641205 4.477912903 2 3.54 0.990 2024-06-16 16:16:23
6 51.906478882 4.494516373 1 4.74 1.840 2024-06-16 16:16:21
8 51.923465729 4.477919579 2 5.65 0.990 2024-06-16 16:16:14
9 51.922546387 4.471104145 3 15.09 0.920 2024-06-16 16:16:13
7 51.906814575 4.494859219 1 15.24 1.160 2024-06-16 16:16:12
9 51.922912598 4.471236229 3 9.26 0.920 2024-06-16 16:16:03
8 51.907062531 4.495145798 1 15.59 1.050 2024-06-16 16:16:01
8 51.923297882 4.478121281 2 2.78 0.990 2024-06-16 16:15:54
8 51.923221588 4.471266270 3 5.50 0.990 2024-06-16 16:15:53
8 51.907356262 4.495242596 1 13.46 1.050 2024-06-16 16:15:50
7 51.923149109 4.477967739 2 1.59 1.160 2024-06-16 16:15:44
8 51.907527924 4.494797230 1 7.11 1.050 2024-06-16 16:15:42
6 51.922882080 4.477839470 2 0.20 1.360 2024-06-16 16:15:33
8 51.923423767 4.471240997 3 0.52 0.990 2024-06-16 16:15:32
9 51.907661438 4.494400501 1 23.87 1.380 2024-06-16 16:15:31
6 51.922706604 4.477870941 2 6.39 1.280 2024-06-16 16:15:24
9 51.908016205 4.493542671 1 25.35 1.380 2024-06-16 16:15:21
8 51.923679352 4.471150398 3 12.39 1.160 2024-06-16 16:15:18
6 51.922279358 4.477918148 2 12.95 1.280 2024-06-16 16:15:14
9 51.908370972 4.492777824 1 18.17 1.380 2024-06-16 16:15:11
9 51.924015045 4.471155167 3 10.78 0.920 2024-06-16 16:15:04
9 51.908340454 4.492151737 1 15.37 0.920 2024-06-16 16:15:01
8 51.924327850 4.471272469 3 13.17 0.960 2024-06-16 16:14:54
8 51.921230316 4.478855133 2 15.96 1.000 2024-06-16 16:14:51
7 51.924560547 4.471724987 3 18.82 1.600 2024-06-16 16:14:44
9 51.924674988 4.473234653 3 22.72 0.920 2024-06-16 16:14:37
6 51.920951843 4.479256153 2 8.39 1.350 2024-06-16 16:14:34
9 51.908054352 4.491721153 1 3.54 1.350 2024-06-16 16:14:31
6 51.920726776 4.479332447 2 17.22 1.620 2024-06-16 16:14:23
9 51.907859802 4.491361141 1 18.48 0.990 2024-06-16 16:14:22
9 51.907558441 4.490764618 1 18.15 0.920 2024-06-16 16:14:11
9 51.924327850 4.474277496 3 13.65 0.920 2024-06-16 16:14:07
6 51.920112610 4.479381561 2 10.09 1.350 2024-06-16 16:14:06
9 51.907707214 4.490184307 1 7.15 0.920 2024-06-16 16:14:02
8 51.923988342 4.474324703 3 6.46 0.990 2024-06-16 16:13:57
8 51.908168793 4.489080429 1 28.37 1.360 2024-06-16 16:13:53
6 51.920070648 4.478763580 2 13.46 1.460 2024-06-16 16:13:53
9 51.923919678 4.474545479 3 3.80 0.920 2024-06-16 16:13:48
9 51.919933319 4.478244781 2 13.21 0.940 2024-06-16 16:13:43
7 51.908294678 4.488788128 1 25.84 1.530 2024-06-16 16:13:43
8 51.923873901 4.474117279 3 11.26 1.000 2024-06-16 16:13:39
7 51.919712067 4.477757931 2 11.24 1.200 2024-06-16 16:13:33
9 51.908699036 4.487780571 1 26.74 0.920 2024-06-16 16:13:31
8 51.923645020 4.473490238 3 16.35 1.000 2024-06-16 16:13:29
8 51.919643402 4.477281570 2 10.57 1.160 2024-06-16 16:13:23
8 51.908969879 4.487002850 1 28.82 0.960 2024-06-16 16:13:21
6 51.919567108 4.476619244 2 13.89 3.250 2024-06-16 16:13:13
9 51.909347534 4.486077785 1 24.34 0.920 2024-06-16 16:13:11
9 51.923385620 4.472760677 3 5.45 0.920 2024-06-16 16:13:08
8 51.909671783 4.485308170 1 22.84 1.040 2024-06-16 16:13:01
8 51.923202515 4.472154617 3 20.20 1.370 2024-06-16 16:12:57
7 51.919300079 4.475262165 2 15.13 1.200 2024-06-16 16:12:54
8 51.910007477 4.484474659 1 23.95 1.040 2024-06-16 16:12:52
7 51.919162750 4.474654675 2 16.96 1.200 2024-06-16 16:12:46
8 51.910266876 4.483829975 1 14.32 1.030 2024-06-16 16:12:41
7 51.922615051 4.470672131 3 12.76 1.060 2024-06-16 16:12:40
7 51.918960571 4.473964691 2 20.50 1.200 2024-06-16 16:12:34
9 51.910461426 4.483365536 1 12.83 0.920 2024-06-16 16:12:31
7 51.922183990 4.470754623 3 15.85 1.750 2024-06-16 16:12:27
7 51.918731689 4.473124027 2 20.02 1.200 2024-06-16 16:12:23
8 51.910675049 4.482950687 1 15.09 1.000 2024-06-16 16:12:21
7 51.921802521 4.471334457 3 22.61 1.750 2024-06-16 16:12:17
8 51.918502808 4.472506523 2 12.37 1.000 2024-06-16 16:12:14
8 51.911045074 4.482628822 1 18.56 1.030 2024-06-16 16:12:11
6 51.921222687 4.471552372 3 21.41 1.110 2024-06-16 16:12:08
6 51.917987823 4.472377300 2 17.15 2.410 2024-06-16 16:12:04
9 51.911487579 4.482454777 1 21.69 0.990 2024-06-16 16:12:03
6 51.920791626 4.471973896 3 14.33 1.110 2024-06-16 16:11:58
6 51.917453766 4.472556114 2 18.02 2.410 2024-06-16 16:11:55
9 51.911949158 4.482200623 1 18.58 0.990 2024-06-16 16:11:51
7 51.917087555 4.472891331 2 15.32 1.180 2024-06-16 16:11:44
8 51.912387848 4.482099056 1 14.93 0.990 2024-06-16 16:11:41
7 51.920467377 4.472076893 3 12.43 1.750 2024-06-16 16:11:37
8 51.916755676 4.473237038 2 9.28 1.190 2024-06-16 16:11:34
7 51.920112610 4.471999168 3 9.52 1.750 2024-06-16 16:11:28
8 51.919780731 4.472139835 3 16.26 1.050 2024-06-16 16:11:17
9 51.919368744 4.472381592 3 15.17 0.910 2024-06-16 16:11:07
6 51.916553497 4.473293304 2 4.82 1.340 2024-06-16 16:11:03
9 51.912609100 4.482057571 1 2.19 0.910 2024-06-16 16:11:03
9 51.919105530 4.472740650 3 10.82 0.910 2024-06-16 16:10:58
8 51.916389465 4.473586559 2 17.72 0.990 2024-06-16 16:10:53
9 51.912872314 4.482085228 1 19.04 1.020 2024-06-16 16:10:50
9 51.919109344 4.473211288 3 11.00 0.910 2024-06-16 16:10:48
8 51.915985107 4.474029064 2 20.13 1.060 2024-06-16 16:10:43
9 51.913040161 4.482059956 1 25.02 1.050 2024-06-16 16:10:41
8 51.919189453 4.473788738 3 14.48 1.050 2024-06-16 16:10:38
6 51.915485382 4.474369049 2 19.17 2.400 2024-06-16 16:10:36
7 51.913902283 4.481979370 1 44.28 1.190 2024-06-16 16:10:31
9 51.919261932 4.474381924 3 13.82 0.910 2024-06-16 16:10:29
8 51.909858704 4.482739925 5 0.48 1.400 2024-06-16 16:10:27
7 51.914985657 4.474733353 2 17.78 1.060 2024-06-16 16:10:25
7 51.915061951 4.481964588 1 42.35 1.140 2024-06-16 16:10:21
8 51.919410706 4.475054264 3 15.93 1.020 2024-06-16 16:10:18
6 51.914535522 4.475085258 2 20.74 2.400 2024-06-16 16:10:14
7 51.916069031 4.481987000 1 29.15 1.180 2024-06-16 16:10:11
7 51.919551849 4.475883007 3 7.70 1.100 2024-06-16 16:10:08
6 51.914016724 4.475459576 2 20.06 2.400 2024-06-16 16:10:04
7 51.916645050 4.481961250 1 14.96 2.930 2024-06-16 16:10:01
7 51.919742584 4.476202011 3 10.57 2.930 2024-06-16 16:09:58
6 51.913440704 4.475796223 2 22.54 2.400 2024-06-16 16:09:54
9 51.917156219 4.481822014 1 23.58 1.410 2024-06-16 16:09:52
9 51.919818878 4.476647377 3 5.80 0.910 2024-06-16 16:09:48
10 51.909702301 4.482857227 5 1.09 1.200 2024-06-16 16:09:47
5 51.912967682 4.476256371 2 25.37 6.080 2024-06-16 16:09:44
10 51.917678833 4.481395721 1 20.78 0.850 2024-06-16 16:09:41
9 51.919761658 4.476988792 3 8.26 1.050 2024-06-16 16:09:38
7 51.912425995 4.476870537 2 22.15 2.390 2024-06-16 16:09:32
8 51.918159485 4.481380463 1 15.17 1.140 2024-06-16 16:09:31
9 51.919666290 4.477404118 3 7.96 1.420 2024-06-16 16:09:28
8 51.911983490 4.477272987 2 13.61 0.990 2024-06-16 16:09:23
7 51.919380188 4.477777004 3 6.46 1.640 2024-06-16 16:09:18
8 51.911682129 4.477391243 2 12.93 0.990 2024-06-16 16:09:14
8 51.918369293 4.481944561 1 0.11 1.140 2024-06-16 16:09:11
7 51.919548035 4.478355408 3 5.74 1.750 2024-06-16 16:09:07
8 51.910995483 4.476249218 2 20.70 1.280 2024-06-16 16:09:02
4 51.919502258 4.478798389 3 13.21 4.660 2024-06-16 16:08:59
7 51.918292999 4.482183456 1 0.61 1.130 2024-06-16 16:08:51
7 51.919597626 4.479284286 3 11.87 1.180 2024-06-16 16:08:49
9 51.910800934 4.475519657 2 15.80 0.940 2024-06-16 16:08:43
9 51.918289185 4.482478619 1 7.89 0.870 2024-06-16 16:08:41
8 51.909553528 4.482768536 5 0.76 1.200 2024-06-16 16:08:37
9 51.910629272 4.474844933 2 20.09 0.940 2024-06-16 16:08:33
8 51.918354034 4.483063221 1 18.32 1.010 2024-06-16 16:08:33
8 51.910404205 4.474148750 2 18.48 0.990 2024-06-16 16:08:24
7 51.918544769 4.483994007 1 11.41 1.090 2024-06-16 16:08:21
7 51.919281006 4.480047703 3 15.96 1.090 2024-06-16 16:08:18
8 51.910190582 4.473430157 2 19.59 0.990 2024-06-16 16:08:14
8 51.918945312 4.480181694 3 6.04 1.090 2024-06-16 16:08:09
8 51.909976959 4.472698689 2 18.22 1.290 2024-06-16 16:08:04
8 51.918521881 4.485315323 1 21.17 1.000 2024-06-16 16:07:59
9 51.918735504 4.480319023 3 10.93 1.010 2024-06-16 16:07:57
10 51.909755707 4.472013474 2 17.20 0.880 2024-06-16 16:07:54
9 51.918621063 4.480439663 3 0.46 1.010 2024-06-16 16:07:48
9 51.909587860 4.471285820 2 19.58 0.940 2024-06-16 16:07:44
10 51.918674469 4.486196518 1 17.17 0.870 2024-06-16 16:07:41
7 51.918395996 4.480544090 3 15.28 1.080 2024-06-16 16:07:39
10 51.909381866 4.470489979 2 22.69 0.880 2024-06-16 16:07:34
10 51.909179688 4.469783783 2 19.37 0.880 2024-06-16 16:07:23
9 51.918899536 4.486815929 1 0.13 0.870 2024-06-16 16:07:21
10 51.908931732 4.469062328 2 18.09 0.880 2024-06-16 16:07:15
8 51.917469025 4.481139183 3 10.82 1.520 2024-06-16 16:07:06
8 51.908687592 4.468332291 2 21.54 1.140 2024-06-16 16:07:03
10 51.919006348 4.486969948 1 0.18 1.100 2024-06-16 16:07:02
9 51.917293549 4.481216431 3 5.70 1.450 2024-06-16 16:06:55
10 51.908454895 4.467645645 2 13.91 0.880 2024-06-16 16:06:53
10 51.919124603 4.487137318 1 1.00 0.850 2024-06-16 16:06:52
10 51.917011261 4.481545448 3 21.15 1.000 2024-06-16 16:06:45
10 51.919418335 4.487871170 1 22.54 0.850 2024-06-16 16:06:42
9 51.909694672 4.482691288 5 0.30 1.460 2024-06-16 16:06:37
7 51.916511536 4.481934547 3 18.19 1.070 2024-06-16 16:06:35
7 51.916023254 4.482058525 3 25.82 1.170 2024-06-16 16:06:25
10 51.908374786 4.467346668 2 3.48 0.880 2024-06-16 16:06:23
8 51.909881592 4.482734680 5 0.78 1.540 2024-06-16 16:06:17
8 51.915306091 4.482254505 3 26.89 1.000 2024-06-16 16:06:15
9 51.908195496 4.467025280 2 15.35 0.930 2024-06-16 16:06:13
7 51.914546967 4.482426643 3 29.26 1.080 2024-06-16 16:06:05
10 51.920295715 4.489482880 1 11.28 0.850 2024-06-16 16:06:05
9 51.907928467 4.466625214 2 6.46 0.930 2024-06-16 16:06:03
8 51.913700104 4.482368946 3 23.54 0.980 2024-06-16 16:05:55
4 51.920375824 4.489929676 1 10.07 3.070 2024-06-16 16:05:47
7 51.913154602 4.482043743 3 12.70 0.990 2024-06-16 16:05:45
9 51.907802582 4.466345787 2 3.31 0.930 2024-06-16 16:05:44
9 51.912784576 4.482249260 3 3.72 0.930 2024-06-16 16:05:37
7 51.907707214 4.466128826 2 4.65 1.160 2024-06-16 16:05:13
8 51.912200928 4.481273651 3 19.06 1.470 2024-06-16 16:05:12
8 51.912178040 4.481048584 3 20.15 1.480 2024-06-16 16:05:03
9 51.907657623 4.465831757 2 11.96 0.930 2024-06-16 16:05:03
7 51.909973145 4.482910156 5 0.24 1.570 2024-06-16 16:04:57
9 51.921562195 4.493525982 1 22.39 0.930 2024-06-16 16:04:55
8 51.907558441 4.465294361 2 18.22 0.980 2024-06-16 16:04:54
9 51.912120819 4.480195045 3 23.67 1.110 2024-06-16 16:04:51
8 51.909839630 4.482866287 5 0.98 1.310 2024-06-16 16:04:47
9 51.921844482 4.494373322 1 23.17 1.110 2024-06-16 16:04:45
8 51.911949158 4.479236603 3 27.85 1.480 2024-06-16 16:04:43
9 51.907135010 4.464990616 2 15.95 1.130 2024-06-16 16:04:43
10 51.922145844 4.495216846 1 22.63 0.840 2024-06-16 16:04:36
8 51.906852722 4.464555264 2 16.15 1.130 2024-06-16 16:04:34
10 51.911640167 4.478324413 3 20.09 0.840 2024-06-16 16:04:32
10 51.922386169 4.496003628 1 22.15 0.840 2024-06-16 16:04:24
8 51.906726837 4.464051723 2 11.06 1.130 2024-06-16 16:04:23
10 51.911342621 4.477637768 3 17.89 0.840 2024-06-16 16:04:21
9 51.922603607 4.496706486 1 15.11 1.110 2024-06-16 16:04:16
8 51.906585693 4.463563442 2 15.80 1.130 2024-06-16 16:04:14
9 51.910949707 4.477607727 3 6.65 0.930 2024-06-16 16:04:12
10 51.922851562 4.497109413 1 13.35 0.840 2024-06-16 16:04:05
8 51.906402588 4.462993145 2 15.72 1.120 2024-06-16 16:04:03
9 51.910537720 4.477810383 3 19.34 0.900 2024-06-16 16:04:02
10 51.906253815 4.462638855 2 0.46 0.880 2024-06-16 16:03:53
8 51.910068512 4.478089809 3 13.28 0.990 2024-06-16 16:03:52
8 51.909687042 4.482835293 5 0.67 1.490 2024-06-16 16:03:47
9 51.906154633 4.462427139 2 9.33 0.930 2024-06-16 16:03:43
10 51.922973633 4.497405529 1 0.48 0.840 2024-06-16 16:03:38
10 51.905960083 4.462008476 2 11.98 0.880 2024-06-16 16:03:33
7 51.909469604 4.478528976 3 18.39 1.700 2024-06-16 16:03:32
7 51.909835815 4.482738495 5 1.26 1.350 2024-06-16 16:03:28
9 51.905769348 4.461457729 2 16.80 0.930 2024-06-16 16:03:24
9 51.908775330 4.478980064 3 11.69 0.900 2024-06-16 16:03:23
9 51.923213959 4.497703075 1 13.70 0.980 2024-06-16 16:03:16
10 51.905555725 4.460793972 2 19.45 0.880 2024-06-16 16:03:14
8 51.905326843 4.460155487 2 9.48 1.120 2024-06-16 16:03:03
9 51.909362793 4.480626583 3 16.09 0.930 2024-06-16 16:02:59
8 51.905208588 4.459945679 2 13.96 1.120 2024-06-16 16:02:53
6 51.909893036 4.482640266 5 0.43 2.950 2024-06-16 16:02:47
9 51.904914856 4.459218979 2 20.67 0.930 2024-06-16 16:02:43
9 51.904624939 4.458333492 2 26.24 0.930 2024-06-16 16:02:33
6 51.909782410 4.482189655 3 12.56 1.740 2024-06-16 16:02:25
7 51.904399872 4.457262516 2 24.96 1.150 2024-06-16 16:02:23
8 51.904262543 4.456312180 2 22.96 0.980 2024-06-16 16:02:14
7 51.904064178 4.455389023 2 29.19 0.990 2024-06-16 16:02:03
6 51.909767151 4.482760906 5 0.37 2.690 2024-06-16 16:01:57
9 51.903869629 4.454349518 2 19.20 0.930 2024-06-16 16:01:53
9 51.903747559 4.453762531 2 1.46 0.930 2024-06-16 16:01:44
8 51.923477173 4.497440338 1 1.43 1.120 2024-06-16 16:01:34
8 51.903743744 4.453489304 2 11.95 1.120 2024-06-16 16:01:33
9 51.903602600 4.452648163 2 22.13 0.930 2024-06-16 16:01:23
9 51.923622131 4.497356892 1 6.89 1.600 2024-06-16 16:01:15
9 51.903503418 4.451708794 2 21.89 0.930 2024-06-16 16:01:13
10 51.923831940 4.496886253 1 9.37 0.930 2024-06-16 16:01:06
9 51.903488159 4.450867176 2 23.72 0.930 2024-06-16 16:01:03
11 51.903533936 4.449932098 2 22.63 0.780 2024-06-16 16:00:53
7 51.909626007 4.482794285 5 1.56 1.020 2024-06-16 16:00:47
10 51.903656006 4.449007034 2 25.22 0.870 2024-06-16 16:00:43
10 51.903896332 4.448004723 2 26.15 0.930 2024-06-16 16:00:35
9 51.924434662 4.495984554 1 18.43 0.870 2024-06-16 16:00:29
10 51.904136658 4.447216511 2 13.76 0.810 2024-06-16 16:00:24
9 51.924961090 4.496088505 1 21.17 0.880 2024-06-16 16:00:20
10 51.904205322 4.447016716 2 10.17 0.810 2024-06-16 16:00:13
8 51.925533295 4.496249676 1 22.30 0.980 2024-06-16 16:00:08
8 51.904361725 4.446354866 2 18.39 0.970 2024-06-16 16:00:04
11 51.926048279 4.496321201 1 19.09 0.750 2024-06-16 16:00:01
9 51.904586792 4.445790291 2 17.85 0.930 2024-06-16 15:59:55
10 51.926502228 4.496397495 1 0.70 0.820 2024-06-16 15:59:28
10 51.926651001 4.496469021 1 10.96 0.890 2024-06-16 15:59:17
8 51.904991150 4.445319653 2 10.41 0.950 2024-06-16 15:59:13
7 51.905361176 4.445133686 2 20.04 1.150 2024-06-16 15:59:04
9 51.927089691 4.496533871 1 24.69 0.930 2024-06-16 15:58:59
7 51.905902863 4.445349693 2 21.15 1.150 2024-06-16 15:58:54
10 51.927764893 4.496575356 1 19.35 0.840 2024-06-16 15:58:48
8 51.906417847 4.445620537 2 18.72 0.970 2024-06-16 15:58:43
10 51.928348541 4.496542454 1 16.45 0.840 2024-06-16 15:58:39
8 51.907108307 4.445784092 2 6.96 0.950 2024-06-16 15:58:35
8 51.909793854 4.482569218 3 0.72 1.060 2024-06-16 15:58:32
11 51.928836823 4.496775627 1 15.84 0.750 2024-06-16 15:58:29
7 51.907428741 4.445793629 2 14.89 1.020 2024-06-16 15:58:23
9 51.929176331 4.496991634 1 14.74 0.890 2024-06-16 15:58:20
8 51.907894135 4.445791245 2 8.31 0.950 2024-06-16 15:58:14
9 51.929656982 4.496938705 1 21.02 0.930 2024-06-16 15:58:08
7 51.909469604 4.482773781 5 0.65 1.020 2024-06-16 15:58:08
8 51.908248901 4.445806980 2 16.63 0.960 2024-06-16 15:58:04
8 51.930233002 4.496978283 1 23.08 0.970 2024-06-16 15:57:59
6 51.908725739 4.445838451 2 19.22 1.220 2024-06-16 15:57:54
9 51.930870056 4.497164726 1 26.76 0.890 2024-06-16 15:57:49
7 51.909343719 4.445905209 2 15.46 1.130 2024-06-16 15:57:44
10 51.931579590 4.497292519 1 25.50 0.840 2024-06-16 15:57:39
8 51.909702301 4.445859432 2 14.67 1.350 2024-06-16 15:57:34
9 51.932117462 4.497406960 1 20.04 0.860 2024-06-16 15:57:28
8 51.909996033 4.446018696 2 5.46 0.950 2024-06-16 15:57:24
11 51.932487488 4.497311592 1 11.41 0.750 2024-06-16 15:57:19
9 51.910041809 4.446288109 2 6.41 0.900 2024-06-16 15:57:14
8 51.909877777 4.482783794 3 0.46 0.960 2024-06-16 15:57:12
9 51.932510376 4.496792316 1 22.74 1.550 2024-06-16 15:57:08
6 51.909610748 4.482932568 5 1.28 1.150 2024-06-16 15:57:02
8 51.932506561 4.495785236 1 23.54 1.550 2024-06-16 15:56:59
8 51.932613373 4.494902134 1 17.89 1.550 2024-06-16 15:56:48
9 51.932605743 4.494089127 1 23.04 0.890 2024-06-16 15:56:42
9 51.932731628 4.492870331 1 33.58 0.890 2024-06-16 15:56:28
8 51.932865143 4.491521358 1 31.93 1.560 2024-06-16 15:56:18
7 51.909893036 4.483059883 5 1.57 1.060 2024-06-16 15:56:15
8 51.933017731 4.490298271 1 29.19 1.560 2024-06-16 15:56:08
11 51.909790039 4.482983112 3 0.93 0.750 2024-06-16 15:56:02
10 51.933181763 4.488657475 1 16.50 0.840 2024-06-16 15:55:59
5 51.909748077 4.482934952 5 0.96 1.790 2024-06-16 15:55:55
7 51.909904480 4.446405411 2 0.32 1.490 2024-06-16 15:55:44
6 51.909503937 4.482762337 5 0.63 3.520 2024-06-16 15:55:25
10 51.909828186 4.482755661 3 1.76 0.810 2024-06-16 15:55:23
10 51.930438995 4.486357689 1 23.85 0.840 2024-06-16 15:55:18
6 51.909614563 4.482564449 5 0.94 1.150 2024-06-16 15:54:55
8 51.909912109 4.446671963 2 1.13 1.360 2024-06-16 15:54:44
7 51.909919739 4.446988106 2 13.85 1.510 2024-06-16 15:54:33
9 51.928665161 4.486454964 1 31.00 0.900 2024-06-16 15:54:33
6 51.909740448 4.482422829 5 0.41 1.150 2024-06-16 15:54:25
9 51.909881592 4.447742462 2 19.50 0.900 2024-06-16 15:54:23
10 51.927944183 4.486552715 1 25.71 0.850 2024-06-16 15:54:22
8 51.909839630 4.448564053 2 18.59 0.990 2024-06-16 15:54:13
11 51.927070618 4.486542225 1 0.02 0.750 2024-06-16 15:54:13
5 51.909610748 4.482309341 5 10.89 1.800 2024-06-16 15:54:07
6 51.909790039 4.449302197 2 16.63 2.010 2024-06-16 15:54:06
6 51.909355164 4.482024193 5 13.28 1.220 2024-06-16 15:53:55
5 51.908977509 4.481743813 5 18.13 1.800 2024-06-16 15:53:45
7 51.910503387 4.450802326 2 10.56 1.520 2024-06-16 15:53:36
8 51.909786224 4.482504845 3 0.67 0.860 2024-06-16 15:53:34
7 51.908889771 4.480785847 5 11.46 1.880 2024-06-16 15:53:34
8 51.925922394 4.486532688 1 22.87 0.980 2024-06-16 15:53:23
7 51.909008026 4.480317116 5 13.35 1.040 2024-06-16 15:53:18
7 51.910697937 4.451300621 2 10.59 1.710 2024-06-16 15:53:17
9 51.925395966 4.486411572 1 17.91 0.940 2024-06-16 15:53:14
6 51.910789490 4.451742649 2 9.09 2.040 2024-06-16 15:53:07
8 51.908992767 4.479702950 5 15.00 1.330 2024-06-16 15:53:05
9 51.925041199 4.486280441 1 13.89 0.940 2024-06-16 15:53:03
8 51.910865784 4.451933861 2 1.91 0.990 2024-06-16 15:52:58
8 51.908912659 4.479158401 5 13.56 1.530 2024-06-16 15:52:55
10 51.924934387 4.485834122 1 7.93 0.830 2024-06-16 15:52:52
8 51.909248352 4.478687286 5 17.45 0.970 2024-06-16 15:52:45
7 51.909767151 4.478459835 5 19.08 1.900 2024-06-16 15:52:35
9 51.911010742 4.451991558 2 1.22 0.910 2024-06-16 15:52:28
7 51.910228729 4.478154659 5 14.70 1.040 2024-06-16 15:52:26
8 51.925037384 4.485599995 1 17.32 0.980 2024-06-16 15:52:23
8 51.911083221 4.452183723 2 1.46 0.990 2024-06-16 15:52:18
9 51.910606384 4.478096962 5 15.46 0.920 2024-06-16 15:52:15
9 51.925155640 4.483833790 1 29.63 0.880 2024-06-16 15:52:15
9 51.925235748 4.483503342 1 29.73 0.940 2024-06-16 15:52:10
7 51.911228180 4.452396393 2 17.95 1.540 2024-06-16 15:52:08
8 51.911083221 4.477848530 5 15.74 0.920 2024-06-16 15:52:05
7 51.911773682 4.452935696 2 21.24 1.880 2024-06-16 15:51:58
8 51.911457062 4.477595806 5 13.46 0.980 2024-06-16 15:51:56
10 51.925464630 4.482471466 1 24.43 0.790 2024-06-16 15:51:53
6 51.912200928 4.453595161 2 16.30 1.580 2024-06-16 15:51:48
8 51.911750793 4.477744102 5 7.74 0.980 2024-06-16 15:51:45
8 51.912284851 4.454204559 2 14.93 1.370 2024-06-16 15:51:38
9 51.925346375 4.481590271 1 11.37 0.880 2024-06-16 15:51:33
9 51.911705017 4.477951050 5 0.67 0.920 2024-06-16 15:51:25
8 51.909732819 4.482732773 3 0.26 0.940 2024-06-16 15:51:23
10 51.925151825 4.481005669 1 18.63 0.840 2024-06-16 15:51:23
11 51.924987793 4.480403423 1 13.96 0.780 2024-06-16 15:51:16
9 51.924846649 4.479838371 1 13.65 0.900 2024-06-16 15:51:03
8 51.912242889 4.454827309 2 3.87 1.380 2024-06-16 15:50:57
7 51.912361145 4.455373764 2 18.56 1.550 2024-06-16 15:50:48
8 51.911792755 4.478204727 5 7.41 1.360 2024-06-16 15:50:45
9 51.912624359 4.456182957 2 17.59 0.910 2024-06-16 15:50:37
9 51.909603119 4.482793331 3 1.04 0.940 2024-06-16 15:50:33
8 51.924648285 4.479521275 1 13.09 1.360 2024-06-16 15:50:32
8 51.912044525 4.479328632 5 22.84 1.360 2024-06-16 15:50:30
8 51.912731171 4.456902027 2 19.80 1.380 2024-06-16 15:50:27
9 51.924514771 4.478902817 1 15.80 0.940 2024-06-16 15:50:22
8 51.912887573 4.457660198 2 18.78 1.380 2024-06-16 15:50:20
9 51.912193298 4.480268478 5 24.02 0.920 2024-06-16 15:50:16
8 51.913024902 4.458351612 2 22.24 1.380 2024-06-16 15:50:07
10 51.924320221 4.478474617 1 0.57 0.900 2024-06-16 15:50:03
7 51.913196564 4.459175587 2 20.80 1.570 2024-06-16 15:49:58
8 51.913356781 4.460090637 2 15.59 1.380 2024-06-16 15:49:48
7 51.912147522 4.482366562 5 21.13 1.600 2024-06-16 15:49:45
8 51.913349152 4.460558891 2 2.06 1.380 2024-06-16 15:49:37
6 51.911720276 4.482450962 5 17.52 1.610 2024-06-16 15:49:35
10 51.924221039 4.478260040 1 13.43 0.850 2024-06-16 15:49:33
8 51.913440704 4.460948467 2 17.91 1.380 2024-06-16 15:49:28
6 51.911186218 4.482594967 5 22.91 3.340 2024-06-16 15:49:25
10 51.923877716 4.478166103 1 8.19 1.570 2024-06-16 15:49:23
7 51.913623810 4.461832523 2 21.39 1.570 2024-06-16 15:49:18
7 51.910705566 4.483015537 5 23.78 2.010 2024-06-16 15:49:15
7 51.913768768 4.462667942 2 19.84 1.580 2024-06-16 15:49:07
8 51.910301208 4.483884335 5 29.09 0.980 2024-06-16 15:49:05
9 51.923725128 4.478121281 1 0.11 0.900 2024-06-16 15:49:03
7 51.913963318 4.463458061 2 14.67 1.580 2024-06-16 15:48:57
9 51.909934998 4.484804153 5 22.80 0.920 2024-06-16 15:48:55
8 51.913917542 4.463955402 2 12.26 1.380 2024-06-16 15:48:49
8 51.909637451 4.485587120 5 22.71 0.950 2024-06-16 15:48:45
8 51.913963318 4.464167118 2 0.56 1.380 2024-06-16 15:48:39
9 51.909362793 4.486317635 5 18.00 0.920 2024-06-16 15:48:35
6 51.923587799 4.478036880 1 0.32 1.840 2024-06-16 15:48:33
8 51.909019470 4.487309456 5 14.11 1.400 2024-06-16 15:48:26
8 51.914089203 4.464352131 2 14.39 0.990 2024-06-16 15:48:17
7 51.914279938 4.465050220 2 21.19 1.590 2024-06-16 15:48:07
7 51.914619446 4.465736389 2 21.65 1.040 2024-06-16 15:47:57
9 51.923427582 4.478018284 1 3.13 0.920 2024-06-16 15:47:53
7 51.915096283 4.466036320 2 14.91 1.040 2024-06-16 15:47:48
9 51.923095703 4.478110313 1 20.54 0.920 2024-06-16 15:47:44
8 51.915470123 4.466224194 2 7.26 0.970 2024-06-16 15:47:38
9 51.922641754 4.478319168 1 14.37 0.900 2024-06-16 15:47:33
7 51.915767670 4.466575623 2 14.65 1.130 2024-06-16 15:47:30
7 51.907489777 4.490821362 5 16.46 1.040 2024-06-16 15:47:28
9 51.922225952 4.478443146 1 24.28 0.920 2024-06-16 15:47:23
8 51.916000366 4.467266560 2 19.06 1.380 2024-06-16 15:47:18
8 51.921611786 4.478716373 1 22.63 0.950 2024-06-16 15:47:14
8 51.916221619 4.468067169 2 18.13 1.380 2024-06-16 15:47:07
10 51.921127319 4.479059696 1 14.85 0.890 2024-06-16 15:47:04
8 51.916358948 4.468843937 2 18.52 1.380 2024-06-16 15:46:57
8 51.920768738 4.479229927 1 0.22 0.960 2024-06-16 15:46:57
7 51.916549683 4.469587803 2 18.54 1.610 2024-06-16 15:46:48
7 51.916633606 4.470310688 2 19.74 1.610 2024-06-16 15:46:39
7 51.916820526 4.471069813 2 18.72 1.610 2024-06-16 15:46:27
7 51.907218933 4.491497517 5 8.13 1.050 2024-06-16 15:46:26
7 51.909645081 4.482581139 3 0.17 1.640 2024-06-16 15:46:22
9 51.917003632 4.471842766 2 19.52 0.910 2024-06-16 15:46:17
7 51.907066345 4.491969585 5 20.19 1.050 2024-06-16 15:46:15
8 51.909484863 4.482660294 3 0.43 1.640 2024-06-16 15:46:12
8 51.917205811 4.472647667 2 7.78 1.390 2024-06-16 15:46:08
8 51.919864655 4.479361057 1 13.74 2.180 2024-06-16 15:46:06
7 51.906719208 4.492599010 5 20.11 2.180 2024-06-16 15:46:05
8 51.917255402 4.472887039 2 8.80 1.000 2024-06-16 15:45:58
9 51.919887543 4.478793144 1 16.06 0.940 2024-06-16 15:45:56
8 51.906414032 4.493303776 5 20.76 1.000 2024-06-16 15:45:54
8 51.917785645 4.472700119 2 17.61 1.000 2024-06-16 15:45:48
7 51.919696808 4.478134155 1 17.72 2.120 2024-06-16 15:45:47
8 51.906196594 4.493996620 5 15.67 1.000 2024-06-16 15:45:44
9 51.909637451 4.482832909 3 0.72 1.050 2024-06-16 15:45:42
9 51.919521332 4.477396011 1 11.57 0.930 2024-06-16 15:45:36
7 51.906188965 4.494487286 5 6.33 2.160 2024-06-16 15:45:35
8 51.919364929 4.476288795 1 21.34 2.140 2024-06-16 15:45:25
7 51.906356812 4.494552135 5 3.82 2.160 2024-06-16 15:45:24
8 51.919334412 4.476037502 1 20.89 0.990 2024-06-16 15:45:16
6 51.906501770 4.494840145 5 14.70 1.950 2024-06-16 15:45:14
9 51.909717560 4.482590675 3 0.22 0.940 2024-06-16 15:45:12
6 51.919097900 4.475147724 1 11.21 2.240 2024-06-16 15:45:06
7 51.906932831 4.495118618 5 8.19 1.630 2024-06-16 15:45:06
8 51.919605255 4.472187519 2 20.85 1.000 2024-06-16 15:45:01
8 51.919002533 4.474348068 1 13.95 1.000 2024-06-16 15:44:56
6 51.907184601 4.495042801 5 8.65 2.250 2024-06-16 15:44:54
6 51.920158386 4.472043037 2 16.87 2.460 2024-06-16 15:44:51
8 51.918941498 4.473728180 1 14.52 0.970 2024-06-16 15:44:47
7 51.907371521 4.494678497 5 7.13 1.640 2024-06-16 15:44:44
8 51.920555115 4.471760273 2 16.41 1.000 2024-06-16 15:44:41
10 51.918819427 4.473093033 1 17.95 0.860 2024-06-16 15:44:36
6 51.907447815 4.494431496 5 2.44 2.250 2024-06-16 15:44:34
5 51.920906067 4.471251965 2 16.15 1.330 2024-06-16 15:44:31
9 51.918708801 4.472507477 1 11.30 0.940 2024-06-16 15:44:26
7 51.907558441 4.494200706 5 18.28 2.260 2024-06-16 15:44:24
6 51.921447754 4.471276760 2 18.82 2.250 2024-06-16 15:44:21
10 51.918247223 4.472362995 1 20.34 0.860 2024-06-16 15:44:16
7 51.921997070 4.471394539 2 20.30 1.050 2024-06-16 15:44:14
6 51.907852173 4.493590832 5 23.52 2.260 2024-06-16 15:44:14
9 51.917785645 4.472617149 1 21.04 0.940 2024-06-16 15:44:06
7 51.908195496 4.492897034 5 19.06 1.650 2024-06-16 15:44:04
7 51.922496796 4.471175194 2 14.85 1.030 2024-06-16 15:44:01
9 51.917263031 4.472847939 1 21.02 0.940 2024-06-16 15:43:56
7 51.908329010 4.492333412 5 16.32 2.430 2024-06-16 15:43:54
9 51.922809601 4.471210480 2 12.48 0.910 2024-06-16 15:43:51
9 51.916847229 4.473132610 1 14.82 0.990 2024-06-16 15:43:46
7 51.923152924 4.471277714 2 14.93 1.170 2024-06-16 15:43:41
6 51.907840729 4.491321564 5 17.00 2.430 2024-06-16 15:43:34
8 51.907608032 4.490763187 5 15.54 1.000 2024-06-16 15:43:24
7 51.923381805 4.471309185 2 0.35 2.110 2024-06-16 15:43:22
8 51.907737732 4.490172386 5 9.02 1.000 2024-06-16 15:43:14
8 51.907840729 4.489865780 5 9.80 1.000 2024-06-16 15:43:05
8 51.923545837 4.471179008 2 0.96 1.120 2024-06-16 15:43:03
7 51.908126831 4.489257336 5 25.15 1.060 2024-06-16 15:42:54
7 51.908470154 4.488327980 5 23.15 1.660 2024-06-16 15:42:44
7 51.908798218 4.487511158 5 8.72 1.670 2024-06-16 15:42:37
6 51.909088135 4.486746788 5 25.74 1.710 2024-06-16 15:42:23
8 51.909393311 4.485984325 5 20.67 1.000 2024-06-16 15:42:14
8 51.909690857 4.485274792 5 21.00 1.000 2024-06-16 15:42:04
8 51.909957886 4.484625340 5 17.91 1.000 2024-06-16 15:41:54
7 51.910190582 4.484070301 5 17.28 1.050 2024-06-16 15:41:43
6 51.924503326 4.474281788 2 15.61 2.310 2024-06-16 15:41:40
7 51.910400391 4.483556271 5 15.54 1.050 2024-06-16 15:41:33
5 51.923896790 4.474411488 2 15.91 2.820 2024-06-16 15:41:30
8 51.910629272 4.483088970 5 16.43 1.000 2024-06-16 15:41:24
7 51.923641205 4.474476337 2 2.72 1.640 2024-06-16 15:41:22
7 51.910987854 4.482741833 5 18.37 1.070 2024-06-16 15:41:14
8 51.923606873 4.474102497 2 7.56 1.380 2024-06-16 15:41:10
6 51.911468506 4.482529640 5 20.00 1.140 2024-06-16 15:41:05
9 51.923473358 4.473628044 2 14.04 0.920 2024-06-16 15:41:01
8 51.911979675 4.482418060 5 17.80 1.000 2024-06-16 15:40:53
8 51.923271179 4.473080158 2 9.95 1.380 2024-06-16 15:40:51
8 51.912345886 4.482394218 5 15.04 1.010 2024-06-16 15:40:44
8 51.912597656 4.482345104 5 0.44 1.010 2024-06-16 15:40:34
7 51.923091888 4.472843170 2 5.41 1.430 2024-06-16 15:40:20
7 51.923091888 4.472435951 2 17.28 1.700 2024-06-16 15:40:11
8 51.922981262 4.471693039 2 20.59 1.380 2024-06-16 15:40:01
7 51.922367096 4.471462727 2 19.61 1.030 2024-06-16 15:39:47
10 51.916652679 4.473361969 1 8.17 0.910 2024-06-16 15:39:47
7 51.912677765 4.482154846 5 0.65 1.050 2024-06-16 15:39:44
10 51.916278839 4.473783016 1 19.84 0.870 2024-06-16 15:39:37
8 51.912937164 4.482114315 5 19.15 1.010 2024-06-16 15:39:33
6 51.921871185 4.471796036 2 24.22 2.130 2024-06-16 15:39:31
10 51.915901184 4.474262714 1 14.59 0.910 2024-06-16 15:39:26
7 51.921279907 4.471924782 2 18.65 2.020 2024-06-16 15:39:20
10 51.915470123 4.474665642 1 22.78 0.940 2024-06-16 15:39:16
8 51.913585663 4.481928825 5 26.09 1.010 2024-06-16 15:39:15
6 51.920917511 4.472166538 2 13.70 1.100 2024-06-16 15:39:12
10 51.915019989 4.474973202 1 12.00 0.870 2024-06-16 15:39:06
6 51.915130615 4.481857300 5 37.60 1.200 2024-06-16 15:39:06
7 51.920658112 4.472216129 2 10.56 2.010 2024-06-16 15:39:00
9 51.914669037 4.475230694 1 22.69 1.000 2024-06-16 15:38:56
6 51.920307159 4.472148895 2 21.26 2.290 2024-06-16 15:38:52
9 51.913978577 4.475747108 1 33.80 0.940 2024-06-16 15:38:46
7 51.919742584 4.472289085 2 24.04 1.720 2024-06-16 15:38:44
10 51.913177490 4.476333141 1 36.35 0.870 2024-06-16 15:38:35
7 51.919189453 4.472475052 2 17.30 1.720 2024-06-16 15:38:30
8 51.912368774 4.476906776 1 29.15 1.570 2024-06-16 15:38:25
8 51.918937683 4.472719669 2 10.80 1.010 2024-06-16 15:38:22
9 51.911785126 4.477248192 1 14.89 0.920 2024-06-16 15:38:16
7 51.917781830 4.481285095 5 16.56 2.470 2024-06-16 15:38:15
7 51.918895721 4.473346233 2 18.45 1.720 2024-06-16 15:38:11
9 51.911449432 4.477311611 1 8.35 0.940 2024-06-16 15:38:06
7 51.918193817 4.481359005 5 7.52 2.100 2024-06-16 15:38:05
7 51.919120789 4.474080563 2 13.93 1.080 2024-06-16 15:38:01
10 51.911216736 4.476666451 1 19.50 0.940 2024-06-16 15:37:56
6 51.919322968 4.474735737 2 19.02 2.390 2024-06-16 15:37:55
9 51.910984039 4.475925922 1 20.54 0.920 2024-06-16 15:37:46
8 51.919628143 4.475567818 2 17.65 1.010 2024-06-16 15:37:41
7 51.918369293 4.481716633 5 1.04 2.090 2024-06-16 15:37:36
9 51.910751343 4.475129604 1 22.54 0.940 2024-06-16 15:37:35
9 51.909702301 4.482355118 3 0.96 0.820 2024-06-16 15:37:32
8 51.919685364 4.476202488 2 15.96 1.380 2024-06-16 15:37:31
10 51.910522461 4.474341393 1 20.17 0.870 2024-06-16 15:37:25
7 51.919750214 4.476877689 2 19.93 1.830 2024-06-16 15:37:22
9 51.910312653 4.473628998 1 18.02 0.940 2024-06-16 15:37:15
9 51.919845581 4.477625370 2 12.50 0.920 2024-06-16 15:37:10
8 51.910137177 4.472937584 1 18.87 0.970 2024-06-16 15:37:05
7 51.919670105 4.477872372 2 13.15 1.740 2024-06-16 15:37:00
8 51.909999847 4.472324371 1 11.89 0.970 2024-06-16 15:36:56
6 51.919013977 4.483272076 5 13.45 2.370 2024-06-16 15:36:53
7 51.919651031 4.478493690 2 14.52 1.080 2024-06-16 15:36:51
10 51.909900665 4.471851349 1 13.56 0.930 2024-06-16 15:36:46
7 51.918903351 4.483703613 5 15.56 1.060 2024-06-16 15:36:44
9 51.909793854 4.471249580 1 21.84 1.010 2024-06-16 15:36:36
6 51.919147491 4.484320641 5 0.37 2.370 2024-06-16 15:36:34
8 51.918922424 4.480538368 2 13.78 1.010 2024-06-16 15:36:26
10 51.909481049 4.470414639 1 22.71 0.940 2024-06-16 15:36:26
10 51.909172058 4.469635487 1 22.22 1.000 2024-06-16 15:36:16
10 51.908882141 4.468892097 1 20.24 0.940 2024-06-16 15:36:06
10 51.908615112 4.468153000 1 16.80 0.940 2024-06-16 15:35:55
10 51.908443451 4.467628002 1 15.85 0.870 2024-06-16 15:35:47
6 51.919013977 4.486195087 5 17.50 1.190 2024-06-16 15:35:43
8 51.917480469 4.481405735 2 21.20 1.060 2024-06-16 15:35:39
6 51.917064667 4.481822014 2 21.74 1.190 2024-06-16 15:35:28
10 51.908256531 4.467102051 1 0.44 0.870 2024-06-16 15:35:26
5 51.918949127 4.486880779 5 0.59 2.860 2024-06-16 15:35:23
9 51.916511536 4.482067108 2 25.02 0.980 2024-06-16 15:35:20
9 51.908123016 4.466939449 1 18.41 0.950 2024-06-16 15:35:16
5 51.915836334 4.482104778 2 28.71 2.780 2024-06-16 15:35:08
8 51.919101715 4.487014294 5 4.76 1.010 2024-06-16 15:35:01
7 51.915073395 4.482230186 2 26.71 1.060 2024-06-16 15:34:59
6 51.919277191 4.487527370 5 16.74 1.150 2024-06-16 15:34:51
6 51.914302826 4.482307434 2 25.15 1.190 2024-06-16 15:34:49
10 51.907348633 4.465154171 1 19.11 0.870 2024-06-16 15:34:41
7 51.919452667 4.488106251 5 18.41 1.060 2024-06-16 15:34:41
8 51.913642883 4.482295036 2 23.67 1.010 2024-06-16 15:34:38
8 51.919559479 4.488768578 5 8.61 1.070 2024-06-16 15:34:31
10 51.906932831 4.464796066 1 19.85 0.870 2024-06-16 15:34:28
8 51.913101196 4.482068539 2 22.61 1.010 2024-06-16 15:34:28
7 51.919349670 4.489199638 5 1.57 1.820 2024-06-16 15:34:21
9 51.906726837 4.463986874 1 20.08 0.920 2024-06-16 15:34:18
9 51.912620544 4.482071877 2 13.74 0.920 2024-06-16 15:34:18
6 51.919548035 4.489138126 5 2.06 2.480 2024-06-16 15:34:11
9 51.906463623 4.463174343 1 26.11 0.900 2024-06-16 15:34:08
9 51.912322998 4.481842518 2 11.39 1.370 2024-06-16 15:34:08
7 51.920070648 4.488849163 5 4.13 1.830 2024-06-16 15:34:02
9 51.912254333 4.481619835 2 1.56 0.920 2024-06-16 15:33:58
9 51.906108856 4.462239742 1 26.48 1.010 2024-06-16 15:33:58
8 51.909622192 4.482547283 3 0.63 0.920 2024-06-16 15:33:52
10 51.905750275 4.461241245 1 26.48 0.870 2024-06-16 15:33:48
8 51.912117004 4.481370926 2 14.91 1.370 2024-06-16 15:33:48
8 51.912097931 4.480631828 2 22.02 1.370 2024-06-16 15:33:41
10 51.905326843 4.460060120 1 1.39 0.950 2024-06-16 15:33:40
8 51.912029266 4.479736328 2 25.34 1.370 2024-06-16 15:33:28
8 51.911727905 4.478775978 2 23.78 1.020 2024-06-16 15:33:18
7 51.920707703 4.491203308 5 19.13 1.060 2024-06-16 15:33:11
8 51.911437988 4.478123188 2 17.57 1.020 2024-06-16 15:33:09
9 51.904537201 4.457769394 1 32.34 0.940 2024-06-16 15:33:03
9 51.911125183 4.477889061 2 6.37 0.920 2024-06-16 15:32:59
7 51.920928955 4.491875172 5 18.54 1.780 2024-06-16 15:32:57
8 51.904182434 4.456425190 1 36.15 0.990 2024-06-16 15:32:53
8 51.910873413 4.478055477 2 20.15 1.020 2024-06-16 15:32:49
8 51.921234131 4.492606640 5 18.84 1.790 2024-06-16 15:32:48
9 51.903957367 4.455058098 1 30.11 0.940 2024-06-16 15:32:43
7 51.910346985 4.478397846 2 19.46 1.060 2024-06-16 15:32:39
8 51.921546936 4.493356228 5 23.06 1.020 2024-06-16 15:32:36
9 51.903793335 4.454104424 1 16.72 0.940 2024-06-16 15:32:34
8 51.921813965 4.494241238 5 25.24 1.020 2024-06-16 15:32:27
8 51.909759521 4.482559204 3 0.56 1.760 2024-06-16 15:32:24
10 51.903728485 4.453804016 1 0.65 0.940 2024-06-16 15:32:23
7 51.909568787 4.478818417 2 18.89 1.900 2024-06-16 15:32:19
10 51.903652191 4.453316689 1 20.34 0.870 2024-06-16 15:32:14
7 51.909149170 4.479022503 2 16.39 1.900 2024-06-16 15:32:08
9 51.903480530 4.452253342 1 29.32 0.940 2024-06-16 15:32:04
7 51.908916473 4.479719639 2 16.54 1.070 2024-06-16 15:31:59
8 51.922878265 4.496895790 5 17.30 1.020 2024-06-16 15:31:58
10 51.903430939 4.451065540 1 29.26 0.930 2024-06-16 15:31:53
8 51.909046173 4.480428696 2 19.35 1.020 2024-06-16 15:31:49
10 51.903541565 4.449948788 1 28.45 0.880 2024-06-16 15:31:43
8 51.909297943 4.481120110 2 20.89 1.020 2024-06-16 15:31:39
10 51.903717041 4.448866367 1 27.28 0.880 2024-06-16 15:31:33
7 51.909694672 4.481615543 2 15.95 1.140 2024-06-16 15:31:28
10 51.903949738 4.447936058 1 22.20 0.880 2024-06-16 15:31:23
7 51.909812927 4.482182980 2 13.93 1.070 2024-06-16 15:31:19
9 51.904159546 4.447261333 1 14.52 0.940 2024-06-16 15:31:13
9 51.904235840 4.447049141 1 4.87 0.940 2024-06-16 15:31:03
8 51.904365540 4.446592808 1 19.20 0.990 2024-06-16 15:30:53
8 51.904556274 4.445895195 1 19.24 1.020 2024-06-16 15:30:43
8 51.923793793 4.496808529 5 7.37 1.020 2024-06-16 15:30:35
9 51.904930115 4.445409775 1 4.30 0.940 2024-06-16 15:30:24
9 51.905227661 4.445191860 1 20.06 0.940 2024-06-16 15:30:13
9 51.905826569 4.445382118 1 28.37 0.940 2024-06-16 15:30:05
9 51.906448364 4.445625305 1 23.76 0.940 2024-06-16 15:29:54
8 51.909599304 4.482875347 3 0.33 0.960 2024-06-16 15:29:52
9 51.906925201 4.445674896 1 9.65 0.940 2024-06-16 15:29:43
8 51.926174164 4.496234894 5 26.93 1.020 2024-06-16 15:29:41
8 51.926330566 4.496268272 5 25.17 1.020 2024-06-16 15:29:36
9 51.907241821 4.445704937 1 19.45 0.940 2024-06-16 15:29:33
9 51.907905579 4.445769787 1 25.67 0.940 2024-06-16 15:29:23
8 51.908531189 4.445820332 1 20.13 1.020 2024-06-16 15:29:13
8 51.909111023 4.445890903 1 22.02 1.020 2024-06-16 15:29:03
9 51.909709930 4.483016968 3 1.28 1.030 2024-06-16 15:29:02
8 51.928546906 4.496500969 5 10.74 1.020 2024-06-16 15:28:56
8 51.909641266 4.445918083 1 15.17 1.020 2024-06-16 15:28:54
8 51.928951263 4.496863842 5 11.37 1.020 2024-06-16 15:28:46
8 51.909965515 4.446080685 1 5.09 1.020 2024-06-16 15:28:43
8 51.929244995 4.497049332 5 10.32 1.020 2024-06-16 15:28:37
8 51.909973145 4.446319103 1 10.41 1.020 2024-06-16 15:28:34
10 51.909847260 4.482970238 3 0.26 0.870 2024-06-16 15:28:32
8 51.929695129 4.496944904 5 19.00 1.020 2024-06-16 15:28:27
7 51.930202484 4.497063637 5 25.32 1.820 2024-06-16 15:28:16
7 51.930835724 4.497245312 5 23.06 1.040 2024-06-16 15:28:06
8 51.931491852 4.497335911 5 22.76 1.030 2024-06-16 15:27:56
8 51.932044983 4.497374535 5 19.72 1.030 2024-06-16 15:27:47
8 51.932468414 4.497353554 5 9.26 1.030 2024-06-16 15:27:36
9 51.909996033 4.482762814 3 0.59 1.100 2024-06-16 15:27:32
7 51.932609558 4.496806145 5 18.93 1.830 2024-06-16 15:27:27
8 51.932678223 4.495966434 5 21.65 1.030 2024-06-16 15:27:16
7 51.932746887 4.495049477 5 17.76 1.830 2024-06-16 15:27:06
8 51.932788849 4.494378567 5 15.50 1.030 2024-06-16 15:26:58
6 51.932884216 4.493469238 5 25.39 2.280 2024-06-16 15:26:46
8 51.932914734 4.492450237 5 23.82 1.030 2024-06-16 15:26:36
8 51.932994843 4.491479874 5 24.08 1.030 2024-06-16 15:26:27
8 51.910137177 4.482695103 3 0.61 1.090 2024-06-16 15:26:21
8 51.933086395 4.490478516 5 22.02 1.030 2024-06-16 15:26:16
7 51.933139801 4.489565849 5 21.63 1.840 2024-06-16 15:26:06
7 51.933177948 4.488804817 5 11.59 1.840 2024-06-16 15:25:56
8 51.909988403 4.482560635 3 0.28 1.460 2024-06-16 15:25:52
8 51.933040619 4.488406658 5 13.32 1.030 2024-06-16 15:25:47
7 51.932655334 4.487980366 5 24.72 1.840 2024-06-16 15:25:36
8 51.931434631 4.487158775 5 26.30 1.030 2024-06-16 15:25:25
8 51.931297302 4.487077236 5 27.50 1.030 2024-06-16 15:25:24
8 51.928718567 4.486669540 5 14.45 1.030 2024-06-16 15:24:32
8 51.928150177 4.486660957 5 23.56 1.030 2024-06-16 15:24:21
8 51.927539825 4.486701965 5 19.48 1.030 2024-06-16 15:24:11
8 51.927108765 4.486639500 5 9.37 1.030 2024-06-16 15:24:05
8 51.909996033 4.446703434 1 0.06 1.030 2024-06-16 15:23:53
8 51.909950256 4.446911812 1 13.80 1.030 2024-06-16 15:23:43
8 51.909877777 4.447664261 1 20.70 1.030 2024-06-16 15:23:33
8 51.909812927 4.448335171 1 13.15 1.030 2024-06-16 15:23:23
7 51.925449371 4.486433983 5 17.80 1.080 2024-06-16 15:23:19
8 51.909763336 4.448722839 1 10.13 1.030 2024-06-16 15:23:13
7 51.925041199 4.486254215 5 12.83 1.110 2024-06-16 15:23:08
8 51.909679413 4.449247837 1 16.15 1.030 2024-06-16 15:23:04
8 51.924972534 4.485661030 5 7.54 1.040 2024-06-16 15:22:58
8 51.909923553 4.449833870 1 17.80 1.040 2024-06-16 15:22:54
8 51.924930573 4.485438824 5 8.37 1.040 2024-06-16 15:22:29
8 51.910079956 4.450281620 1 0.06 1.040 2024-06-16 15:22:26
8 51.925010681 4.484887123 5 19.61 1.040 2024-06-16 15:22:18
7 51.910003662 4.450519562 1 14.56 1.840 2024-06-16 15:22:13
8 51.909801483 4.482543468 2 0.02 1.040 2024-06-16 15:22:09
8 51.925155640 4.483791828 5 29.56 1.040 2024-06-16 15:22:08
8 51.910633087 4.451883316 1 26.04 1.840 2024-06-16 15:22:04
6 51.909835815 4.482691288 3 1.13 1.180 2024-06-16 15:22:02
8 51.925426483 4.482625008 5 25.72 1.040 2024-06-16 15:21:59
8 51.925350189 4.481638432 5 3.52 1.040 2024-06-16 15:21:41
8 51.911643982 4.453514576 1 21.69 1.840 2024-06-16 15:21:33
8 51.925277710 4.481382370 5 11.41 1.040 2024-06-16 15:21:28
6 51.909645081 4.482764244 3 1.07 1.210 2024-06-16 15:21:22
8 51.911876678 4.454205990 1 17.34 1.840 2024-06-16 15:21:22
8 51.925079346 4.480857849 5 15.67 1.040 2024-06-16 15:21:19
8 51.924900055 4.480268002 5 16.11 1.040 2024-06-16 15:21:09
8 51.924816132 4.479702473 5 9.24 1.040 2024-06-16 15:20:59
8 51.911964417 4.454785347 1 0.44 1.840 2024-06-16 15:20:52
7 51.911968231 4.455078125 1 17.76 1.840 2024-06-16 15:20:42
8 51.924724579 4.479509830 5 4.07 1.040 2024-06-16 15:20:39
6 51.909805298 4.482313633 2 0.39 1.180 2024-06-16 15:20:39
8 51.912097931 4.455873966 1 19.45 1.840 2024-06-16 15:20:32
8 51.924587250 4.479309559 5 12.61 1.040 2024-06-16 15:20:29
8 51.912197113 4.456711292 1 18.80 1.840 2024-06-16 15:20:22
8 51.924411774 4.478849888 5 14.39 1.040 2024-06-16 15:20:20
8 51.912349701 4.457506657 1 20.89 1.840 2024-06-16 15:20:12
8 51.912540436 4.458192348 1 14.30 1.840 2024-06-16 15:20:02
9 51.909667969 4.482980728 3 0.96 0.920 2024-06-16 15:19:52
7 51.912593842 4.458565235 1 7.59 1.840 2024-06-16 15:19:42
9 51.924163818 4.478534222 5 4.78 0.920 2024-06-16 15:19:40
7 51.909797668 4.482594967 2 1.54 1.100 2024-06-16 15:19:38
8 51.912776947 4.459150791 1 19.89 1.840 2024-06-16 15:19:31
9 51.923931122 4.478322983 5 12.15 0.920 2024-06-16 15:19:28
8 51.912963867 4.459945202 1 19.91 1.830 2024-06-16 15:19:22
8 51.923656464 4.478465080 5 1.78 1.040 2024-06-16 15:19:19
8 51.913063049 4.460780621 1 13.98 1.830 2024-06-16 15:19:01
8 51.923519135 4.478627205 5 5.11 1.040 2024-06-16 15:18:58
8 51.913257599 4.461359024 1 22.41 1.830 2024-06-16 15:18:51
8 51.923206329 4.478799820 5 11.19 1.040 2024-06-16 15:18:49
8 51.922855377 4.478980064 5 19.35 1.040 2024-06-16 15:18:42
8 51.913440704 4.462226391 1 20.87 1.040 2024-06-16 15:18:42
8 51.913600922 4.463089466 1 23.13 1.040 2024-06-16 15:18:33
8 51.922328949 4.479096889 5 17.48 1.040 2024-06-16 15:18:28
8 51.913791656 4.463837147 1 14.19 1.040 2024-06-16 15:18:22
8 51.909934998 4.482659817 2 0.22 0.970 2024-06-16 15:18:20
8 51.921878815 4.479389668 5 19.74 1.040 2024-06-16 15:18:18
9 51.921333313 4.479512691 5 14.95 0.920 2024-06-16 15:18:08
9 51.909851074 4.482714176 3 1.06 0.920 2024-06-16 15:18:03
7 51.920932770 4.479406357 5 3.02 1.830 2024-06-16 15:17:59
8 51.913898468 4.464246273 1 8.83 1.050 2024-06-16 15:17:42
8 51.914031982 4.464974403 1 22.19 1.050 2024-06-16 15:17:32
9 51.920783997 4.479382992 5 0.96 1.000 2024-06-16 15:17:29
8 51.910099030 4.482665062 2 0.22 1.030 2024-06-16 15:17:28
9 51.914436340 4.465734959 1 21.20 0.920 2024-06-16 15:17:22
9 51.914867401 4.466109753 1 17.67 0.920 2024-06-16 15:17:11
9 51.915222168 4.466340065 1 5.58 0.920 2024-06-16 15:17:02
8 51.909698486 4.482672691 3 0.09 0.980 2024-06-16 15:16:52
8 51.915485382 4.466577053 1 18.72 0.980 2024-06-16 15:16:51
8 51.915809631 4.467432499 1 26.35 1.050 2024-06-16 15:16:44
7 51.909595490 4.482823372 3 1.41 1.100 2024-06-16 15:16:32
8 51.919960022 4.479259014 5 6.93 0.970 2024-06-16 15:16:26
8 51.920021057 4.478914261 5 11.91 1.050 2024-06-16 15:16:17
6 51.909412384 4.482667446 3 6.65 1.870 2024-06-16 15:16:11
7 51.919887543 4.478400707 5 7.37 1.150 2024-06-16 15:16:06
6 51.908924103 4.481910706 3 16.96 1.870 2024-06-16 15:16:02
7 51.909934998 4.482653618 2 0.87 1.090 2024-06-16 15:16:00
8 51.919708252 4.477869987 5 15.22 1.050 2024-06-16 15:15:56
8 51.919528961 4.475920200 5 12.41 1.090 2024-06-16 15:15:47
8 51.908969879 4.480515957 3 12.76 1.050 2024-06-16 15:15:29
9 51.909111023 4.480058670 3 11.45 0.920 2024-06-16 15:15:18
9 51.908931732 4.479554176 3 18.11 0.920 2024-06-16 15:15:08
8 51.909015656 4.478977203 3 15.07 1.050 2024-06-16 15:14:59
8 51.909400940 4.478638649 3 18.96 1.790 2024-06-16 15:14:49
7 51.910106659 4.482604027 2 0.39 1.090 2024-06-16 15:14:48
8 51.909858704 4.478347301 3 18.48 1.050 2024-06-16 15:14:38
8 51.919593811 4.472145081 1 24.93 1.050 2024-06-16 15:14:37
9 51.910285950 4.478225231 3 15.63 0.920 2024-06-16 15:14:28
8 51.920154572 4.472033978 1 20.00 1.050 2024-06-16 15:14:27
8 51.918380737 4.472601891 5 13.43 1.050 2024-06-16 15:14:27
8 51.920692444 4.471924305 1 19.54 1.050 2024-06-16 15:14:18
9 51.910743713 4.478116035 3 20.09 0.920 2024-06-16 15:14:18
8 51.917922974 4.472678185 5 17.84 1.050 2024-06-16 15:14:16
8 51.921184540 4.471762180 1 17.30 1.050 2024-06-16 15:14:08
9 51.911220551 4.477786541 3 18.09 0.920 2024-06-16 15:14:08
8 51.917438507 4.472897053 5 15.50 1.050 2024-06-16 15:14:06
8 51.922080994 4.471343517 1 22.02 1.050 2024-06-16 15:13:58
9 51.911689758 4.477763176 3 12.30 0.920 2024-06-16 15:13:58
9 51.917026520 4.473073483 5 13.63 0.920 2024-06-16 15:13:56
8 51.922248840 4.471264362 1 21.65 1.060 2024-06-16 15:13:52
9 51.911815643 4.478050709 3 0.46 0.920 2024-06-16 15:13:48
9 51.916690826 4.473378658 5 6.74 0.920 2024-06-16 15:13:47
9 51.922706604 4.471041679 1 15.96 0.920 2024-06-16 15:13:38
8 51.916576385 4.473539829 5 9.04 1.060 2024-06-16 15:13:36
9 51.911670685 4.478131771 3 0.33 0.920 2024-06-16 15:13:29
8 51.923099518 4.471120834 1 12.50 1.060 2024-06-16 15:13:27
8 51.916282654 4.473882198 5 16.52 1.060 2024-06-16 15:13:26
8 51.923381805 4.471150875 1 2.41 1.270 2024-06-16 15:13:18
9 51.911510468 4.478307247 3 0.41 0.920 2024-06-16 15:13:17
8 51.915870667 4.474330425 5 15.80 1.060 2024-06-16 15:13:16
8 51.915573120 4.474662304 5 14.33 1.060 2024-06-16 15:13:06
6 51.911533356 4.478573322 3 17.56 1.800 2024-06-16 15:12:58
9 51.915241241 4.475018978 5 13.57 0.920 2024-06-16 15:12:56
8 51.923557281 4.471234798 1 2.11 1.060 2024-06-16 15:12:50
8 51.912063599 4.479877949 3 24.82 1.060 2024-06-16 15:12:49
6 51.912216187 4.480885983 3 23.21 1.790 2024-06-16 15:12:39
8 51.909877777 4.482553482 2 0.02 0.980 2024-06-16 15:12:39
9 51.914955139 4.475154877 5 0.67 0.920 2024-06-16 15:12:37
6 51.924385071 4.471615314 1 22.95 1.790 2024-06-16 15:12:14
8 51.912563324 4.482409954 3 12.80 1.060 2024-06-16 15:12:13
8 51.912788391 4.482296944 3 0.20 1.060 2024-06-16 15:12:03
9 51.924453735 4.472656727 1 21.34 0.980 2024-06-16 15:12:00
9 51.914802551 4.475187302 5 1.45 0.920 2024-06-16 15:11:56
9 51.913188934 4.481974602 3 17.74 0.930 2024-06-16 15:11:50
8 51.924522400 4.473476410 1 18.82 1.060 2024-06-16 15:11:50
8 51.914539337 4.475241661 5 7.95 1.060 2024-06-16 15:11:49
6 51.924571991 4.474118710 1 16.72 1.270 2024-06-16 15:11:43
7 51.913768768 4.481913090 3 30.85 1.160 2024-06-16 15:11:33
7 51.924240112 4.474311829 1 8.85 1.160 2024-06-16 15:11:30
8 51.910011292 4.482584476 2 0.52 0.980 2024-06-16 15:11:28
8 51.914585114 4.481834888 3 32.37 0.970 2024-06-16 15:11:23
9 51.924030304 4.474583149 1 4.32 1.060 2024-06-16 15:11:20
6 51.915412903 4.481835842 3 33.93 1.860 2024-06-16 15:11:13
9 51.923896790 4.474624157 1 9.41 1.060 2024-06-16 15:11:11
9 51.916244507 4.481842041 3 25.56 0.930 2024-06-16 15:11:03
9 51.912960052 4.476591110 5 16.20 0.930 2024-06-16 15:11:03
9 51.923721313 4.474253178 1 5.33 1.130 2024-06-16 15:11:02
9 51.916645050 4.481879234 3 8.82 0.930 2024-06-16 15:10:53
8 51.912490845 4.476977825 5 20.15 1.060 2024-06-16 15:10:53
8 51.923511505 4.473972321 1 16.45 2.150 2024-06-16 15:10:50
8 51.911991119 4.477231026 5 17.11 1.060 2024-06-16 15:10:43
8 51.917060852 4.481657982 3 21.96 1.060 2024-06-16 15:10:42
9 51.923393250 4.473259926 1 15.30 0.930 2024-06-16 15:10:40
8 51.910186768 4.482599735 2 1.43 0.980 2024-06-16 15:10:38
9 51.917591095 4.481400013 3 16.69 1.520 2024-06-16 15:10:33
8 51.911678314 4.477393627 5 9.28 0.970 2024-06-16 15:10:33
8 51.918029785 4.481489658 3 12.07 1.060 2024-06-16 15:10:24
8 51.911411285 4.477208138 5 15.67 0.970 2024-06-16 15:10:23
7 51.910015106 4.482615471 2 2.87 1.040 2024-06-16 15:10:18
9 51.911216736 4.476594448 5 18.06 1.000 2024-06-16 15:10:13
7 51.918170929 4.482047081 3 1.43 1.910 2024-06-16 15:10:13
9 51.910999298 4.475919724 5 19.15 0.930 2024-06-16 15:10:03
9 51.923255920 4.472905159 1 11.59 1.510 2024-06-16 15:10:00
9 51.910755157 4.475205421 5 20.91 0.930 2024-06-16 15:09:53
7 51.918132782 4.482837677 3 9.09 1.100 2024-06-16 15:09:52
9 51.923130035 4.472179413 1 20.80 1.590 2024-06-16 15:09:49
8 51.918216705 4.483294487 3 18.56 1.070 2024-06-16 15:09:43
9 51.910514832 4.474448681 5 19.45 0.930 2024-06-16 15:09:43
9 51.922954559 4.471373081 1 17.15 0.930 2024-06-16 15:09:40
7 51.918334961 4.484238625 3 13.43 1.090 2024-06-16 15:09:33
9 51.910301208 4.473798275 5 18.04 0.930 2024-06-16 15:09:33
8 51.922203064 4.471040249 1 23.54 1.070 2024-06-16 15:09:30
9 51.910087585 4.473083496 5 19.34 0.930 2024-06-16 15:09:23
6 51.918453217 4.484963894 3 16.39 1.190 2024-06-16 15:09:22
9 51.922008514 4.471154213 1 19.58 1.070 2024-06-16 15:09:21
8 51.909736633 4.471954346 5 15.52 1.160 2024-06-16 15:09:15
8 51.921493530 4.471531868 1 15.93 1.070 2024-06-16 15:09:10
6 51.918430328 4.486207008 3 12.95 1.270 2024-06-16 15:09:09
9 51.921108246 4.471901894 1 19.91 0.930 2024-06-16 15:09:00
7 51.918869019 4.487459660 3 15.09 1.730 2024-06-16 15:08:44
9 51.909267426 4.470320702 5 22.35 0.930 2024-06-16 15:08:43
9 51.920619965 4.472086906 1 5.37 0.930 2024-06-16 15:08:39
9 51.909034729 4.469564915 5 20.76 0.930 2024-06-16 15:08:34
8 51.919193268 4.488111496 3 20.82 0.970 2024-06-16 15:08:32
9 51.920299530 4.472119331 1 16.56 0.930 2024-06-16 15:08:30
9 51.908824921 4.468811989 5 20.19 0.930 2024-06-16 15:08:24
8 51.919437408 4.488946438 3 7.80 1.080 2024-06-16 15:08:23
9 51.919857025 4.472212791 1 18.45 0.930 2024-06-16 15:08:21
9 51.908626556 4.468182564 5 15.06 0.930 2024-06-16 15:08:14
7 51.919662476 4.489462376 3 9.76 1.810 2024-06-16 15:08:12
9 51.919326782 4.472450256 1 21.08 0.930 2024-06-16 15:08:10
9 51.908454895 4.467601776 5 15.41 0.930 2024-06-16 15:08:05
7 51.919979095 4.489735126 3 9.67 1.720 2024-06-16 15:08:03
8 51.918888092 4.472739220 1 11.72 1.070 2024-06-16 15:07:59
5 51.920261383 4.490514755 3 2.07 1.730 2024-06-16 15:07:54
8 51.918777466 4.473328590 1 14.37 1.070 2024-06-16 15:07:50
9 51.918933868 4.473990440 1 16.61 0.930 2024-06-16 15:07:40
8 51.919078827 4.474617958 1 9.98 1.070 2024-06-16 15:07:30
8 51.919250488 4.475122929 1 14.85 1.070 2024-06-16 15:07:20
9 51.920791626 4.491837025 3 22.98 0.930 2024-06-16 15:07:18
8 51.919368744 4.475697517 1 9.45 1.070 2024-06-16 15:07:11
9 51.921169281 4.492648602 3 21.85 0.930 2024-06-16 15:07:05
7 51.919506073 4.476305485 1 20.04 1.700 2024-06-16 15:07:00
9 51.921455383 4.493550301 3 22.78 0.930 2024-06-16 15:06:56
8 51.919673920 4.477160931 1 16.07 1.070 2024-06-16 15:06:49
9 51.921726227 4.494371891 3 18.52 0.930 2024-06-16 15:06:46
8 51.919765472 4.477593899 1 16.17 1.070 2024-06-16 15:06:40
9 51.921997070 4.495139599 3 22.61 0.930 2024-06-16 15:06:35
8 51.919673920 4.478302956 1 22.52 1.070 2024-06-16 15:06:31
6 51.909858704 4.482696533 2 1.52 1.610 2024-06-16 15:06:30
9 51.922283173 4.495891094 3 20.59 0.930 2024-06-16 15:06:26
9 51.919776917 4.479168892 1 19.46 0.930 2024-06-16 15:06:20
9 51.922538757 4.496500969 3 18.35 0.930 2024-06-16 15:06:16
9 51.919448853 4.480030060 1 17.39 0.930 2024-06-16 15:06:14
9 51.922908783 4.497349739 3 3.11 0.930 2024-06-16 15:06:08
9 51.919044495 4.480114460 1 14.22 0.930 2024-06-16 15:05:50
9 51.923175812 4.497476578 3 12.91 0.930 2024-06-16 15:05:36
8 51.918708801 4.480180740 1 0.61 1.010 2024-06-16 15:05:30
7 51.918643951 4.480391026 1 5.15 1.080 2024-06-16 15:05:11
9 51.908287048 4.467153072 5 0.43 0.930 2024-06-16 15:05:03
8 51.918224335 4.480762959 1 19.76 1.010 2024-06-16 15:05:00
8 51.917743683 4.481260777 1 14.61 1.740 2024-06-16 15:04:49
7 51.923450470 4.497409344 3 0.35 1.080 2024-06-16 15:04:43
7 51.917182922 4.481681824 1 17.56 2.010 2024-06-16 15:04:40
7 51.917049408 4.481761456 1 22.46 1.140 2024-06-16 15:04:38
8 51.908191681 4.466971397 5 10.63 1.010 2024-06-16 15:04:34
8 51.907958984 4.466652393 5 9.02 1.010 2024-06-16 15:04:24
8 51.916378021 4.482065678 1 33.39 1.010 2024-06-16 15:04:20
8 51.907791138 4.466410160 5 12.43 1.010 2024-06-16 15:04:13
8 51.915512085 4.482156277 1 34.06 1.010 2024-06-16 15:04:11
9 51.923545837 4.497058392 3 9.80 1.080 2024-06-16 15:04:08
8 51.907634735 4.465851307 5 16.37 1.010 2024-06-16 15:04:03
6 51.914646149 4.482113361 1 33.73 1.850 2024-06-16 15:04:00
9 51.923847198 4.496819973 3 2.48 1.120 2024-06-16 15:03:58
8 51.913810730 4.482091427 1 31.85 1.140 2024-06-16 15:03:50
8 51.923835754 4.496366501 3 16.41 0.980 2024-06-16 15:03:48
7 51.913162231 4.482024193 1 25.02 1.140 2024-06-16 15:03:41
9 51.924057007 4.495854855 3 14.48 0.940 2024-06-16 15:03:39
7 51.912673950 4.482048988 1 15.67 1.140 2024-06-16 15:03:30
8 51.907474518 4.465267658 5 7.17 1.010 2024-06-16 15:03:23
8 51.924972534 4.496149063 3 21.85 0.980 2024-06-16 15:03:21
7 51.912437439 4.481847763 1 12.21 1.140 2024-06-16 15:03:20
7 51.909988403 4.482627392 2 0.33 1.000 2024-06-16 15:03:18
8 51.907165527 4.465051174 5 17.28 1.010 2024-06-16 15:03:13
9 51.925563812 4.496205330 3 23.17 1.080 2024-06-16 15:03:09
8 51.906837463 4.464613438 5 19.15 1.010 2024-06-16 15:03:03
9 51.926101685 4.496283054 3 15.11 1.080 2024-06-16 15:02:59
6 51.906677246 4.463889599 5 17.32 1.850 2024-06-16 15:02:54
8 51.912258148 4.481640816 1 6.61 1.010 2024-06-16 15:02:50
8 51.912166595 4.480989933 1 24.69 1.010 2024-06-16 15:02:41
8 51.912109375 4.479923725 1 27.50 1.080 2024-06-16 15:02:30
6 51.909843445 4.482543945 2 0.63 1.100 2024-06-16 15:02:29
8 51.905910492 4.461661816 5 20.56 1.010 2024-06-16 15:02:23
8 51.911849976 4.478900909 1 25.98 1.010 2024-06-16 15:02:20
8 51.905635834 4.460878849 5 20.96 1.010 2024-06-16 15:02:13
8 51.911590576 4.478055000 1 18.65 1.010 2024-06-16 15:02:10
8 51.905418396 4.460276604 5 12.24 1.010 2024-06-16 15:02:03
8 51.911258698 4.477639675 1 15.04 1.010 2024-06-16 15:01:59
8 51.926391602 4.496397018 3 4.11 1.090 2024-06-16 15:01:58
8 51.905357361 4.460039139 5 1.91 1.010 2024-06-16 15:01:53
8 51.911079407 4.477727890 1 0.06 1.010 2024-06-16 15:01:49
8 51.905273438 4.459731102 5 11.32 1.010 2024-06-16 15:01:44
8 51.910800934 4.477852345 1 21.56 1.010 2024-06-16 15:01:39
7 51.905040741 4.458978653 5 25.39 1.150 2024-06-16 15:01:33
8 51.910274506 4.478244305 1 19.61 1.010 2024-06-16 15:01:30
7 51.904754639 4.457874298 5 26.98 1.150 2024-06-16 15:01:23
9 51.928020477 4.496612549 3 22.65 0.940 2024-06-16 15:01:21
7 51.909740448 4.478230000 1 18.87 1.150 2024-06-16 15:01:20
8 51.904407501 4.456735611 5 25.43 1.010 2024-06-16 15:01:13
9 51.928550720 4.496826172 3 20.67 0.940 2024-06-16 15:01:10
7 51.909252167 4.478601456 1 14.76 1.150 2024-06-16 15:01:10
8 51.904102325 4.455816269 5 19.11 1.010 2024-06-16 15:01:04
7 51.908935547 4.478938103 1 16.72 1.150 2024-06-16 15:01:00
8 51.909706116 4.482543468 2 0.68 0.980 2024-06-16 15:00:59
8 51.903934479 4.454960346 5 18.45 1.010 2024-06-16 15:00:54
9 51.928905487 4.497140884 3 6.98 0.940 2024-06-16 15:00:51
7 51.908855438 4.479445934 1 18.89 1.150 2024-06-16 15:00:49
8 51.903781891 4.454277992 5 17.52 1.010 2024-06-16 15:00:44
8 51.929313660 4.497085571 3 21.76 1.090 2024-06-16 15:00:40
8 51.909156799 4.480329990 1 21.84 1.010 2024-06-16 15:00:40
9 51.932308197 4.497522831 3 14.48 0.940 2024-06-16 15:00:31
8 51.909408569 4.481144905 1 21.85 1.010 2024-06-16 15:00:30
8 51.903675079 4.453609943 5 6.67 1.010 2024-06-16 15:00:24
8 51.909687042 4.481831074 1 16.95 1.010 2024-06-16 15:00:20
8 51.903606415 4.453077793 5 17.93 1.010 2024-06-16 15:00:13
7 51.909790039 4.482540607 1 11.52 1.170 2024-06-16 15:00:11
8 51.903469086 4.452298641 5 17.32 1.010 2024-06-16 15:00:03
8 51.903423309 4.451425076 5 23.41 1.010 2024-06-16 14:59:53
8 51.903442383 4.450455666 5 26.28 1.010 2024-06-16 14:59:44
7 51.932613373 4.496089458 3 17.59 2.830 2024-06-16 14:59:35
7 51.903598785 4.449468613 5 21.91 1.090 2024-06-16 14:59:34
8 51.903762817 4.448617935 5 20.84 1.010 2024-06-16 14:59:25
7 51.932640076 4.495867729 3 20.95 2.830 2024-06-16 14:59:24
7 51.903972626 4.447830677 5 19.61 1.020 2024-06-16 14:59:14
9 51.932762146 4.494932175 3 19.56 0.940 2024-06-16 14:59:14
9 51.909832001 4.482720852 2 0.89 0.940 2024-06-16 14:59:08
9 51.932739258 4.494107723 3 19.50 0.940 2024-06-16 14:59:04
9 51.932849884 4.493292332 3 22.32 0.940 2024-06-16 14:58:56
8 51.904201508 4.447036266 5 4.80 1.010 2024-06-16 14:58:54
7 51.904312134 4.446647644 5 14.87 1.020 2024-06-16 14:58:44
8 51.932964325 4.492381573 3 22.96 1.090 2024-06-16 14:58:44
8 51.933055878 4.491415024 3 24.56 1.090 2024-06-16 14:58:34
8 51.904468536 4.446033955 5 19.54 1.010 2024-06-16 14:58:33
9 51.933071136 4.490498066 3 23.80 0.940 2024-06-16 14:58:24
8 51.933044434 4.489514828 3 24.22 1.040 2024-06-16 14:58:15
7 51.904899597 4.445415020 5 3.04 1.020 2024-06-16 14:58:14
9 51.933013916 4.488732338 3 15.37 0.940 2024-06-16 14:58:04
8 51.905097961 4.445232868 5 13.33 1.010 2024-06-16 14:58:04
8 51.905513763 4.445204258 5 21.76 1.010 2024-06-16 14:57:57
9 51.932651520 4.488174438 3 16.19 0.940 2024-06-16 14:57:54
7 51.906116486 4.445454597 5 26.13 1.160 2024-06-16 14:57:44
9 51.932289124 4.487424374 3 20.43 0.940 2024-06-16 14:57:44
8 51.906768799 4.445681095 5 26.84 1.010 2024-06-16 14:57:34
7 51.931804657 4.487080097 3 24.19 1.860 2024-06-16 14:57:34
9 51.930587769 4.486303329 3 24.85 1.100 2024-06-16 14:57:24
8 51.907463074 4.445752144 5 27.50 1.010 2024-06-16 14:57:24
8 51.908187866 4.445803165 5 24.63 1.010 2024-06-16 14:57:13
7 51.908805847 4.445878506 5 24.67 1.110 2024-06-16 14:57:03
8 51.909442902 4.445952415 5 21.45 1.010 2024-06-16 14:56:53
7 51.909877777 4.445958614 5 14.30 1.150 2024-06-16 14:56:43
9 51.928680420 4.486640930 3 17.07 0.950 2024-06-16 14:56:40
8 51.910030365 4.446290970 5 9.19 1.010 2024-06-16 14:56:34
9 51.928237915 4.486625195 3 24.89 0.950 2024-06-16 14:56:30
9 51.927639008 4.486649036 3 15.06 0.950 2024-06-16 14:56:19
7 51.909690857 4.482777596 2 1.61 1.080 2024-06-16 14:56:18
8 51.909969330 4.446576118 5 0.85 1.010 2024-06-16 14:56:15
9 51.927249908 4.486543179 3 15.46 0.950 2024-06-16 14:56:10
9 51.926856995 4.486592770 3 8.31 0.950 2024-06-16 14:56:00
7 51.909706116 4.482518196 2 4.96 1.080 2024-06-16 14:55:58
8 51.926605225 4.486627102 3 8.87 0.980 2024-06-16 14:55:51
6 51.909561157 4.482168198 2 14.21 1.810 2024-06-16 14:55:48
9 51.926319122 4.486632347 3 17.67 0.950 2024-06-16 14:55:40
6 51.909263611 4.481692791 2 18.87 1.810 2024-06-16 14:55:38
9 51.925823212 4.486549377 3 20.52 0.950 2024-06-16 14:55:29
7 51.908954620 4.481118679 2 13.67 1.080 2024-06-16 14:55:28
8 51.909858704 4.446735382 5 3.02 1.010 2024-06-16 14:55:24
9 51.925399780 4.486516953 3 17.15 0.950 2024-06-16 14:55:19
7 51.909072876 4.480591774 2 10.02 1.150 2024-06-16 14:55:19
7 51.909843445 4.447226048 5 19.22 1.150 2024-06-16 14:55:14
9 51.925064087 4.486382484 3 9.09 0.950 2024-06-16 14:55:10
9 51.909191132 4.480188847 2 8.43 0.950 2024-06-16 14:55:09
9 51.909816742 4.448259830 5 11.33 0.860 2024-06-16 14:55:05
7 51.909049988 4.479817390 2 19.32 1.090 2024-06-16 14:54:58
8 51.909145355 4.478841305 2 15.32 1.030 2024-06-16 14:54:40
9 51.925010681 4.485724449 3 0.94 0.950 2024-06-16 14:54:30
9 51.909572601 4.478581905 2 20.54 0.970 2024-06-16 14:54:28
8 51.924980164 4.485254288 3 13.00 1.100 2024-06-16 14:54:20
9 51.910034180 4.478163719 2 14.37 0.950 2024-06-16 14:54:19
9 51.909744263 4.482910633 1 0.24 0.860 2024-06-16 14:54:12
9 51.910419464 4.478212833 2 17.48 0.950 2024-06-16 14:54:09
10 51.910915375 4.477876186 2 22.26 0.800 2024-06-16 14:53:58
9 51.911331177 4.477643490 2 13.15 0.950 2024-06-16 14:53:49
10 51.925434113 4.482937813 3 26.30 0.800 2024-06-16 14:53:45
10 51.925407410 4.481704712 3 0.56 0.800 2024-06-16 14:53:34
9 51.911582947 4.478026867 2 0.26 0.950 2024-06-16 14:53:08
8 51.924919128 4.480176926 3 17.89 0.990 2024-06-16 14:52:58
7 51.924762726 4.479601383 3 5.24 1.020 2024-06-16 14:52:42
8 51.924667358 4.479399204 3 6.82 1.330 2024-06-16 14:52:22
9 51.911663055 4.478219986 2 6.50 0.950 2024-06-16 14:52:18
9 51.924430847 4.478489876 3 11.61 0.950 2024-06-16 14:52:11
9 51.911758423 4.478470325 2 1.19 1.010 2024-06-16 14:51:58
7 51.924335480 4.478186131 3 1.39 1.130 2024-06-16 14:51:42
9 51.911846161 4.478731155 2 4.48 0.950 2024-06-16 14:51:38
9 51.911987305 4.479155064 2 18.09 0.950 2024-06-16 14:51:29
8 51.924209595 4.478052139 3 7.17 1.110 2024-06-16 14:51:22
9 51.912147522 4.480023861 2 24.72 0.950 2024-06-16 14:51:18
9 51.923965454 4.477772713 3 9.48 1.110 2024-06-16 14:51:12
9 51.912155151 4.481024265 2 19.08 0.950 2024-06-16 14:51:08
9 51.923713684 4.477847576 3 4.69 1.110 2024-06-16 14:51:02
9 51.912075043 4.481775761 2 14.26 0.950 2024-06-16 14:50:58
8 51.912216187 4.482187271 2 12.46 1.090 2024-06-16 14:50:48
8 51.909793854 4.482703209 1 0.11 0.950 2024-06-16 14:50:43
8 51.912006378 4.482255459 2 2.09 1.100 2024-06-16 14:50:38
7 51.911823273 4.482304573 2 19.76 1.080 2024-06-16 14:50:28
8 51.923587799 4.477987289 3 0.15 0.990 2024-06-16 14:50:22
7 51.911266327 4.482535839 2 24.15 1.160 2024-06-16 14:50:19
9 51.923469543 4.478130341 3 4.56 0.980 2024-06-16 14:50:12
8 51.910732269 4.482902050 2 23.54 0.930 2024-06-16 14:50:08
9 51.923118591 4.478392601 3 13.15 0.950 2024-06-16 14:50:02
9 51.910026550 4.484509945 2 30.71 0.950 2024-06-16 14:49:58
9 51.922435760 4.478624344 3 8.37 0.950 2024-06-16 14:49:53
8 51.909908295 4.484833717 2 28.19 0.990 2024-06-16 14:49:48
9 51.909164429 4.486590385 2 34.23 0.950 2024-06-16 14:49:38
9 51.908500671 4.488436699 2 22.37 0.960 2024-06-16 14:49:34
10 51.920490265 4.479693413 3 16.50 0.810 2024-06-16 14:49:11
9 51.909946442 4.482649326 1 0.26 0.860 2024-06-16 14:49:00
8 51.920196533 4.479946136 3 12.67 1.110 2024-06-16 14:48:52
5 51.919967651 4.480183601 3 11.07 2.050 2024-06-16 14:48:43
9 51.907615662 4.490665436 2 21.80 0.980 2024-06-16 14:48:40
8 51.916351318 4.469968319 5 23.87 1.010 2024-06-16 14:48:31
4 51.919982910 4.478745937 3 9.70 4.290 2024-06-16 14:48:22
7 51.919864655 4.478414059 3 8.02 1.180 2024-06-16 14:48:12
8 51.907447815 4.491301060 2 0.85 1.120 2024-06-16 14:48:09
9 51.919734955 4.477974415 3 10.46 0.960 2024-06-16 14:48:03
8 51.919696808 4.477387905 3 4.70 1.120 2024-06-16 14:47:53
8 51.919548035 4.476994991 3 7.37 1.160 2024-06-16 14:47:43
7 51.907302856 4.491275787 2 0.17 1.420 2024-06-16 14:47:40
8 51.919414520 4.476676464 3 11.07 1.120 2024-06-16 14:47:32
8 51.919406891 4.476153851 3 10.00 1.280 2024-06-16 14:47:24
9 51.919471741 4.475813389 3 5.32 0.960 2024-06-16 14:47:13
7 51.906997681 4.492268562 2 18.93 1.160 2024-06-16 14:46:55
9 51.919326782 4.474883080 3 15.91 0.960 2024-06-16 14:46:53
10 51.919197083 4.474137783 3 14.13 0.810 2024-06-16 14:46:43
9 51.906364441 4.493477345 2 22.65 0.860 2024-06-16 14:46:37
9 51.918972015 4.473677635 3 15.30 0.960 2024-06-16 14:46:32
7 51.906196594 4.494067669 2 14.26 1.570 2024-06-16 14:46:26
9 51.918842316 4.473043919 3 16.43 0.960 2024-06-16 14:46:22
8 51.906555176 4.494273186 2 15.46 1.040 2024-06-16 14:46:16
9 51.918704987 4.472457886 3 10.61 0.960 2024-06-16 14:46:12
8 51.907066345 4.494446278 2 13.46 1.090 2024-06-16 14:46:07
9 51.918411255 4.472456455 3 3.56 0.960 2024-06-16 14:46:04
7 51.907573700 4.494581223 2 13.09 1.090 2024-06-16 14:45:55
7 51.908016205 4.494198799 2 9.28 1.270 2024-06-16 14:45:46
10 51.917537689 4.472692490 3 24.76 0.810 2024-06-16 14:45:37
9 51.923645020 4.471167564 5 6.48 1.160 2024-06-16 14:45:36
8 51.908271790 4.493919373 2 5.02 1.090 2024-06-16 14:45:36
9 51.916996002 4.472916126 3 16.87 0.960 2024-06-16 14:45:26
7 51.908245087 4.493665218 2 11.74 1.090 2024-06-16 14:45:25
8 51.909812927 4.482701302 1 0.35 0.940 2024-06-16 14:45:20
10 51.916667938 4.473206043 3 15.17 0.860 2024-06-16 14:45:16
8 51.908035278 4.492757320 2 18.82 1.160 2024-06-16 14:45:14
10 51.916320801 4.473592758 3 16.56 0.810 2024-06-16 14:45:07
8 51.908046722 4.492224216 2 15.07 1.160 2024-06-16 14:45:06
10 51.916004181 4.473890781 3 8.95 0.810 2024-06-16 14:44:57
10 51.915874481 4.474107742 3 10.82 0.810 2024-06-16 14:44:47
8 51.915550232 4.474555016 3 18.67 1.120 2024-06-16 14:44:37
10 51.915084839 4.474845409 3 15.89 0.810 2024-06-16 14:44:27
9 51.914699554 4.475106239 3 20.72 0.980 2024-06-16 14:44:16
8 51.914081573 4.475513935 3 28.50 1.460 2024-06-16 14:44:06
10 51.913387299 4.475992203 3 27.28 0.960 2024-06-16 14:43:56
9 51.912734985 4.476559639 3 28.50 0.960 2024-06-16 14:43:46
9 51.923900604 4.470951557 5 5.98 0.860 2024-06-16 14:43:44
9 51.908740997 4.487480164 2 13.28 0.860 2024-06-16 14:43:42
10 51.912124634 4.477046013 3 21.09 0.810 2024-06-16 14:43:36
8 51.909072876 4.486742020 2 30.23 0.940 2024-06-16 14:43:30
9 51.911731720 4.477341175 3 12.89 0.850 2024-06-16 14:43:26
8 51.909404755 4.485878468 2 22.34 1.010 2024-06-16 14:43:20
10 51.911453247 4.477110863 3 15.22 0.810 2024-06-16 14:43:17
8 51.924064636 4.471096516 5 0.96 1.010 2024-06-16 14:43:14
8 51.909713745 4.485084057 2 24.45 1.010 2024-06-16 14:43:11
9 51.911220551 4.476494312 3 17.11 1.010 2024-06-16 14:43:07
8 51.924209595 4.471261024 5 6.00 1.010 2024-06-16 14:43:07
9 51.910041809 4.484271526 2 20.20 0.860 2024-06-16 14:43:01
8 51.924545288 4.471891880 5 19.32 1.070 2024-06-16 14:42:59
9 51.911010742 4.475910664 3 14.65 0.960 2024-06-16 14:42:56
8 51.910282135 4.483699799 2 13.61 0.980 2024-06-16 14:42:51
8 51.924583435 4.472127914 5 20.35 0.950 2024-06-16 14:42:49
10 51.910842896 4.475332260 3 14.52 0.810 2024-06-16 14:42:47
7 51.910488129 4.483173847 2 13.30 1.060 2024-06-16 14:42:41
10 51.910697937 4.474832535 3 15.45 0.810 2024-06-16 14:42:36
9 51.924602509 4.473174095 5 15.19 0.860 2024-06-16 14:42:33
7 51.910778046 4.482726097 2 20.15 1.510 2024-06-16 14:42:32
9 51.910511017 4.474179268 3 16.35 0.960 2024-06-16 14:42:26
9 51.924499512 4.473821163 5 17.84 0.860 2024-06-16 14:42:23
8 51.911319733 4.482357979 2 22.50 0.980 2024-06-16 14:42:20
9 51.910331726 4.473535538 3 17.04 0.960 2024-06-16 14:42:17
9 51.924606323 4.474320889 5 12.93 0.860 2024-06-16 14:42:17
7 51.911853790 4.482193947 2 21.67 1.060 2024-06-16 14:42:11
9 51.910179138 4.472976208 3 16.57 0.960 2024-06-16 14:42:07
8 51.924423218 4.474722862 5 11.26 1.510 2024-06-16 14:42:03
9 51.912277222 4.482056618 2 11.19 0.860 2024-06-16 14:42:01
9 51.910007477 4.472350597 3 15.11 0.850 2024-06-16 14:41:57
9 51.924057007 4.474741936 5 11.57 0.860 2024-06-16 14:41:53
10 51.909893036 4.471864700 3 13.09 0.810 2024-06-16 14:41:47
9 51.923812866 4.474869728 5 4.00 0.860 2024-06-16 14:41:43
9 51.912559509 4.482107162 2 0.35 0.860 2024-06-16 14:41:40
9 51.909820557 4.471409798 3 12.46 0.850 2024-06-16 14:41:38
9 51.923660278 4.474499226 5 7.61 0.860 2024-06-16 14:41:33
9 51.909698486 4.470878601 3 16.93 0.860 2024-06-16 14:41:28
7 51.923473358 4.474229336 5 7.98 1.150 2024-06-16 14:41:23
9 51.912708282 4.482214451 2 4.72 0.860 2024-06-16 14:41:21
10 51.909416199 4.470245838 3 20.28 1.180 2024-06-16 14:41:16
9 51.923431396 4.473729610 5 14.09 0.860 2024-06-16 14:41:14
10 51.909221649 4.469646454 3 13.02 0.810 2024-06-16 14:41:06
9 51.913005829 4.482130527 2 18.63 0.860 2024-06-16 14:41:01
10 51.909004211 4.469171524 3 14.98 0.810 2024-06-16 14:40:56
8 51.923389435 4.473071098 5 1.91 1.940 2024-06-16 14:40:54
8 51.913581848 4.482096672 2 28.06 0.980 2024-06-16 14:40:51
10 51.908802032 4.468628883 3 14.85 0.960 2024-06-16 14:40:48
6 51.914283752 4.481986046 2 27.22 2.580 2024-06-16 14:40:40
10 51.908607483 4.468089104 3 15.61 0.810 2024-06-16 14:40:37
9 51.923248291 4.473064899 5 2.19 1.600 2024-06-16 14:40:34
7 51.915012360 4.481877327 2 29.50 1.490 2024-06-16 14:40:30
9 51.908432007 4.467621326 3 8.91 0.960 2024-06-16 14:40:27
9 51.923122406 4.472823620 5 13.19 1.010 2024-06-16 14:40:24
7 51.915786743 4.481795788 2 30.11 1.490 2024-06-16 14:40:21
10 51.908290863 4.467275620 3 9.98 0.810 2024-06-16 14:40:17
9 51.922977448 4.472178459 5 17.07 1.010 2024-06-16 14:40:13
9 51.916477203 4.481746197 2 23.65 0.860 2024-06-16 14:40:12
9 51.909679413 4.482600212 1 0.37 0.940 2024-06-16 14:40:10
10 51.908111572 4.466889858 3 11.22 0.810 2024-06-16 14:40:09
7 51.922805786 4.471633434 5 13.46 1.290 2024-06-16 14:40:04
9 51.917057037 4.481597424 2 21.61 0.860 2024-06-16 14:40:01
10 51.907878876 4.466506958 3 12.37 0.810 2024-06-16 14:39:57
7 51.922134399 4.471303463 5 21.46 2.260 2024-06-16 14:39:54
9 51.917598724 4.481210709 2 18.63 0.860 2024-06-16 14:39:52
8 51.921920776 4.471405983 5 17.70 1.170 2024-06-16 14:39:51
10 51.907699585 4.466078758 3 14.85 0.810 2024-06-16 14:39:46
9 51.918033600 4.481152534 2 14.21 1.040 2024-06-16 14:39:40
10 51.907642365 4.465541840 3 14.30 0.810 2024-06-16 14:39:36
8 51.921489716 4.471773148 5 14.00 1.010 2024-06-16 14:39:33
6 51.918701172 4.485229969 2 2.46 2.270 2024-06-16 14:39:32
10 51.907394409 4.465166569 3 16.72 0.810 2024-06-16 14:39:26
8 51.921058655 4.472063541 5 17.98 1.010 2024-06-16 14:39:23
10 51.906982422 4.464851379 3 20.17 0.810 2024-06-16 14:39:17
8 51.920669556 4.472197533 5 6.22 1.010 2024-06-16 14:39:15
6 51.920528412 4.472229958 5 10.67 2.270 2024-06-16 14:39:04
8 51.906394958 4.462770462 3 20.87 0.980 2024-06-16 14:38:51
8 51.919639587 4.472399712 5 17.39 1.010 2024-06-16 14:38:48
10 51.906063080 4.462014675 3 22.74 0.820 2024-06-16 14:38:41
8 51.919208527 4.472584248 5 12.89 1.010 2024-06-16 14:38:33
10 51.905735016 4.461196899 3 22.85 0.820 2024-06-16 14:38:31
7 51.918960571 4.472875118 5 10.93 1.170 2024-06-16 14:38:23
10 51.905479431 4.460430145 3 16.80 0.820 2024-06-16 14:38:21
7 51.919033051 4.473524094 5 18.26 1.170 2024-06-16 14:38:13
8 51.919078827 4.487138271 2 22.52 1.010 2024-06-16 14:38:07
8 51.919498444 4.474950790 5 14.82 1.010 2024-06-16 14:37:59
9 51.919666290 4.488535404 2 9.95 0.860 2024-06-16 14:37:57
9 51.919647217 4.475582600 5 16.43 0.860 2024-06-16 14:37:43
9 51.909828186 4.482692242 1 0.06 0.860 2024-06-16 14:37:40
7 51.919826508 4.476148129 5 14.91 1.260 2024-06-16 14:37:33
7 51.919834137 4.476890564 5 16.98 1.170 2024-06-16 14:37:23
4 51.920200348 4.489596844 2 17.72 3.400 2024-06-16 14:37:21
8 51.905342102 4.460031986 3 1.82 0.960 2024-06-16 14:37:21
9 51.919776917 4.477584839 5 10.67 0.980 2024-06-16 14:37:13
7 51.905189514 4.459659100 3 16.76 1.070 2024-06-16 14:37:11
9 51.919719696 4.478415966 5 18.59 0.860 2024-06-16 14:37:03
8 51.904918671 4.458847523 3 23.37 0.970 2024-06-16 14:37:00
8 51.904647827 4.457898617 3 24.21 0.970 2024-06-16 14:36:50
8 51.904350281 4.456952572 3 25.89 0.970 2024-06-16 14:36:41
9 51.919631958 4.480350018 5 11.54 0.980 2024-06-16 14:36:37
9 51.921413422 4.493385315 2 27.06 0.860 2024-06-16 14:36:32
8 51.904155731 4.455988407 3 24.61 0.970 2024-06-16 14:36:31
8 51.921844482 4.494816780 2 19.17 1.040 2024-06-16 14:36:22
8 51.903976440 4.455053329 3 23.02 0.970 2024-06-16 14:36:21
8 51.903850555 4.454255104 3 18.87 0.970 2024-06-16 14:36:11
8 51.903766632 4.453654766 3 10.54 0.970 2024-06-16 14:35:51
8 51.909694672 4.482763290 1 0.63 0.940 2024-06-16 14:35:50
9 51.918388367 4.481077194 5 14.76 0.940 2024-06-16 14:35:49
8 51.903594971 4.452852726 3 24.74 0.970 2024-06-16 14:35:41
9 51.917934418 4.481359482 5 20.59 0.860 2024-06-16 14:35:38
7 51.903465271 4.451850414 3 23.28 0.980 2024-06-16 14:35:30
9 51.917377472 4.481701851 5 18.70 0.860 2024-06-16 14:35:26
8 51.903453827 4.450831890 3 22.17 0.970 2024-06-16 14:35:20
8 51.916854858 4.482035637 5 30.80 0.970 2024-06-16 14:35:19
9 51.922943115 4.497283459 2 8.20 0.860 2024-06-16 14:35:15
8 51.903572083 4.449878693 3 23.98 0.970 2024-06-16 14:35:11
8 51.915992737 4.482364178 5 32.63 0.980 2024-06-16 14:35:07
9 51.923126221 4.497458935 2 10.52 0.860 2024-06-16 14:35:05
8 51.903732300 4.448878765 3 26.13 0.970 2024-06-16 14:35:01
7 51.915126801 4.482437134 5 24.34 1.090 2024-06-16 14:34:57
8 51.923419952 4.497205257 2 14.61 1.040 2024-06-16 14:34:55
8 51.903961182 4.447934151 3 21.58 0.970 2024-06-16 14:34:51
7 51.914409637 4.482351780 5 24.89 1.140 2024-06-16 14:34:48
9 51.923805237 4.496878624 2 4.80 0.860 2024-06-16 14:34:47
8 51.904159546 4.447263718 3 12.37 0.970 2024-06-16 14:34:41
9 51.913665771 4.482273579 5 24.98 0.860 2024-06-16 14:34:37
9 51.923995972 4.495972157 2 11.48 0.860 2024-06-16 14:34:36
8 51.913005829 4.482144833 5 13.11 1.260 2024-06-16 14:34:27
8 51.904273987 4.446866512 3 11.91 0.970 2024-06-16 14:34:21
8 51.912658691 4.482100010 5 14.69 1.040 2024-06-16 14:34:17
8 51.904441833 4.446203232 3 17.56 0.970 2024-06-16 14:34:11
9 51.912292480 4.482058048 5 10.32 0.940 2024-06-16 14:34:07
8 51.904670715 4.445679188 3 15.35 0.980 2024-06-16 14:34:01
9 51.925556183 4.496190071 2 22.67 0.860 2024-06-16 14:33:58
9 51.912162781 4.481674194 5 17.39 0.860 2024-06-16 14:33:57
8 51.912143707 4.480921745 5 18.15 1.000 2024-06-16 14:33:48
8 51.926361084 4.496353149 2 11.37 1.000 2024-06-16 14:33:48
8 51.912094116 4.480086803 5 21.04 1.000 2024-06-16 14:33:37
8 51.909709930 4.482982635 1 0.39 0.940 2024-06-16 14:33:29
8 51.911922455 4.479312897 5 19.65 1.000 2024-06-16 14:33:27
8 51.904918671 4.445411682 3 0.35 0.980 2024-06-16 14:33:21
9 51.911693573 4.478603840 5 22.11 0.980 2024-06-16 14:33:18
7 51.927074432 4.496675014 2 30.28 1.170 2024-06-16 14:33:15
7 51.905067444 4.445317268 3 14.45 0.980 2024-06-16 14:33:11
9 51.911479950 4.477916718 5 16.32 0.860 2024-06-16 14:33:08
8 51.927825928 4.496706486 2 22.84 1.000 2024-06-16 14:33:04
5 51.905498505 4.445147038 3 27.84 1.510 2024-06-16 14:33:01
8 51.928318024 4.496516705 2 23.78 1.000 2024-06-16 14:32:55
6 51.906162262 4.445495605 3 27.30 1.090 2024-06-16 14:32:54
8 51.906833649 4.445631027 3 24.41 0.980 2024-06-16 14:32:40
8 51.928848267 4.496907711 2 0.78 0.940 2024-06-16 14:32:34
8 51.907459259 4.445731640 3 24.28 0.980 2024-06-16 14:32:31
7 51.929164886 4.497011185 2 19.54 1.050 2024-06-16 14:32:26
9 51.909736633 4.478539467 5 21.58 0.860 2024-06-16 14:32:21
8 51.908100128 4.445772648 3 24.56 0.980 2024-06-16 14:32:20
8 51.929679871 4.496983528 2 22.89 1.000 2024-06-16 14:32:16
8 51.908744812 4.445847034 3 25.78 0.980 2024-06-16 14:32:11
8 51.909248352 4.479001045 5 16.06 1.040 2024-06-16 14:32:09
8 51.930206299 4.497099876 2 16.85 1.000 2024-06-16 14:32:05
8 51.909385681 4.445885658 3 20.70 0.980 2024-06-16 14:32:01
7 51.909008026 4.479298115 5 10.35 1.170 2024-06-16 14:31:59
6 51.908985138 4.480031967 5 17.61 1.310 2024-06-16 14:31:51
8 51.909805298 4.446017265 3 15.89 0.980 2024-06-16 14:31:51
8 51.930618286 4.497242451 2 3.85 0.860 2024-06-16 14:31:44
8 51.909881592 4.446361065 3 12.07 0.980 2024-06-16 14:31:41
9 51.909210205 4.480687141 5 12.04 0.860 2024-06-16 14:31:39
8 51.930789948 4.497247696 2 14.72 0.980 2024-06-16 14:31:35
9 51.909458160 4.481350422 5 19.41 0.860 2024-06-16 14:31:29
8 51.931144714 4.497313023 2 12.78 0.940 2024-06-16 14:31:25
8 51.909660339 4.481968880 5 15.74 0.980 2024-06-16 14:31:19
9 51.931499481 4.497344494 2 12.21 0.860 2024-06-16 14:31:15
8 51.909908295 4.446732521 3 1.37 0.990 2024-06-16 14:31:10
9 51.931785583 4.497390270 2 8.43 0.860 2024-06-16 14:31:06
8 51.909923553 4.447116375 3 15.57 0.990 2024-06-16 14:31:01
7 51.909854889 4.447853565 3 16.35 1.080 2024-06-16 14:30:51
7 51.909832001 4.482866764 1 0.24 1.410 2024-06-16 14:30:51
7 51.909786224 4.482430935 5 0.28 1.410 2024-06-16 14:30:50
8 51.909774780 4.448554516 3 15.56 0.990 2024-06-16 14:30:41
9 51.932079315 4.497444630 2 2.76 0.860 2024-06-16 14:30:35
8 51.909687042 4.449164867 3 14.11 0.990 2024-06-16 14:30:32
9 51.932277679 4.497486591 2 9.85 0.860 2024-06-16 14:30:25
8 51.909694672 4.449753284 3 13.59 0.990 2024-06-16 14:30:21
9 51.932682037 4.497450352 2 9.41 0.870 2024-06-16 14:30:15
8 51.909931183 4.450255394 3 12.61 0.990 2024-06-16 14:30:11
9 51.932777405 4.497024536 2 3.65 0.870 2024-06-16 14:29:55
8 51.910152435 4.450531483 3 4.78 0.990 2024-06-16 14:29:51
8 51.932708740 4.496780396 2 5.67 0.920 2024-06-16 14:29:45
8 51.910297394 4.450912476 3 17.93 0.990 2024-06-16 14:29:42
8 51.910655975 4.451484203 3 19.74 0.990 2024-06-16 14:29:31
7 51.911018372 4.452199459 3 19.13 1.320 2024-06-16 14:29:21
7 51.932678223 4.496413708 2 0.57 1.320 2024-06-16 14:29:15
7 51.911369324 4.452848434 3 21.93 1.320 2024-06-16 14:29:11
8 51.911735535 4.453482151 3 19.09 0.990 2024-06-16 14:29:01
7 51.912017822 4.454121113 3 12.24 1.000 2024-06-16 14:28:51
8 51.932647705 4.496176720 2 3.31 0.990 2024-06-16 14:28:45
7 51.912166595 4.454544544 3 3.80 1.330 2024-06-16 14:28:40
7 51.932678223 4.495860100 2 4.61 1.170 2024-06-16 14:28:25
8 51.912231445 4.454862595 3 1.39 1.000 2024-06-16 14:28:21
7 51.909660339 4.482834816 1 0.24 1.400 2024-06-16 14:28:20
8 51.912288666 4.455120564 3 4.28 1.000 2024-06-16 14:28:11
7 51.912441254 4.455728531 3 12.28 1.340 2024-06-16 14:28:00
8 51.909797668 4.482834339 1 0.33 0.940 2024-06-16 14:28:00
5 51.932781219 4.495684147 2 4.02 4.180 2024-06-16 14:27:54
8 51.912578583 4.456521034 3 14.74 1.000 2024-06-16 14:27:51
5 51.932777405 4.495399952 2 13.35 4.180 2024-06-16 14:27:44
7 51.912723541 4.457244396 3 17.56 1.340 2024-06-16 14:27:41
9 51.932723999 4.494791985 2 11.48 1.000 2024-06-16 14:27:34
7 51.912902832 4.458195686 3 20.54 1.340 2024-06-16 14:27:31
9 51.932704926 4.494523048 2 6.32 0.870 2024-06-16 14:27:24
7 51.913074493 4.459113121 3 10.30 1.340 2024-06-16 14:27:21
7 51.932743073 4.493949413 2 21.17 1.350 2024-06-16 14:27:15
7 51.913208008 4.459774494 3 14.95 1.350 2024-06-16 14:27:12
6 51.932800293 4.492911339 2 26.61 1.430 2024-06-16 14:27:04
7 51.913291931 4.460400105 3 6.33 1.350 2024-06-16 14:27:01
8 51.932880402 4.491798878 2 27.85 0.980 2024-06-16 14:26:57
8 51.909679413 4.482725143 1 3.44 0.940 2024-06-16 14:26:52
7 51.913345337 4.460775852 3 2.74 1.350 2024-06-16 14:26:51
8 51.933025360 4.490666389 2 27.69 1.000 2024-06-16 14:26:44
7 51.913394928 4.461047173 3 4.07 1.350 2024-06-16 14:26:41
7 51.909458160 4.482607841 1 15.30 1.380 2024-06-16 14:26:39
6 51.933181763 4.489638329 2 22.96 4.040 2024-06-16 14:26:34
7 51.913463593 4.461520672 3 7.76 1.360 2024-06-16 14:26:31
7 51.909091949 4.482113361 1 23.08 1.380 2024-06-16 14:26:29
7 51.933273315 4.488852501 2 13.93 1.160 2024-06-16 14:26:25
8 51.913600922 4.462142467 3 15.96 1.000 2024-06-16 14:26:21
9 51.908699036 4.481488228 1 15.41 0.870 2024-06-16 14:26:20
8 51.913818359 4.463122368 3 11.30 1.010 2024-06-16 14:26:11
7 51.909912109 4.482514858 5 0.39 1.380 2024-06-16 14:26:10
9 51.909069061 4.480231762 1 14.69 1.000 2024-06-16 14:26:02
8 51.913890839 4.463737011 3 7.95 1.010 2024-06-16 14:26:00
8 51.933135986 4.488423347 2 0.18 1.000 2024-06-16 14:25:55
8 51.913944244 4.464161396 3 9.61 1.010 2024-06-16 14:25:51
9 51.908905029 4.479558468 1 16.91 0.870 2024-06-16 14:25:50
8 51.908866882 4.478923798 1 13.35 1.050 2024-06-16 14:25:45
9 51.933025360 4.488239288 2 13.43 0.870 2024-06-16 14:25:45
8 51.914020538 4.464708805 3 18.76 1.010 2024-06-16 14:25:41
8 51.932632446 4.487683296 2 23.39 1.000 2024-06-16 14:25:34
8 51.914257050 4.465496063 3 24.41 1.010 2024-06-16 14:25:31
9 51.909320831 4.478728294 1 25.46 0.870 2024-06-16 14:25:30
8 51.932094574 4.487299442 2 19.19 1.000 2024-06-16 14:25:25
8 51.914733887 4.465992928 3 19.63 1.010 2024-06-16 14:25:21
9 51.909893036 4.478316784 1 21.85 0.870 2024-06-16 14:25:19
8 51.930957794 4.486719608 2 26.82 1.000 2024-06-16 14:25:16
9 51.910427094 4.478301048 1 19.56 0.870 2024-06-16 14:25:11
8 51.915107727 4.466312408 3 13.76 1.010 2024-06-16 14:25:11
7 51.915359497 4.466586113 3 11.24 1.100 2024-06-16 14:25:01
9 51.910961151 4.477949619 1 25.08 0.870 2024-06-16 14:25:00
8 51.915691376 4.467216492 3 22.02 1.380 2024-06-16 14:24:53
9 51.911403656 4.477684975 1 16.85 0.870 2024-06-16 14:24:50
7 51.915943146 4.468187332 3 22.02 1.140 2024-06-16 14:24:41
9 51.928920746 4.486540318 2 11.33 0.870 2024-06-16 14:24:34
8 51.916191101 4.469208717 3 22.69 1.010 2024-06-16 14:24:31
8 51.928489685 4.486577988 2 22.08 1.000 2024-06-16 14:24:23
8 51.916400909 4.470126152 3 21.15 1.320 2024-06-16 14:24:22
9 51.927837372 4.486633301 2 26.56 0.870 2024-06-16 14:24:13
8 51.916610718 4.470901489 3 12.93 1.010 2024-06-16 14:24:11
9 51.927188873 4.486669540 2 15.65 0.870 2024-06-16 14:24:04
8 51.916767120 4.471539021 3 14.43 1.020 2024-06-16 14:24:01
9 51.926841736 4.486573696 2 9.70 0.870 2024-06-16 14:23:53
8 51.916919708 4.472168446 3 10.26 1.020 2024-06-16 14:23:51
9 51.926429749 4.486597538 2 19.11 0.870 2024-06-16 14:23:43
8 51.917030334 4.472602844 3 11.69 1.020 2024-06-16 14:23:42
8 51.925914764 4.486567020 2 19.56 1.000 2024-06-16 14:23:35
8 51.917255402 4.472847462 3 8.22 1.020 2024-06-16 14:23:34
8 51.925418854 4.486471653 2 14.30 1.020 2024-06-16 14:23:24
8 51.917533875 4.472799301 3 15.15 1.020 2024-06-16 14:23:21
8 51.925060272 4.486315727 2 11.82 0.980 2024-06-16 14:23:14
8 51.918498993 4.472551346 3 20.78 1.020 2024-06-16 14:23:12
9 51.911617279 4.478160381 1 0.26 0.870 2024-06-16 14:23:10
7 51.924877167 4.485722542 2 0.44 1.120 2024-06-16 14:23:05
8 51.911705017 4.478359222 1 17.63 1.000 2024-06-16 14:22:59
9 51.912014008 4.479294300 1 27.56 1.000 2024-06-16 14:22:51
9 51.912246704 4.480394840 1 27.78 0.870 2024-06-16 14:22:41
7 51.909809113 4.482700348 5 0.68 1.360 2024-06-16 14:22:39
6 51.920028687 4.472016811 3 25.09 3.140 2024-06-16 14:22:36
9 51.912342072 4.481466770 1 22.39 0.870 2024-06-16 14:22:30
7 51.920719147 4.471913815 3 16.74 1.410 2024-06-16 14:22:26
9 51.912342072 4.482138157 1 15.74 0.980 2024-06-16 14:22:21
6 51.925193787 4.484241486 2 21.46 1.610 2024-06-16 14:22:21
5 51.921302795 4.471770763 3 15.17 1.570 2024-06-16 14:22:16
9 51.925308228 4.483436108 2 23.91 0.870 2024-06-16 14:22:13
6 51.921768188 4.471618176 3 14.17 1.500 2024-06-16 14:22:07
9 51.925491333 4.482556343 2 23.22 0.870 2024-06-16 14:22:01
7 51.922206879 4.471468449 3 18.22 1.420 2024-06-16 14:21:56
6 51.909923553 4.482583523 5 0.83 1.490 2024-06-16 14:21:51
7 51.922729492 4.471428394 3 13.15 1.420 2024-06-16 14:21:47
8 51.912078857 4.482295036 1 0.07 0.980 2024-06-16 14:21:40
8 51.923057556 4.471512794 3 9.32 1.030 2024-06-16 14:21:36
9 51.925449371 4.481725216 2 0.54 0.870 2024-06-16 14:21:31
9 51.925380707 4.481464863 2 15.70 0.870 2024-06-16 14:21:21
8 51.923412323 4.471518993 3 1.09 1.030 2024-06-16 14:21:16
7 51.925220490 4.480797291 2 22.50 1.430 2024-06-16 14:21:11
9 51.925014496 4.479972363 2 20.15 0.870 2024-06-16 14:21:02
8 51.911945343 4.482334137 1 7.43 1.000 2024-06-16 14:21:00
8 51.911586761 4.482480049 1 22.96 0.940 2024-06-16 14:20:49
8 51.923473358 4.471323013 3 0.39 1.030 2024-06-16 14:20:46
8 51.924964905 4.479539394 2 0.82 0.980 2024-06-16 14:20:41
9 51.910949707 4.482751846 1 29.69 0.870 2024-06-16 14:20:40
8 51.910423279 4.483523846 1 29.98 0.960 2024-06-16 14:20:31
9 51.924667358 4.478699684 2 16.45 0.870 2024-06-16 14:20:29
9 51.909969330 4.484670639 1 33.59 0.870 2024-06-16 14:20:20
9 51.908397675 4.488647938 1 27.46 1.040 2024-06-16 14:20:12
8 51.909809113 4.482775211 5 2.24 0.980 2024-06-16 14:20:10
7 51.924304962 4.471348286 3 13.82 1.450 2024-06-16 14:19:59
6 51.924568176 4.471945286 3 11.54 1.530 2024-06-16 14:19:50
8 51.924411774 4.478420258 2 0.52 1.010 2024-06-16 14:19:42
7 51.924621582 4.472716808 3 14.82 1.140 2024-06-16 14:19:41
9 51.924232483 4.478205681 2 13.95 0.870 2024-06-16 14:19:31
8 51.924640656 4.473614693 3 21.59 1.040 2024-06-16 14:19:30
7 51.924697876 4.474508286 3 14.72 1.240 2024-06-16 14:19:19
9 51.907409668 4.491014004 1 18.82 0.870 2024-06-16 14:19:14
8 51.923923492 4.478196144 2 0.18 0.940 2024-06-16 14:19:01
8 51.924488068 4.474970341 3 6.56 1.040 2024-06-16 14:18:51
8 51.907264709 4.491577148 1 15.96 0.940 2024-06-16 14:18:44
9 51.923767090 4.478180408 2 0.46 0.870 2024-06-16 14:18:41
8 51.906890869 4.492369652 1 30.54 1.100 2024-06-16 14:18:32
8 51.923633575 4.478230000 2 1.24 1.050 2024-06-16 14:18:31
8 51.906478882 4.493325233 1 25.76 0.980 2024-06-16 14:18:23
9 51.923484802 4.478319168 2 12.21 0.880 2024-06-16 14:18:21
8 51.924270630 4.474733353 3 0.24 1.040 2024-06-16 14:18:20
9 51.906162262 4.494050503 1 19.06 0.970 2024-06-16 14:18:12
9 51.923095703 4.478628159 2 11.93 0.880 2024-06-16 14:18:11
9 51.906303406 4.494471550 1 0.13 0.880 2024-06-16 14:18:02
7 51.924102783 4.474563599 3 3.70 1.120 2024-06-16 14:18:00
9 51.906452179 4.494424343 1 3.70 0.880 2024-06-16 14:17:52
6 51.922817230 4.478905201 2 8.74 1.750 2024-06-16 14:17:50
6 51.923992157 4.474038601 3 17.69 2.120 2024-06-16 14:17:49
9 51.906764984 4.494559765 1 14.45 0.980 2024-06-16 14:17:42
7 51.922435760 4.478974342 2 21.15 1.370 2024-06-16 14:17:41
7 51.923782349 4.473372936 3 9.63 1.120 2024-06-16 14:17:39
6 51.921768188 4.479102135 2 25.74 1.760 2024-06-16 14:17:34
7 51.907173157 4.494973660 1 14.72 1.110 2024-06-16 14:17:32
7 51.923728943 4.473099709 3 0.54 1.120 2024-06-16 14:17:31
8 51.907569885 4.494915485 1 11.02 0.990 2024-06-16 14:17:22
6 51.921123505 4.479380608 2 18.87 2.600 2024-06-16 14:17:21
6 51.923610687 4.472895622 3 11.56 2.060 2024-06-16 14:17:20
9 51.907772064 4.494453907 1 4.76 0.990 2024-06-16 14:17:12
8 51.923328400 4.472141743 3 17.84 1.050 2024-06-16 14:17:10
7 51.920639038 4.479484558 2 11.24 1.180 2024-06-16 14:17:10
8 51.907970428 4.494051933 1 19.28 0.990 2024-06-16 14:17:02
8 51.922866821 4.471161366 3 18.35 1.050 2024-06-16 14:17:00
7 51.920188904 4.479978561 2 10.41 1.130 2024-06-16 14:16:53
8 51.908237457 4.493358612 1 22.00 0.990 2024-06-16 14:16:52
7 51.922016144 4.470322609 3 18.87 1.500 2024-06-16 14:16:49
8 51.908302307 4.492565155 1 22.30 0.990 2024-06-16 14:16:43
7 51.920146942 4.479554176 2 13.76 1.130 2024-06-16 14:16:41
7 51.921894073 4.470571041 3 17.20 1.500 2024-06-16 14:16:40
7 51.908077240 4.491770744 1 18.45 1.150 2024-06-16 14:16:32
7 51.920066833 4.478930473 2 18.69 1.150 2024-06-16 14:16:31
5 51.921558380 4.471413612 3 18.32 3.680 2024-06-16 14:16:29
9 51.907752991 4.491220474 1 17.80 1.050 2024-06-16 14:16:24
8 51.919799805 4.478178024 2 16.48 1.060 2024-06-16 14:16:21
7 51.921100616 4.471683025 3 16.48 1.510 2024-06-16 14:16:19
9 51.907600403 4.490656376 1 18.15 0.990 2024-06-16 14:16:12
8 51.919807434 4.477607727 2 8.50 1.060 2024-06-16 14:16:11
6 51.920707703 4.471882820 3 6.67 3.340 2024-06-16 14:16:09
9 51.907833099 4.489974976 1 16.57 0.880 2024-06-16 14:16:03
6 51.920509338 4.472055435 3 3.89 1.600 2024-06-16 14:16:01
8 51.919788361 4.477031708 2 17.30 1.060 2024-06-16 14:16:01
9 51.908123016 4.489211559 1 28.52 0.970 2024-06-16 14:15:53
7 51.919506073 4.475733280 2 20.69 1.150 2024-06-16 14:15:51
7 51.920307159 4.472009659 3 11.95 1.190 2024-06-16 14:15:50
7 51.919448853 4.475490093 2 21.63 1.130 2024-06-16 14:15:49
8 51.908576965 4.488107204 1 32.52 1.070 2024-06-16 14:15:42
7 51.919998169 4.471980572 3 7.26 1.390 2024-06-16 14:15:39
8 51.919692993 4.472191334 3 14.50 1.060 2024-06-16 14:15:33
9 51.908985138 4.487052917 1 30.74 0.880 2024-06-16 14:15:33
6 51.919235229 4.474767685 2 18.50 1.560 2024-06-16 14:15:30
7 51.919090271 4.474116802 2 19.50 1.130 2024-06-16 14:15:23
9 51.909416199 4.485949516 1 35.58 0.880 2024-06-16 14:15:23
8 51.919239044 4.472459316 3 13.82 1.060 2024-06-16 14:15:20
9 51.909889221 4.484781265 1 28.37 0.880 2024-06-16 14:15:12
7 51.918918610 4.473366737 2 19.46 1.530 2024-06-16 14:15:11
8 51.918975830 4.472699165 3 9.56 1.060 2024-06-16 14:15:11
9 51.910194397 4.484046936 1 15.82 0.880 2024-06-16 14:15:02
8 51.918735504 4.472738743 2 14.30 1.060 2024-06-16 14:15:01
8 51.918922424 4.473087788 3 8.96 1.060 2024-06-16 14:15:00
9 51.910408020 4.483528614 1 15.07 0.880 2024-06-16 14:14:53
8 51.918468475 4.472541332 2 16.02 1.070 2024-06-16 14:14:51
8 51.919002533 4.473579407 3 15.00 1.070 2024-06-16 14:14:49
9 51.910659790 4.483050346 1 15.17 1.050 2024-06-16 14:14:42
7 51.918037415 4.472692966 2 22.50 1.530 2024-06-16 14:14:41
8 51.919132233 4.474284649 3 15.54 1.070 2024-06-16 14:14:40
9 51.911010742 4.482662201 1 18.91 0.880 2024-06-16 14:14:32
8 51.917430878 4.472839832 2 21.69 1.070 2024-06-16 14:14:32
6 51.919258118 4.474978447 3 16.98 1.570 2024-06-16 14:14:29
8 51.911495209 4.482430935 1 22.11 0.980 2024-06-16 14:14:22
8 51.916950226 4.473023891 2 14.46 1.070 2024-06-16 14:14:22
8 51.919414520 4.475740433 3 14.85 1.070 2024-06-16 14:14:20
8 51.912090302 4.482205868 1 20.04 1.070 2024-06-16 14:14:12
9 51.912540436 4.482048035 1 15.72 0.880 2024-06-16 14:14:03
6 51.919658661 4.476867199 3 6.96 3.370 2024-06-16 14:14:00
8 51.916553497 4.473320007 2 0.09 1.070 2024-06-16 14:13:51
8 51.919746399 4.477383614 3 8.78 1.070 2024-06-16 14:13:51
8 51.916378021 4.473460674 2 15.91 1.070 2024-06-16 14:13:41
7 51.919826508 4.477877617 3 11.33 1.550 2024-06-16 14:13:40
9 51.909931183 4.482667446 5 0.74 0.880 2024-06-16 14:13:30
8 51.916049957 4.473798752 2 13.46 1.070 2024-06-16 14:13:30
7 51.919723511 4.478467464 3 8.72 1.200 2024-06-16 14:13:29
7 51.915863037 4.473980904 2 10.45 1.420 2024-06-16 14:13:21
6 51.919605255 4.478907585 3 13.02 3.340 2024-06-16 14:13:19
6 51.915493011 4.474554539 2 20.67 1.900 2024-06-16 14:13:12
7 51.919742584 4.479125500 3 11.56 1.080 2024-06-16 14:13:10
9 51.912746429 4.482113838 1 0.07 0.880 2024-06-16 14:13:03
8 51.914928436 4.474853992 2 19.20 1.080 2024-06-16 14:13:02
8 51.919891357 4.479618073 3 12.43 1.080 2024-06-16 14:13:00
7 51.914413452 4.475152016 2 19.61 1.570 2024-06-16 14:12:51
4 51.919788361 4.480163097 3 10.26 1.570 2024-06-16 14:12:49
7 51.913936615 4.475559711 2 23.30 1.210 2024-06-16 14:12:41
7 51.919155121 4.480303288 3 11.06 1.210 2024-06-16 14:12:32
7 51.913436890 4.476121426 2 21.00 1.090 2024-06-16 14:12:31
8 51.914016724 4.482092381 1 41.21 0.980 2024-06-16 14:12:23
7 51.912933350 4.476611614 2 25.08 1.210 2024-06-16 14:12:21
8 51.915084839 4.482060909 1 44.82 1.150 2024-06-16 14:12:12
8 51.912277222 4.476971149 2 22.58 1.080 2024-06-16 14:12:11
9 51.916183472 4.482081413 1 34.91 1.080 2024-06-16 14:12:02
8 51.911777496 4.477290630 2 10.67 1.080 2024-06-16 14:12:01
7 51.910079956 4.482776642 5 0.33 1.160 2024-06-16 14:12:00
8 51.918628693 4.480277538 3 7.54 1.080 2024-06-16 14:11:53
9 51.916908264 4.482025623 1 26.04 0.880 2024-06-16 14:11:53
7 51.911476135 4.477336884 2 12.09 1.150 2024-06-16 14:11:51
9 51.917514801 4.481620789 1 22.48 1.090 2024-06-16 14:11:43
8 51.918411255 4.480526924 3 6.06 1.210 2024-06-16 14:11:42
8 51.911258698 4.476768494 2 22.04 1.090 2024-06-16 14:11:41
8 51.918167114 4.480615616 3 7.74 1.090 2024-06-16 14:11:33
8 51.917888641 4.481400013 1 16.34 1.050 2024-06-16 14:11:32
8 51.910987854 4.475944042 2 22.17 1.090 2024-06-16 14:11:32
8 51.910724640 4.475094795 2 25.28 1.090 2024-06-16 14:11:22
8 51.917457581 4.481198788 3 4.11 1.090 2024-06-16 14:11:20
8 51.918056488 4.482006550 1 0.22 1.210 2024-06-16 14:11:13
8 51.910461426 4.474288940 2 16.30 1.090 2024-06-16 14:11:11
8 51.917255402 4.481403828 3 8.83 1.090 2024-06-16 14:11:04
8 51.910297394 4.473721027 2 16.54 1.090 2024-06-16 14:11:01
8 51.910099030 4.473085403 2 18.50 1.090 2024-06-16 14:10:51
8 51.916896820 4.481651783 3 20.22 1.090 2024-06-16 14:10:51
8 51.909893036 4.472398758 2 19.26 1.090 2024-06-16 14:10:41
8 51.916347504 4.481931686 3 22.58 1.090 2024-06-16 14:10:40
7 51.909698486 4.471725464 2 19.26 1.160 2024-06-16 14:10:31
7 51.915679932 4.482061386 3 25.89 1.160 2024-06-16 14:10:31
7 51.909458160 4.470952511 2 22.54 1.160 2024-06-16 14:10:21
7 51.914993286 4.482142925 3 28.61 1.170 2024-06-16 14:10:21
8 51.914249420 4.482192039 3 28.13 1.100 2024-06-16 14:10:14
8 51.909194946 4.470113277 2 21.80 1.100 2024-06-16 14:10:12
8 51.909946442 4.482733727 5 0.30 1.100 2024-06-16 14:10:10
8 51.908966064 4.469350338 2 21.58 1.100 2024-06-16 14:10:01
7 51.913429260 4.482213497 3 21.08 1.160 2024-06-16 14:10:00
8 51.908721924 4.468539715 2 22.91 1.100 2024-06-16 14:09:54
8 51.912952423 4.482242107 3 12.65 1.100 2024-06-16 14:09:50
8 51.908481598 4.467729092 2 17.35 1.100 2024-06-16 14:09:41
8 51.912673950 4.482366085 3 14.59 1.620 2024-06-16 14:09:41
8 51.918170929 4.482179642 1 0.33 1.100 2024-06-16 14:09:24
8 51.908378601 4.467400551 2 2.50 1.100 2024-06-16 14:09:12
8 51.912342072 4.482053280 3 0.54 1.100 2024-06-16 14:09:11
8 51.918354034 4.483037949 1 15.50 1.100 2024-06-16 14:09:08
8 51.908229828 4.467053413 2 12.52 1.100 2024-06-16 14:09:01
8 51.918460846 4.484011650 1 15.82 1.110 2024-06-16 14:08:52
8 51.908016205 4.466656208 2 14.91 1.160 2024-06-16 14:08:51
8 51.918518066 4.484849930 1 18.54 1.170 2024-06-16 14:08:43
8 51.907745361 4.466224670 2 16.59 1.170 2024-06-16 14:08:42
7 51.918601990 4.485378742 1 1.48 1.170 2024-06-16 14:08:34
7 51.907672882 4.465601444 2 14.30 1.170 2024-06-16 14:08:31
8 51.912307739 4.481803894 3 0.18 1.110 2024-06-16 14:08:30
7 51.909934998 4.482490540 5 0.72 1.020 2024-06-16 14:08:30
7 51.908145905 4.464893341 2 18.61 1.170 2024-06-16 14:08:20
8 51.912269592 4.481580734 3 7.41 1.110 2024-06-16 14:08:11
8 51.912212372 4.481063366 3 17.34 1.110 2024-06-16 14:08:01
8 51.908252716 4.464210510 2 16.72 1.110 2024-06-16 14:08:01
4 51.918876648 4.486184597 1 20.35 2.900 2024-06-16 14:07:58
7 51.912158966 4.480273247 3 21.98 1.660 2024-06-16 14:07:50
7 51.919052124 4.486910820 1 14.57 1.490 2024-06-16 14:07:48
7 51.911994934 4.479384899 3 24.89 1.660 2024-06-16 14:07:42
7 51.909839630 4.482679844 5 0.44 1.020 2024-06-16 14:07:40
8 51.919052124 4.487356663 1 5.67 1.110 2024-06-16 14:07:38
8 51.908191681 4.463551044 2 0.24 1.120 2024-06-16 14:07:32
7 51.911727905 4.478627205 3 16.04 1.660 2024-06-16 14:07:31
8 51.919246674 4.487776756 1 24.22 1.120 2024-06-16 14:07:28
8 51.911552429 4.478009701 3 16.70 1.170 2024-06-16 14:07:21
7 51.919574738 4.488502502 1 18.48 1.580 2024-06-16 14:07:18
8 51.911190033 4.477475166 3 13.24 1.120 2024-06-16 14:07:10
8 51.910934448 4.477635384 3 8.31 1.120 2024-06-16 14:07:01
8 51.908103943 4.463267803 2 12.15 1.120 2024-06-16 14:06:59
8 51.910598755 4.477931499 3 13.67 1.120 2024-06-16 14:06:50
6 51.910221100 4.478150845 3 20.06 1.810 2024-06-16 14:06:41
7 51.907543182 4.462909698 2 24.04 1.190 2024-06-16 14:06:40
8 51.909736633 4.478299618 3 22.67 1.120 2024-06-16 14:06:31
6 51.906997681 4.463320732 2 19.34 1.920 2024-06-16 14:06:29
8 51.919826508 4.489059925 1 0.74 1.120 2024-06-16 14:06:28
7 51.909362793 4.478949547 3 17.72 1.520 2024-06-16 14:06:20
6 51.906612396 4.463405609 2 11.56 1.920 2024-06-16 14:06:20
8 51.909042358 4.479286671 3 16.13 1.130 2024-06-16 14:06:11
9 51.909957886 4.482554913 5 0.20 0.890 2024-06-16 14:06:11
8 51.909072876 4.479963779 3 20.70 1.130 2024-06-16 14:06:02
7 51.920448303 4.490558624 1 16.06 1.200 2024-06-16 14:05:55
7 51.909458160 4.480841160 3 16.87 1.610 2024-06-16 14:05:50
8 51.920608521 4.491411209 1 22.58 1.130 2024-06-16 14:05:44
7 51.909713745 4.481397629 3 21.84 1.180 2024-06-16 14:05:41
8 51.909812927 4.482684612 5 7.11 0.990 2024-06-16 14:05:40
6 51.906448364 4.463115692 2 1.72 1.910 2024-06-16 14:05:39
8 51.921112061 4.492761135 1 25.30 1.700 2024-06-16 14:05:34
8 51.921489716 4.493863106 1 25.63 1.700 2024-06-16 14:05:33
8 51.910007477 4.482068062 3 12.63 1.130 2024-06-16 14:05:32
7 51.906318665 4.462773323 2 15.74 1.180 2024-06-16 14:05:29
8 51.905815125 4.461442947 2 26.63 1.130 2024-06-16 14:05:18
8 51.921585083 4.494132996 1 26.43 1.700 2024-06-16 14:05:17
8 51.905727386 4.461156845 2 27.61 1.130 2024-06-16 14:05:10
7 51.922161102 4.495777130 1 26.59 1.710 2024-06-16 14:05:06
7 51.905464172 4.460345745 2 15.15 1.190 2024-06-16 14:04:59
8 51.909934998 4.482563496 3 0.20 1.140 2024-06-16 14:04:51
8 51.905380249 4.460142612 2 0.06 1.140 2024-06-16 14:04:39
7 51.905284882 4.459934235 2 15.43 1.190 2024-06-16 14:04:26
8 51.923107147 4.497486115 1 0.24 1.140 2024-06-16 14:04:16
8 51.905021667 4.459187508 2 24.76 1.190 2024-06-16 14:04:10
7 51.904716492 4.458194733 2 26.72 1.190 2024-06-16 14:03:59
7 51.904415131 4.457093239 2 29.19 1.200 2024-06-16 14:03:50
8 51.904136658 4.456055164 2 25.43 1.150 2024-06-16 14:03:39
7 51.903938293 4.454998970 2 27.15 1.200 2024-06-16 14:03:29
8 51.909805298 4.482469082 3 0.72 1.150 2024-06-16 14:03:21
8 51.903774261 4.454086304 2 15.78 1.150 2024-06-16 14:03:19
8 51.922966003 4.497396469 1 12.54 1.150 2024-06-16 14:03:16
7 51.903728485 4.453767300 2 1.04 1.200 2024-06-16 14:03:09
8 51.923179626 4.497551918 1 11.06 1.150 2024-06-16 14:03:05
7 51.903663635 4.453441620 2 16.91 1.200 2024-06-16 14:02:59
7 51.923355103 4.497056007 1 10.63 1.270 2024-06-16 14:02:57
8 51.903514862 4.452561855 2 23.52 1.150 2024-06-16 14:02:49
8 51.923690796 4.497043610 1 6.19 1.270 2024-06-16 14:02:45
8 51.903419495 4.451526642 2 27.00 1.160 2024-06-16 14:02:40
8 51.923847198 4.496804714 1 13.82 1.160 2024-06-16 14:02:35
8 51.903457642 4.450506687 2 23.95 1.160 2024-06-16 14:02:29
8 51.923919678 4.496162891 1 16.02 1.590 2024-06-16 14:02:26
8 51.903598785 4.449530125 2 25.39 1.160 2024-06-16 14:02:21
8 51.909915924 4.482606411 3 0.07 1.160 2024-06-16 14:02:12
7 51.903759003 4.448503017 2 27.87 1.220 2024-06-16 14:02:09
8 51.904037476 4.447506905 2 21.74 1.160 2024-06-16 14:01:59
8 51.904193878 4.447025776 2 1.50 1.160 2024-06-16 14:01:49
8 51.926124573 4.496195316 1 20.72 1.160 2024-06-16 14:01:43
8 51.904312134 4.446607113 2 18.35 1.160 2024-06-16 14:01:40
8 51.926456451 4.496247292 1 0.07 1.160 2024-06-16 14:01:33
8 51.904472351 4.445940018 2 15.07 1.170 2024-06-16 14:01:32
8 51.926605225 4.496268272 1 6.67 1.170 2024-06-16 14:01:12
8 51.927055359 4.496375561 1 23.00 1.170 2024-06-16 14:01:10
8 51.927234650 4.496420383 1 26.39 1.170 2024-06-16 14:00:55
8 51.927913666 4.496451855 1 21.08 1.170 2024-06-16 14:00:44
7 51.928524017 4.496480465 1 23.65 1.780 2024-06-16 14:00:33
8 51.929084778 4.496845245 1 20.96 1.180 2024-06-16 14:00:24
8 51.904899597 4.445414543 2 3.22 1.180 2024-06-16 14:00:19
7 51.929679871 4.496860981 1 19.19 1.220 2024-06-16 14:00:13
8 51.905101776 4.445250034 2 14.35 1.180 2024-06-16 14:00:09
7 51.930175781 4.496978283 1 23.30 1.240 2024-06-16 14:00:03
6 51.905532837 4.445270061 2 21.72 1.810 2024-06-16 13:59:59
8 51.930858612 4.497167110 1 29.41 1.180 2024-06-16 13:59:54
7 51.906105042 4.445494652 2 24.08 1.220 2024-06-16 13:59:49
8 51.931587219 4.497323990 1 26.22 1.180 2024-06-16 13:59:43
7 51.906688690 4.445630074 2 21.46 1.230 2024-06-16 13:59:39
8 51.932147980 4.497447968 1 17.02 1.180 2024-06-16 13:59:33
7 51.907264709 4.445678234 2 23.46 1.230 2024-06-16 13:59:29
8 51.932388306 4.497478485 1 6.54 1.180 2024-06-16 13:59:23
7 51.907897949 4.445696354 2 24.61 1.230 2024-06-16 13:59:20
8 51.932506561 4.497313976 1 7.26 1.190 2024-06-16 13:59:13
8 51.908554077 4.445829391 2 23.54 1.190 2024-06-16 13:59:10
8 51.909187317 4.445860863 2 23.11 1.190 2024-06-16 13:58:59
8 51.909690857 4.445911884 2 13.52 1.190 2024-06-16 13:58:50
8 51.909927368 4.446060658 2 8.15 1.190 2024-06-16 13:58:39
7 51.932559967 4.496789455 1 0.30 1.810 2024-06-16 13:58:23
8 51.932556152 4.496524811 1 3.96 1.200 2024-06-16 13:57:53
8 51.909591675 4.482844353 5 0.20 1.080 2024-06-16 13:57:40
8 51.932605743 4.496208668 1 9.61 1.200 2024-06-16 13:57:33
7 51.932632446 4.495651245 1 20.95 1.820 2024-06-16 13:57:23
7 51.932735443 4.494083405 1 29.32 1.830 2024-06-16 13:57:14
7 51.909873962 4.446543217 2 0.00 1.250 2024-06-16 13:56:10
8 51.909580231 4.482878208 5 0.20 1.190 2024-06-16 13:56:00
9 51.910060883 4.482616425 3 0.09 1.160 2024-06-16 13:55:52
7 51.909950256 4.446749210 2 0.91 1.260 2024-06-16 13:55:39
7 51.909568787 4.482594490 5 10.07 1.500 2024-06-16 13:55:38
7 51.909267426 4.482254028 5 13.82 1.500 2024-06-16 13:55:31
7 51.909969330 4.447062016 2 15.96 1.260 2024-06-16 13:55:30
7 51.909881592 4.447766304 2 16.89 1.260 2024-06-16 13:55:20
7 51.908901215 4.481733322 5 17.11 1.500 2024-06-16 13:55:18
8 51.929973602 4.486579895 1 21.72 1.220 2024-06-16 13:55:16
7 51.909824371 4.448460579 2 14.30 1.260 2024-06-16 13:55:09
7 51.908779144 4.481249332 5 11.45 1.260 2024-06-16 13:55:09
8 51.929023743 4.486815453 1 24.67 1.230 2024-06-16 13:55:07
7 51.928829193 4.486861229 1 27.69 1.260 2024-06-16 13:55:02
7 51.909416199 4.480648041 5 13.56 1.260 2024-06-16 13:55:00
7 51.909690857 4.449154377 2 18.98 1.260 2024-06-16 13:54:59
8 51.909736633 4.449882507 2 16.96 1.200 2024-06-16 13:54:50
8 51.928146362 4.486939907 1 26.48 1.230 2024-06-16 13:54:46
6 51.909919739 4.450419903 2 2.94 2.080 2024-06-16 13:54:39
9 51.927516937 4.486840725 1 21.19 1.200 2024-06-16 13:54:36
7 51.908939362 4.479276657 5 12.07 1.270 2024-06-16 13:54:33
5 51.910041809 4.450705051 2 16.96 2.550 2024-06-16 13:54:25
6 51.908969879 4.478714943 5 17.93 1.860 2024-06-16 13:54:24
7 51.909473419 4.478584290 5 18.91 1.270 2024-06-16 13:54:14
7 51.910770416 4.451716900 2 6.30 1.270 2024-06-16 13:54:10
7 51.909954071 4.478277683 5 17.30 1.270 2024-06-16 13:54:05
8 51.910343170 4.478153706 5 13.45 1.200 2024-06-16 13:53:53
7 51.910781860 4.478081226 5 20.39 1.270 2024-06-16 13:53:45
6 51.911716461 4.453366756 2 14.67 1.770 2024-06-16 13:53:34
8 51.911327362 4.477730751 5 16.91 1.210 2024-06-16 13:53:33
8 51.926929474 4.486587048 1 8.45 1.240 2024-06-16 13:53:27
7 51.911689758 4.477583885 5 12.45 1.280 2024-06-16 13:53:24
8 51.911991119 4.453949451 2 14.28 1.210 2024-06-16 13:53:22
8 51.925994873 4.486665249 1 25.84 1.250 2024-06-16 13:53:15
8 51.912097931 4.454319000 2 8.63 1.210 2024-06-16 13:53:13
8 51.925800323 4.486647606 1 25.78 1.250 2024-06-16 13:53:07
8 51.925251007 4.486629009 1 20.08 1.250 2024-06-16 13:52:55
7 51.912158966 4.454551697 2 0.11 1.280 2024-06-16 13:52:52
9 51.924930573 4.486423969 1 13.82 1.250 2024-06-16 13:52:46
8 51.911827087 4.478010178 5 0.74 1.280 2024-06-16 13:52:34
7 51.912178040 4.454798222 2 7.93 1.280 2024-06-16 13:52:33
9 51.924903870 4.485971928 1 0.32 1.170 2024-06-16 13:52:27
7 51.912261963 4.455356598 2 17.24 1.290 2024-06-16 13:52:23
6 51.912319183 4.456065655 2 19.43 1.890 2024-06-16 13:52:13
8 51.924942017 4.485733986 1 14.07 1.290 2024-06-16 13:52:06
7 51.912498474 4.456845760 2 15.02 1.290 2024-06-16 13:52:03
8 51.925064087 4.484830856 1 27.80 1.290 2024-06-16 13:51:56
7 51.912609100 4.457525730 2 19.02 1.290 2024-06-16 13:51:54
7 51.925270081 4.483680725 1 30.26 1.290 2024-06-16 13:51:47
7 51.912776947 4.458285332 2 19.67 1.290 2024-06-16 13:51:43
9 51.925491333 4.482473373 1 27.56 1.180 2024-06-16 13:51:35
7 51.912933350 4.459136009 2 21.26 1.290 2024-06-16 13:51:34
7 51.913078308 4.459895134 2 15.48 1.300 2024-06-16 13:51:24
7 51.911743164 4.478195667 5 2.70 1.300 2024-06-16 13:51:23
9 51.925376892 4.481659412 1 10.91 1.180 2024-06-16 13:51:16
6 51.911872864 4.478640079 5 22.50 1.900 2024-06-16 13:51:14
7 51.913177490 4.460452080 2 7.43 1.300 2024-06-16 13:51:13
7 51.912120819 4.479571342 5 25.48 1.300 2024-06-16 13:51:03
7 51.913238525 4.460714340 2 14.28 1.300 2024-06-16 13:51:03
9 51.924949646 4.480442524 1 16.74 1.180 2024-06-16 13:51:03
6 51.912212372 4.480649471 5 25.28 1.900 2024-06-16 13:50:53
7 51.913410187 4.461468697 2 19.19 1.300 2024-06-16 13:50:53
7 51.912216187 4.481631279 5 17.93 1.300 2024-06-16 13:50:43
7 51.913566589 4.462346554 2 20.22 1.300 2024-06-16 13:50:43
8 51.924720764 4.479719162 1 0.78 1.230 2024-06-16 13:50:35
7 51.913772583 4.463092327 2 17.07 1.300 2024-06-16 13:50:34
7 51.912239075 4.482186794 5 6.95 1.300 2024-06-16 13:50:33
8 51.924594879 4.479310989 1 20.43 1.230 2024-06-16 13:50:26
7 51.913883209 4.463708878 2 11.26 1.300 2024-06-16 13:50:24
6 51.911949158 4.482328892 5 16.41 1.360 2024-06-16 13:50:23
9 51.924377441 4.478579521 1 14.72 1.220 2024-06-16 13:50:15
8 51.911598206 4.482453346 5 18.95 1.230 2024-06-16 13:50:13
8 51.911117554 4.482669353 5 16.32 1.230 2024-06-16 13:50:05
8 51.913944244 4.464087963 2 0.37 1.230 2024-06-16 13:50:03
7 51.910724640 4.482958317 5 18.80 1.880 2024-06-16 13:49:53
9 51.924243927 4.478402138 1 0.15 1.280 2024-06-16 13:49:46
7 51.914001465 4.464351654 2 4.95 1.310 2024-06-16 13:49:44
8 51.910400391 4.483526230 5 16.67 1.230 2024-06-16 13:49:43
8 51.910095215 4.484286308 5 28.24 1.230 2024-06-16 13:49:33
8 51.914115906 4.464887142 2 16.76 1.240 2024-06-16 13:49:33
9 51.924110413 4.478103638 1 15.76 1.280 2024-06-16 13:49:26
8 51.909717560 4.485257149 5 25.45 1.240 2024-06-16 13:49:24
7 51.914325714 4.465595245 2 19.72 1.310 2024-06-16 13:49:24
7 51.914779663 4.466115952 2 13.78 1.320 2024-06-16 13:49:13
8 51.909336090 4.486219406 5 27.11 1.240 2024-06-16 13:49:13
8 51.915122986 4.466303825 2 17.76 1.240 2024-06-16 13:49:03
8 51.908863068 4.487215996 5 22.82 1.240 2024-06-16 13:49:03
6 51.915519714 4.466737270 2 10.37 1.720 2024-06-16 13:48:54
8 51.908660889 4.487816811 5 6.63 1.240 2024-06-16 13:48:53
8 51.908531189 4.488142967 5 11.80 1.240 2024-06-16 13:48:48
7 51.915657043 4.467347145 2 16.63 1.600 2024-06-16 13:48:43
8 51.908336639 4.488615513 5 16.91 1.240 2024-06-16 13:48:34
7 51.915821075 4.468128681 2 22.28 1.320 2024-06-16 13:48:34
8 51.908088684 4.489299774 5 24.71 1.240 2024-06-16 13:48:27
7 51.916076660 4.468949318 2 17.59 1.320 2024-06-16 13:48:23
8 51.907791138 4.490116596 5 17.74 1.240 2024-06-16 13:48:15
7 51.916301727 4.469666481 2 18.84 1.320 2024-06-16 13:48:13
8 51.909954071 4.482447624 3 0.18 1.230 2024-06-16 13:48:12
8 51.907554626 4.490728378 5 20.48 1.240 2024-06-16 13:48:05
7 51.916481018 4.470468998 2 22.37 1.330 2024-06-16 13:48:03
9 51.923690796 4.478280067 1 4.32 1.300 2024-06-16 13:47:56
8 51.916725159 4.471352100 2 20.02 1.250 2024-06-16 13:47:53
8 51.923538208 4.478370190 1 6.50 1.300 2024-06-16 13:47:46
7 51.916950226 4.472175598 2 20.93 1.330 2024-06-16 13:47:43
7 51.917129517 4.472759724 2 10.85 1.330 2024-06-16 13:47:32
7 51.917537689 4.472842693 2 14.69 1.330 2024-06-16 13:47:23
7 51.917942047 4.472717285 2 17.72 1.330 2024-06-16 13:47:13
9 51.923377991 4.478519440 1 2.41 1.210 2024-06-16 13:47:07
7 51.918708801 4.472372055 2 21.26 1.340 2024-06-16 13:47:02
7 51.918865204 4.472320557 2 22.39 1.340 2024-06-16 13:46:59
8 51.923152924 4.478657722 1 15.24 1.310 2024-06-16 13:46:56
7 51.907302856 4.491485596 5 3.57 1.340 2024-06-16 13:46:53
9 51.922737122 4.478820801 1 13.09 1.310 2024-06-16 13:46:46
6 51.907226562 4.491716385 5 13.78 2.150 2024-06-16 13:46:44
7 51.919456482 4.472194672 2 22.17 1.340 2024-06-16 13:46:44
8 51.922309875 4.478952885 1 23.59 1.310 2024-06-16 13:46:37
7 51.906990051 4.492287159 5 22.09 1.340 2024-06-16 13:46:33
5 51.920288086 4.472412109 2 19.59 5.350 2024-06-16 13:46:33
8 51.921279907 4.479294777 1 19.13 1.260 2024-06-16 13:46:27
7 51.906646729 4.492988110 5 23.34 1.340 2024-06-16 13:46:24
4 51.920768738 4.472126961 2 12.69 5.690 2024-06-16 13:46:23
7 51.906333923 4.493662834 5 18.63 1.340 2024-06-16 13:46:14
6 51.921234131 4.471260548 2 17.43 1.910 2024-06-16 13:46:13
7 51.921321869 4.471077919 2 19.61 1.870 2024-06-16 13:46:08
7 51.906200409 4.494129181 5 5.50 1.350 2024-06-16 13:46:05
7 51.922027588 4.471026421 2 20.08 1.650 2024-06-16 13:45:55
8 51.906295776 4.494347572 5 3.67 1.260 2024-06-16 13:45:54
8 51.920051575 4.479683399 1 7.24 1.260 2024-06-16 13:45:46
7 51.922538757 4.470806122 2 19.82 1.350 2024-06-16 13:45:44
7 51.919929504 4.479110241 1 16.65 1.350 2024-06-16 13:45:35
8 51.906578064 4.494586945 5 6.43 1.260 2024-06-16 13:45:34
9 51.919605255 4.477651119 1 15.59 1.220 2024-06-16 13:45:26
8 51.906715393 4.494738102 5 10.32 1.260 2024-06-16 13:45:25
8 51.923427582 4.471168041 2 11.65 1.430 2024-06-16 13:45:23
7 51.923568726 4.471072674 2 0.39 1.350 2024-06-16 13:45:14
7 51.906875610 4.494841099 5 14.59 1.350 2024-06-16 13:45:13
7 51.923759460 4.471136093 2 10.98 1.360 2024-06-16 13:45:07
8 51.907135010 4.494805336 5 11.82 1.260 2024-06-16 13:45:03
8 51.907409668 4.494340420 5 3.20 1.260 2024-06-16 13:44:54
6 51.919460297 4.475909233 1 18.65 2.750 2024-06-16 13:44:54
8 51.907512665 4.494106770 5 11.98 1.270 2024-06-16 13:44:43
8 51.919330597 4.475184917 1 15.45 1.270 2024-06-16 13:44:42
8 51.907711029 4.493528366 5 22.69 1.270 2024-06-16 13:44:33
7 51.919151306 4.474417210 1 18.46 1.360 2024-06-16 13:44:32
6 51.924350739 4.472186089 2 21.98 1.400 2024-06-16 13:44:27
7 51.918979645 4.473640442 1 19.74 1.360 2024-06-16 13:44:23
5 51.907962799 4.491694927 5 0.78 5.080 2024-06-16 13:44:15
7 51.924411774 4.473242283 2 20.82 1.360 2024-06-16 13:44:12
7 51.918792725 4.472823143 1 18.28 1.360 2024-06-16 13:44:12
8 51.918590546 4.472358227 1 12.65 1.270 2024-06-16 13:44:03
8 51.924491882 4.474077225 2 6.98 1.850 2024-06-16 13:44:02
7 51.918224335 4.472431183 1 18.70 1.370 2024-06-16 13:43:53
6 51.924476624 4.474342346 2 6.83 1.680 2024-06-16 13:43:52
7 51.917655945 4.472576618 1 22.39 1.430 2024-06-16 13:43:43
7 51.924285889 4.474456310 2 11.45 1.310 2024-06-16 13:43:42
8 51.924057007 4.474678993 2 7.20 1.270 2024-06-16 13:43:36
9 51.917160034 4.472833157 1 19.00 1.240 2024-06-16 13:43:32
8 51.923950195 4.474343777 2 8.56 1.490 2024-06-16 13:43:22
9 51.916748047 4.473084450 1 14.11 1.240 2024-06-16 13:43:22
7 51.923809052 4.474037170 2 12.13 1.490 2024-06-16 13:43:12
8 51.923553467 4.473405838 2 20.02 1.270 2024-06-16 13:43:02
8 51.923419952 4.472952843 2 0.59 1.280 2024-06-16 13:42:53
8 51.916625977 4.473256588 1 1.30 1.280 2024-06-16 13:42:52
8 51.923305511 4.472571850 2 21.35 1.280 2024-06-16 13:42:42
8 51.916435242 4.473439693 1 19.00 1.490 2024-06-16 13:42:42
8 51.908798218 4.487455845 5 26.89 1.280 2024-06-16 13:42:39
8 51.916030884 4.473928928 1 22.09 1.280 2024-06-16 13:42:32
8 51.922931671 4.471773624 2 23.13 1.380 2024-06-16 13:42:32
8 51.909111023 4.486722946 5 24.35 1.280 2024-06-16 13:42:28
8 51.915603638 4.474551201 1 23.91 1.280 2024-06-16 13:42:23
6 51.922313690 4.471548080 2 21.02 2.370 2024-06-16 13:42:22
8 51.909412384 4.485984802 5 18.74 1.280 2024-06-16 13:42:18
8 51.915107727 4.474977493 1 19.11 1.280 2024-06-16 13:42:11
8 51.909656525 4.485348225 5 19.28 1.280 2024-06-16 13:42:08
5 51.921607971 4.471473694 2 17.09 4.860 2024-06-16 13:42:02
7 51.914680481 4.475319386 1 26.71 1.380 2024-06-16 13:42:02
8 51.909923553 4.484697819 5 17.45 1.280 2024-06-16 13:41:58
5 51.921016693 4.471672535 2 15.82 3.040 2024-06-16 13:41:52
8 51.913948059 4.475693703 1 31.78 1.280 2024-06-16 13:41:52
8 51.910152435 4.484122276 5 16.06 1.280 2024-06-16 13:41:49
6 51.920558929 4.471835613 2 12.17 2.630 2024-06-16 13:41:43
7 51.913196564 4.476323605 1 34.78 1.390 2024-06-16 13:41:41
8 51.910373688 4.483540535 5 15.63 1.280 2024-06-16 13:41:39
6 51.920429230 4.472122669 2 7.35 2.410 2024-06-16 13:41:33
8 51.912433624 4.476887226 1 31.19 1.280 2024-06-16 13:41:31
7 51.910594940 4.483013630 5 16.04 2.600 2024-06-16 13:41:31
8 51.911842346 4.477246284 1 15.15 1.280 2024-06-16 13:41:23
8 51.910903931 4.482625008 5 14.67 1.280 2024-06-16 13:41:19
8 51.911479950 4.477349758 1 13.54 1.280 2024-06-16 13:41:12
8 51.911293030 4.482434273 5 15.46 1.280 2024-06-16 13:41:09
8 51.911247253 4.476718426 1 28.15 1.280 2024-06-16 13:41:02
8 51.911682129 4.482280731 5 18.61 1.280 2024-06-16 13:40:58
7 51.918895721 4.472504616 2 14.07 1.390 2024-06-16 13:40:57
8 51.910934448 4.475785732 1 23.24 1.280 2024-06-16 13:40:51
8 51.912151337 4.482088089 5 14.43 1.280 2024-06-16 13:40:49
7 51.918807983 4.473011017 2 17.59 1.400 2024-06-16 13:40:47
8 51.910709381 4.475059509 1 18.98 1.290 2024-06-16 13:40:42
8 51.912551880 4.481977463 5 12.15 1.400 2024-06-16 13:40:39
7 51.918994904 4.473793507 2 19.17 1.400 2024-06-16 13:40:36
8 51.910476685 4.474350929 1 19.91 1.290 2024-06-16 13:40:31
7 51.919254303 4.474658966 2 14.78 1.400 2024-06-16 13:40:31
8 51.910259247 4.473670483 1 13.85 1.290 2024-06-16 13:40:22
9 51.910133362 4.482519150 3 0.46 1.250 2024-06-16 13:40:22
7 51.919349670 4.475294113 2 15.82 1.400 2024-06-16 13:40:16
7 51.912731171 4.481911659 5 4.26 1.400 2024-06-16 13:40:09
6 51.919544220 4.476016521 2 20.61 2.720 2024-06-16 13:40:08
8 51.913005829 4.481911182 5 22.19 1.290 2024-06-16 13:40:04
8 51.910133362 4.473211765 1 5.56 1.290 2024-06-16 13:40:02
8 51.919761658 4.476932049 2 18.19 1.290 2024-06-16 13:39:56
8 51.910049438 4.472877502 1 14.22 1.290 2024-06-16 13:39:53
7 51.913566589 4.481825829 5 30.30 1.480 2024-06-16 13:39:49
6 51.919857025 4.477611065 2 13.85 1.480 2024-06-16 13:39:46
7 51.915164948 4.481798649 5 40.04 1.480 2024-06-16 13:39:43
8 51.909893036 4.472363949 1 14.22 1.480 2024-06-16 13:39:42
7 51.915470123 4.481765747 5 35.06 1.480 2024-06-16 13:39:39
6 51.919769287 4.478244305 2 17.61 1.480 2024-06-16 13:39:37
8 51.909744263 4.471903324 1 13.85 1.290 2024-06-16 13:39:31
7 51.909542084 4.471169949 1 24.52 1.480 2024-06-16 13:39:21
8 51.916255951 4.481709480 5 23.09 1.290 2024-06-16 13:39:19
8 51.909263611 4.470253944 1 25.43 1.290 2024-06-16 13:39:11
8 51.917236328 4.481297493 5 14.52 1.290 2024-06-16 13:39:05
8 51.908798218 4.468724728 1 24.21 1.290 2024-06-16 13:39:01
8 51.908718109 4.468471527 1 22.98 1.290 2024-06-16 13:38:52
8 51.917591095 4.481012344 5 15.15 1.290 2024-06-16 13:38:51
7 51.910091400 4.482735157 3 0.41 1.320 2024-06-16 13:38:43
8 51.908508301 4.467733383 1 17.30 1.290 2024-06-16 13:38:41
8 51.917846680 4.481038094 5 2.70 1.290 2024-06-16 13:38:40
8 51.918498993 4.480635166 2 13.37 1.290 2024-06-16 13:38:25
8 51.908321381 4.467158794 1 0.17 1.290 2024-06-16 13:38:21
8 51.908206940 4.466980934 1 16.96 1.290 2024-06-16 13:38:13
8 51.918060303 4.480969906 2 20.34 1.290 2024-06-16 13:38:13
8 51.917560577 4.481345654 2 19.24 1.290 2024-06-16 13:38:04
8 51.907840729 4.466441631 1 18.65 1.300 2024-06-16 13:38:01
8 51.917152405 4.481645107 2 21.76 1.300 2024-06-16 13:37:53
8 51.907691956 4.465832710 1 15.84 1.300 2024-06-16 13:37:51
8 51.916530609 4.481982708 2 28.52 1.300 2024-06-16 13:37:43
7 51.907844543 4.465361118 1 11.96 1.420 2024-06-16 13:37:42
7 51.915702820 4.482033253 2 32.50 1.470 2024-06-16 13:37:33
8 51.914798737 4.482029915 2 32.52 1.300 2024-06-16 13:37:23
7 51.913963318 4.481993675 2 30.45 1.750 2024-06-16 13:37:14
7 51.913173676 4.481953621 2 14.67 1.770 2024-06-16 13:37:03
7 51.909938812 4.482605934 3 0.13 1.390 2024-06-16 13:36:52
8 51.912952423 4.482108593 2 11.41 1.300 2024-06-16 13:36:42
7 51.918708801 4.484873772 5 5.41 1.470 2024-06-16 13:36:40
7 51.912628174 4.482195854 2 15.43 1.430 2024-06-16 13:36:32
8 51.912311554 4.482066631 2 13.69 1.470 2024-06-16 13:36:22
8 51.912212372 4.481521606 2 12.83 1.300 2024-06-16 13:36:12
6 51.908008575 4.465269089 1 3.26 1.670 2024-06-16 13:36:11
8 51.912158966 4.480781555 2 20.80 1.300 2024-06-16 13:36:02
8 51.908168793 4.464962006 1 18.30 1.300 2024-06-16 13:36:01
8 51.919158936 4.487347603 5 18.76 1.300 2024-06-16 13:35:53
7 51.908241272 4.464158058 1 17.74 1.440 2024-06-16 13:35:52
8 51.912067413 4.479842186 2 26.35 1.300 2024-06-16 13:35:52
8 51.911769867 4.478720188 2 26.89 1.300 2024-06-16 13:35:42
8 51.919406891 4.487945557 5 18.74 1.300 2024-06-16 13:35:41
8 51.908142090 4.463443279 1 11.87 1.300 2024-06-16 13:35:33
8 51.911487579 4.477863789 2 17.20 1.300 2024-06-16 13:35:33
8 51.919658661 4.488502026 5 13.28 1.300 2024-06-16 13:35:32
8 51.911094666 4.477724552 2 8.46 1.300 2024-06-16 13:35:22
8 51.907974243 4.462886810 1 18.58 1.300 2024-06-16 13:35:22
7 51.910812378 4.477992058 2 19.34 1.720 2024-06-16 13:35:12
8 51.907566071 4.462875366 1 23.59 1.300 2024-06-16 13:35:11
7 51.910392761 4.478363991 2 19.04 1.390 2024-06-16 13:35:03
8 51.919857025 4.488986492 5 4.76 1.440 2024-06-16 13:35:01
7 51.906997681 4.463242054 1 21.39 1.460 2024-06-16 13:35:01
5 51.910018921 4.478432655 2 21.32 4.080 2024-06-16 13:34:53
7 51.920215607 4.489813328 5 14.59 1.450 2024-06-16 13:34:52
7 51.906570435 4.463381767 1 17.48 1.460 2024-06-16 13:34:51
7 51.909484863 4.478942871 2 19.93 1.450 2024-06-16 13:34:44
7 51.906299591 4.462819099 1 17.54 1.460 2024-06-16 13:34:41
8 51.906036377 4.462110996 1 21.56 1.460 2024-06-16 13:34:31
6 51.909236908 4.480027676 2 20.19 1.670 2024-06-16 13:34:31
8 51.905746460 4.461303234 1 24.74 1.300 2024-06-16 13:34:21
7 51.909519196 4.480892658 2 18.72 1.460 2024-06-16 13:34:13
8 51.905460358 4.460457325 1 18.98 1.300 2024-06-16 13:34:12
7 51.909652710 4.481683731 2 16.20 1.450 2024-06-16 13:34:04
8 51.920837402 4.492145061 5 26.11 1.300 2024-06-16 13:34:03
9 51.910079956 4.482478619 3 0.61 1.280 2024-06-16 13:34:02
8 51.905334473 4.460048676 1 0.96 1.300 2024-06-16 13:34:01
7 51.921207428 4.493043900 5 25.82 1.400 2024-06-16 13:33:55
7 51.909915924 4.482336521 2 14.95 1.450 2024-06-16 13:33:53
8 51.905021667 4.459094048 1 22.34 1.300 2024-06-16 13:33:52
6 51.910079956 4.482530594 2 0.59 1.980 2024-06-16 13:33:43
8 51.921531677 4.493945122 5 25.96 1.300 2024-06-16 13:33:43
7 51.921833038 4.494926453 5 27.96 1.400 2024-06-16 13:33:33
8 51.922164917 4.495851994 5 23.91 1.300 2024-06-16 13:33:23
8 51.904041290 4.455217361 1 34.65 1.300 2024-06-16 13:33:17
8 51.922466278 4.496572971 5 17.95 1.300 2024-06-16 13:33:13
8 51.903816223 4.454187393 1 17.46 1.300 2024-06-16 13:33:07
6 51.922786713 4.496947765 5 15.67 1.540 2024-06-16 13:33:04
8 51.903747559 4.453813553 1 0.18 1.300 2024-06-16 13:32:56
8 51.923000336 4.497489929 5 9.15 1.300 2024-06-16 13:32:56
8 51.910160065 4.482673645 3 0.20 1.450 2024-06-16 13:32:51
8 51.903705597 4.453546524 1 16.67 1.300 2024-06-16 13:32:46
8 51.903530121 4.452618599 1 28.48 1.300 2024-06-16 13:32:36
8 51.903430939 4.451429367 1 30.06 1.300 2024-06-16 13:32:27
8 51.903507233 4.450236797 1 29.09 1.300 2024-06-16 13:32:16
7 51.923534393 4.497457027 5 3.15 1.770 2024-06-16 13:32:07
8 51.903671265 4.449132442 1 27.24 1.300 2024-06-16 13:32:06
8 51.903888702 4.448150158 1 23.67 1.300 2024-06-16 13:31:56
6 51.923721313 4.497179508 5 10.61 1.560 2024-06-16 13:31:56
7 51.910175323 4.482694149 2 0.11 1.440 2024-06-16 13:31:52
8 51.923908234 4.496784687 5 16.41 1.300 2024-06-16 13:31:47
8 51.904113770 4.447388649 1 16.48 1.300 2024-06-16 13:31:46
8 51.904212952 4.447062492 1 0.13 1.300 2024-06-16 13:31:36
8 51.904304504 4.446716309 1 19.84 1.300 2024-06-16 13:31:26
7 51.910243988 4.482919693 3 1.20 1.980 2024-06-16 13:31:21
8 51.904487610 4.445979595 1 17.50 1.300 2024-06-16 13:31:16
8 51.925853729 4.496158600 5 14.28 1.300 2024-06-16 13:30:57
8 51.904907227 4.445413113 1 3.31 1.300 2024-06-16 13:30:56
7 51.926292419 4.496237278 5 3.87 1.470 2024-06-16 13:30:49
8 51.905170441 4.445154667 1 18.00 1.300 2024-06-16 13:30:46
7 51.910045624 4.482802391 2 0.18 1.440 2024-06-16 13:30:45
7 51.910205841 4.482707977 3 0.65 1.970 2024-06-16 13:30:42
8 51.905712128 4.445227146 1 27.32 1.300 2024-06-16 13:30:38
7 51.906368256 4.445479870 1 25.22 1.430 2024-06-16 13:30:26
8 51.907020569 4.445586205 1 26.78 1.300 2024-06-16 13:30:16
8 51.907714844 4.445686340 1 29.02 1.300 2024-06-16 13:30:06
8 51.908363342 4.445768356 1 23.91 1.300 2024-06-16 13:29:56
7 51.927452087 4.496191978 5 22.24 1.480 2024-06-16 13:29:47
7 51.908958435 4.445851803 1 24.76 1.430 2024-06-16 13:29:47
8 51.909503937 4.445954323 1 18.59 1.300 2024-06-16 13:29:37
8 51.928043365 4.496300220 5 14.13 1.300 2024-06-16 13:29:33
6 51.910247803 4.482866764 2 0.61 1.940 2024-06-16 13:29:33
7 51.910182953 4.482491016 3 0.04 1.430 2024-06-16 13:29:31
8 51.928417206 4.496348381 5 18.78 1.300 2024-06-16 13:29:24
8 51.928874969 4.496592522 5 13.37 1.300 2024-06-16 13:29:14
8 51.909885406 4.446245670 1 0.35 1.300 2024-06-16 13:29:08
8 51.929241180 4.496734619 5 11.46 1.300 2024-06-16 13:29:05
8 51.910034180 4.482511997 3 0.13 1.430 2024-06-16 13:29:00
6 51.929683685 4.496801853 5 16.91 3.440 2024-06-16 13:28:54
8 51.930130005 4.496885777 5 25.93 1.300 2024-06-16 13:28:44
8 51.930767059 4.497088432 5 25.52 1.300 2024-06-16 13:28:35
8 51.910129547 4.483053684 2 1.93 1.300 2024-06-16 13:28:34
7 51.909866333 4.482542038 3 0.17 1.420 2024-06-16 13:28:31
7 51.909832001 4.446679592 1 0.13 1.490 2024-06-16 13:28:28
8 51.931430817 4.497236252 5 24.00 1.300 2024-06-16 13:28:24
8 51.909820557 4.446993828 1 15.15 1.300 2024-06-16 13:28:16
8 51.931922913 4.497362137 5 18.11 1.300 2024-06-16 13:28:14
8 51.909793854 4.447752953 1 18.04 1.300 2024-06-16 13:28:06
8 51.932281494 4.497440815 5 13.33 1.300 2024-06-16 13:28:03
8 51.909767151 4.448379993 1 9.67 1.300 2024-06-16 13:27:56
8 51.932529449 4.497255325 5 13.61 1.300 2024-06-16 13:27:53
8 51.909721375 4.448739052 1 14.11 1.300 2024-06-16 13:27:47
8 51.932605743 4.496529102 5 21.67 1.300 2024-06-16 13:27:45
8 51.909980774 4.482733727 2 0.72 1.300 2024-06-16 13:27:43
8 51.909622192 4.449416637 1 16.69 1.300 2024-06-16 13:27:37
8 51.932678223 4.495608330 5 23.34 1.300 2024-06-16 13:27:33
8 51.909923553 4.449988365 1 17.02 1.300 2024-06-16 13:27:28
8 51.932746887 4.494752407 5 17.45 1.290 2024-06-16 13:27:24
8 51.932796478 4.493950844 5 24.32 1.290 2024-06-16 13:27:15
8 51.910037994 4.450403214 1 7.52 1.290 2024-06-16 13:27:06
8 51.932884216 4.492921352 5 26.67 1.290 2024-06-16 13:27:04
7 51.909042358 4.478746891 3 16.89 1.490 2024-06-16 13:26:56
8 51.910266876 4.450957775 1 22.98 1.290 2024-06-16 13:26:56
8 51.932987213 4.491889954 5 22.56 1.290 2024-06-16 13:26:53
8 51.910659790 4.451559544 1 19.19 1.290 2024-06-16 13:26:46
7 51.909446716 4.478559971 3 19.98 1.500 2024-06-16 13:26:44
8 51.933074951 4.490927696 5 25.30 1.290 2024-06-16 13:26:44
8 51.910987854 4.452129841 1 23.45 1.290 2024-06-16 13:26:36
8 51.909927368 4.478262901 3 18.43 1.290 2024-06-16 13:26:35
8 51.933162689 4.489898682 5 26.43 1.290 2024-06-16 13:26:34
8 51.911415100 4.452834606 1 23.78 1.290 2024-06-16 13:26:27
8 51.910324097 4.478190422 3 15.67 1.290 2024-06-16 13:26:25
8 51.933254242 4.488954544 5 16.32 1.290 2024-06-16 13:26:24
8 51.911788940 4.453519344 1 20.17 1.410 2024-06-16 13:26:16
8 51.910720825 4.478188515 3 21.17 1.290 2024-06-16 13:26:15
8 51.933135986 4.488434315 5 11.95 1.290 2024-06-16 13:26:15
8 51.912006378 4.454124451 1 11.69 1.290 2024-06-16 13:26:06
8 51.911186218 4.477928162 3 15.80 1.290 2024-06-16 13:26:05
8 51.932830811 4.487935066 5 17.17 1.290 2024-06-16 13:26:04
8 51.911491394 4.478005409 3 12.15 1.290 2024-06-16 13:25:56
7 51.932361603 4.487483025 5 22.09 1.490 2024-06-16 13:25:54
7 51.931819916 4.487201691 5 23.80 1.500 2024-06-16 13:25:44
8 51.930789948 4.486538887 5 23.89 1.290 2024-06-16 13:25:34
7 51.912094116 4.454706192 1 0.93 1.530 2024-06-16 13:25:26
8 51.912151337 4.454936504 1 16.87 1.290 2024-06-16 13:25:16
8 51.912303925 4.455746651 1 20.46 1.290 2024-06-16 13:25:06
7 51.911689758 4.478506565 3 9.48 1.500 2024-06-16 13:25:04
7 51.911811829 4.478974819 3 24.08 1.500 2024-06-16 13:24:56
7 51.912487030 4.456637383 1 21.45 1.500 2024-06-16 13:24:56
6 51.909900665 4.482513905 2 0.76 1.870 2024-06-16 13:24:52
8 51.912643433 4.457482338 1 18.35 1.290 2024-06-16 13:24:49
8 51.912029266 4.479928493 3 23.19 1.290 2024-06-16 13:24:45
8 51.928474426 4.486642838 5 26.54 1.500 2024-06-16 13:24:42
8 51.912826538 4.458269596 1 13.41 1.290 2024-06-16 13:24:36
8 51.912143707 4.480843544 3 23.35 1.290 2024-06-16 13:24:34
8 51.927757263 4.486711025 5 24.93 1.290 2024-06-16 13:24:32
8 51.912113190 4.481651783 3 17.39 1.290 2024-06-16 13:24:24
8 51.927173615 4.486676693 5 15.26 1.280 2024-06-16 13:24:22
8 51.912929535 4.458743572 1 5.96 1.280 2024-06-16 13:24:16
7 51.912120819 4.482156277 3 11.80 1.400 2024-06-16 13:24:14
8 51.926849365 4.486550808 5 1.46 1.280 2024-06-16 13:24:13
8 51.912994385 4.459179401 1 14.87 1.280 2024-06-16 13:24:07
7 51.909889221 4.482742786 2 0.52 1.410 2024-06-16 13:24:02
8 51.926677704 4.486566544 5 10.70 1.280 2024-06-16 13:24:02
8 51.913124084 4.459824562 1 16.04 1.280 2024-06-16 13:23:56
8 51.911930084 4.482228279 3 1.31 1.280 2024-06-16 13:23:55
7 51.926239014 4.486648083 5 20.87 1.390 2024-06-16 13:23:53
8 51.913158417 4.460260391 1 3.91 1.280 2024-06-16 13:23:45
8 51.925579071 4.486530304 5 18.08 1.280 2024-06-16 13:23:42
8 51.925209045 4.486461639 5 16.34 1.280 2024-06-16 13:23:33
8 51.913196564 4.460644245 1 6.52 1.280 2024-06-16 13:23:26
7 51.911766052 4.482125759 3 2.22 1.390 2024-06-16 13:23:25
7 51.924903870 4.486359119 5 12.56 1.390 2024-06-16 13:23:22
8 51.913368225 4.461359024 1 24.87 1.280 2024-06-16 13:23:17
7 51.911533356 4.482033253 3 12.98 1.390 2024-06-16 13:23:16
8 51.913516998 4.462306023 1 23.63 1.280 2024-06-16 13:23:07
7 51.911022186 4.482058048 3 16.69 1.390 2024-06-16 13:23:06
7 51.909885406 4.483016014 2 0.44 1.410 2024-06-16 13:23:03
8 51.913669586 4.463221550 1 22.26 1.280 2024-06-16 13:22:59
8 51.910232544 4.482111454 3 22.28 1.390 2024-06-16 13:22:56
8 51.924797058 4.485737801 5 1.56 1.280 2024-06-16 13:22:53
8 51.913795471 4.463928223 1 15.19 1.280 2024-06-16 13:22:46
8 51.913841248 4.464197159 1 9.19 1.280 2024-06-16 13:22:26
7 51.913990021 4.464883327 1 26.08 1.390 2024-06-16 13:22:17
8 51.925128937 4.484007835 5 25.78 1.280 2024-06-16 13:22:11
7 51.914413452 4.465662479 1 21.93 1.410 2024-06-16 13:22:06
8 51.925369263 4.482955933 5 29.84 1.270 2024-06-16 13:22:00
8 51.914852142 4.465945721 1 15.37 1.270 2024-06-16 13:21:56
8 51.925430298 4.481983662 5 16.13 1.270 2024-06-16 13:21:50
8 51.915149689 4.466143131 1 18.82 1.080 2024-06-16 13:21:47
8 51.925365448 4.481694698 5 4.17 1.270 2024-06-16 13:21:40
8 51.915584564 4.466682434 1 16.96 1.270 2024-06-16 13:21:38
8 51.910030365 4.482924938 2 0.74 0.950 2024-06-16 13:21:33
8 51.925243378 4.481368065 5 14.98 1.270 2024-06-16 13:21:31
8 51.915775299 4.467467308 1 22.15 1.270 2024-06-16 13:21:26
9 51.907989502 4.489892483 3 29.69 0.880 2024-06-16 13:21:22
8 51.925079346 4.480803490 5 15.89 1.270 2024-06-16 13:21:21
8 51.915958405 4.468240738 1 19.93 1.270 2024-06-16 13:21:17
7 51.907566071 4.490828037 3 23.58 1.510 2024-06-16 13:21:12
8 51.924926758 4.480241299 5 15.93 1.270 2024-06-16 13:21:12
8 51.916122437 4.468745708 1 8.67 1.270 2024-06-16 13:21:06
8 51.909976959 4.482707024 2 0.96 0.950 2024-06-16 13:21:03
8 51.924808502 4.479707718 5 11.04 1.270 2024-06-16 13:21:00
6 51.916172028 4.468965054 1 0.04 1.870 2024-06-16 13:20:46
8 51.924934387 4.479470730 5 3.52 1.380 2024-06-16 13:20:41
8 51.916206360 4.469293594 1 16.67 1.270 2024-06-16 13:20:32
7 51.925060272 4.479036331 5 11.41 1.560 2024-06-16 13:20:31
8 51.924945831 4.478552818 5 14.04 1.270 2024-06-16 13:20:22
8 51.916385651 4.470098495 1 21.32 1.270 2024-06-16 13:20:16
8 51.916549683 4.470898151 1 17.87 1.270 2024-06-16 13:20:06
8 51.924674988 4.478286266 5 1.26 0.940 2024-06-16 13:20:00
8 51.916679382 4.471391201 1 8.07 1.260 2024-06-16 13:19:56
9 51.924503326 4.478266716 5 0.82 1.260 2024-06-16 13:19:50
7 51.916801453 4.471857071 1 18.87 1.370 2024-06-16 13:19:47
8 51.924320221 4.478229523 5 8.22 1.260 2024-06-16 13:19:40
8 51.916992188 4.472503185 1 14.37 1.260 2024-06-16 13:19:39
8 51.923988342 4.478074551 5 11.17 1.510 2024-06-16 13:19:30
9 51.917583466 4.472661018 1 20.61 0.880 2024-06-16 13:19:29
8 51.907325745 4.491298676 3 0.13 1.630 2024-06-16 13:18:42
8 51.919521332 4.472024918 1 25.80 1.060 2024-06-16 13:18:41
8 51.923713684 4.478234768 5 0.11 1.510 2024-06-16 13:18:40
8 51.920166016 4.471881866 1 20.28 1.060 2024-06-16 13:18:32
8 51.907165527 4.491248131 3 1.67 1.080 2024-06-16 13:18:23
7 51.920711517 4.471747398 1 18.24 1.020 2024-06-16 13:18:21
9 51.921134949 4.471542358 1 16.24 0.880 2024-06-16 13:18:11
7 51.923568726 4.478311539 5 0.57 1.740 2024-06-16 13:18:10
7 51.921592712 4.471364975 1 24.32 1.120 2024-06-16 13:18:04
8 51.909919739 4.482451439 2 0.48 0.950 2024-06-16 13:17:52
9 51.922245026 4.471107483 1 20.39 0.950 2024-06-16 13:17:52
7 51.907070160 4.492071152 3 13.41 1.640 2024-06-16 13:17:51
7 51.923404694 4.478322983 5 11.80 1.360 2024-06-16 13:17:51
7 51.923046112 4.478530407 5 16.04 1.360 2024-06-16 13:17:43
8 51.922725677 4.470836639 1 12.50 0.920 2024-06-16 13:17:41
7 51.906848907 4.492508888 3 15.00 1.640 2024-06-16 13:17:41
8 51.906600952 4.493024826 3 16.91 1.080 2024-06-16 13:17:31
8 51.923011780 4.471014023 1 12.89 1.160 2024-06-16 13:17:31
6 51.922565460 4.478747845 5 13.37 1.690 2024-06-16 13:17:30
9 51.923343658 4.470966339 1 4.00 1.080 2024-06-16 13:17:22
7 51.922016144 4.478968143 5 20.84 1.360 2024-06-16 13:17:21
8 51.906333923 4.493629932 3 19.34 1.080 2024-06-16 13:17:21
5 51.906154633 4.494295120 3 11.89 2.170 2024-06-16 13:17:11
7 51.906341553 4.494667530 3 7.74 1.160 2024-06-16 13:16:52
9 51.923507690 4.471045971 1 1.20 0.880 2024-06-16 13:16:51
7 51.906692505 4.495003700 3 8.15 1.360 2024-06-16 13:16:41
9 51.923667908 4.471118450 1 8.11 0.950 2024-06-16 13:16:36
7 51.906890869 4.495188713 3 11.67 1.360 2024-06-16 13:16:31
7 51.920036316 4.479487419 5 8.48 1.360 2024-06-16 13:16:29
8 51.910091400 4.482462883 2 1.50 0.950 2024-06-16 13:16:22
9 51.923980713 4.470984936 1 16.76 0.880 2024-06-16 13:16:21
7 51.907192230 4.495170116 3 11.78 1.360 2024-06-16 13:16:21
7 51.920185089 4.479024887 5 11.78 1.360 2024-06-16 13:16:16
8 51.924365997 4.471068859 1 12.83 0.950 2024-06-16 13:16:13
7 51.907493591 4.494700432 3 4.11 1.360 2024-06-16 13:16:11
8 51.920066833 4.478456497 5 18.80 1.660 2024-06-16 13:16:05
7 51.924461365 4.471743107 1 22.41 1.020 2024-06-16 13:16:02
8 51.910121918 4.482737064 2 1.35 0.950 2024-06-16 13:16:02
7 51.907569885 4.494433403 3 9.00 1.360 2024-06-16 13:16:02
7 51.919830322 4.477707386 5 15.22 1.360 2024-06-16 13:15:55
8 51.924556732 4.472805023 1 25.08 1.240 2024-06-16 13:15:52
7 51.907783508 4.493896484 3 20.32 1.360 2024-06-16 13:15:51
5 51.919841766 4.477126122 5 15.22 2.040 2024-06-16 13:15:46
9 51.924621582 4.473713875 1 18.37 0.880 2024-06-16 13:15:43
8 51.910186768 4.483010769 2 1.06 1.310 2024-06-16 13:15:42
7 51.908042908 4.492947102 3 18.20 1.360 2024-06-16 13:15:41
8 51.924495697 4.474426746 1 10.72 1.220 2024-06-16 13:15:31
6 51.908226013 4.492153168 3 23.74 2.000 2024-06-16 13:15:31
7 51.919551849 4.475639343 5 22.93 1.350 2024-06-16 13:15:27
9 51.924251556 4.474609852 1 3.57 1.240 2024-06-16 13:15:22
5 51.907871246 4.491479397 3 20.70 2.080 2024-06-16 13:15:21
8 51.919189453 4.474957466 5 18.74 1.090 2024-06-16 13:15:18
8 51.923973083 4.474502563 1 12.06 1.650 2024-06-16 13:15:12
8 51.918956757 4.474260330 5 15.67 1.090 2024-06-16 13:15:05
8 51.923797607 4.474591732 1 5.56 1.240 2024-06-16 13:15:01
8 51.907703400 4.490274429 3 11.22 1.090 2024-06-16 13:15:01
7 51.918807983 4.473588467 5 15.35 1.350 2024-06-16 13:14:55
8 51.923820496 4.474229813 1 5.19 1.240 2024-06-16 13:14:54
8 51.907863617 4.489859581 3 9.78 1.090 2024-06-16 13:14:51
8 51.918773651 4.472919464 5 13.04 1.090 2024-06-16 13:14:45
7 51.910175323 4.483387947 2 1.80 1.050 2024-06-16 13:14:42
8 51.923892975 4.474020004 1 8.41 1.090 2024-06-16 13:14:42
7 51.908119202 4.489282608 3 19.56 1.350 2024-06-16 13:14:41
7 51.918693542 4.472515106 5 8.74 1.350 2024-06-16 13:14:36
8 51.908729553 4.487872601 3 24.93 1.090 2024-06-16 13:14:35
9 51.923698425 4.473443985 1 20.54 1.230 2024-06-16 13:14:32
6 51.918327332 4.472616673 5 20.80 1.910 2024-06-16 13:14:25
8 51.908817291 4.487630844 3 21.06 1.090 2024-06-16 13:14:24
9 51.923564911 4.472876072 1 2.19 0.880 2024-06-16 13:14:22
8 51.917808533 4.472707748 5 20.74 1.090 2024-06-16 13:14:16
7 51.910251617 4.483141899 2 1.85 1.050 2024-06-16 13:14:13
8 51.909095764 4.486831188 3 28.95 1.090 2024-06-16 13:14:11
7 51.917346954 4.472877502 5 17.45 1.350 2024-06-16 13:14:06
8 51.909465790 4.485902309 3 25.04 1.090 2024-06-16 13:14:01
7 51.916961670 4.473062992 5 12.13 1.350 2024-06-16 13:13:56
7 51.910182953 4.482922077 2 1.48 1.050 2024-06-16 13:13:53
8 51.923526764 4.472665787 1 10.19 1.230 2024-06-16 13:13:51
8 51.909790039 4.485093594 3 21.35 1.090 2024-06-16 13:13:51
8 51.923458099 4.472041130 1 15.15 1.230 2024-06-16 13:13:41
8 51.910041809 4.484460831 3 14.87 1.090 2024-06-16 13:13:41
8 51.916702271 4.473331928 5 5.87 1.090 2024-06-16 13:13:37
6 51.909942627 4.482851982 2 0.68 1.840 2024-06-16 13:13:33
7 51.910236359 4.483964443 3 13.59 1.310 2024-06-16 13:13:31
8 51.916419983 4.473651886 5 16.84 1.090 2024-06-16 13:13:25
8 51.910610199 4.483152390 3 14.50 1.090 2024-06-16 13:13:22
8 51.923316956 4.471494198 1 0.94 1.230 2024-06-16 13:13:21
8 51.916023254 4.474064350 5 15.17 1.090 2024-06-16 13:13:15
7 51.915435791 4.474771976 5 19.54 1.680 2024-06-16 13:13:04
8 51.923175812 4.471549511 1 0.39 1.350 2024-06-16 13:13:01
7 51.915302277 4.474872589 5 19.08 1.690 2024-06-16 13:12:57
8 51.923042297 4.471613407 1 1.80 1.220 2024-06-16 13:12:51
7 51.914951324 4.475183964 5 17.43 1.160 2024-06-16 13:12:47
8 51.911708832 4.482722759 3 12.78 1.350 2024-06-16 13:12:46
8 51.912117004 4.482621670 3 16.78 1.350 2024-06-16 13:12:37
6 51.914501190 4.475509644 5 22.58 1.950 2024-06-16 13:12:36
9 51.922489166 4.471190929 1 15.26 0.880 2024-06-16 13:12:34
8 51.912582397 4.482430458 3 14.04 1.090 2024-06-16 13:12:27
6 51.913944244 4.475863934 5 21.82 1.950 2024-06-16 13:12:25
8 51.921962738 4.471405983 1 22.11 0.950 2024-06-16 13:12:21
7 51.913440704 4.476226330 5 20.70 1.350 2024-06-16 13:12:15
8 51.921321869 4.471734524 1 14.93 1.060 2024-06-16 13:12:11
7 51.912910461 4.482237339 3 0.48 1.350 2024-06-16 13:12:07
6 51.912956238 4.476570129 5 19.43 2.120 2024-06-16 13:12:06
8 51.909770966 4.483016014 2 0.76 0.920 2024-06-16 13:12:02
8 51.920997620 4.471887589 1 15.70 0.950 2024-06-16 13:12:01
7 51.912521362 4.476891518 5 24.04 1.690 2024-06-16 13:11:55
8 51.911987305 4.477172375 5 16.95 1.090 2024-06-16 13:11:45
8 51.920570374 4.472113609 1 7.59 0.950 2024-06-16 13:11:42
8 51.911666870 4.477361202 5 12.21 1.090 2024-06-16 13:11:35
7 51.920360565 4.472180367 1 12.83 1.210 2024-06-16 13:11:31
8 51.911407471 4.476957321 5 18.80 1.340 2024-06-16 13:11:26
7 51.920078278 4.472227097 1 17.69 1.500 2024-06-16 13:11:23
8 51.909786224 4.482781410 2 0.56 1.090 2024-06-16 13:11:22
8 51.911151886 4.476341724 5 15.89 1.340 2024-06-16 13:11:15
8 51.919593811 4.472379684 1 22.80 1.220 2024-06-16 13:11:12
8 51.910945892 4.475697517 5 17.15 1.090 2024-06-16 13:11:05
9 51.919136047 4.472548008 1 13.82 0.880 2024-06-16 13:11:01
7 51.910724640 4.474997520 5 20.98 1.340 2024-06-16 13:10:55
9 51.919029236 4.472954273 1 10.98 0.880 2024-06-16 13:10:53
8 51.910503387 4.474280834 5 16.91 1.340 2024-06-16 13:10:46
8 51.919105530 4.473595619 1 17.54 1.090 2024-06-16 13:10:41
7 51.910312653 4.473699570 5 16.43 1.340 2024-06-16 13:10:36
8 51.919208527 4.474256516 1 14.15 1.090 2024-06-16 13:10:33
7 51.913005829 4.481974125 3 0.11 1.340 2024-06-16 13:10:26
8 51.910110474 4.473077297 5 18.02 1.090 2024-06-16 13:10:26
7 51.919342041 4.474921227 1 15.41 1.340 2024-06-16 13:10:22
8 51.909904480 4.472414970 5 18.15 1.340 2024-06-16 13:10:15
8 51.919460297 4.475646496 1 15.46 1.340 2024-06-16 13:10:11
8 51.909671783 4.471642971 5 22.11 1.340 2024-06-16 13:10:06
9 51.909934998 4.482819557 2 1.06 0.920 2024-06-16 13:10:02
7 51.919673920 4.476354122 1 19.00 1.020 2024-06-16 13:10:02
8 51.909408569 4.470734119 5 24.61 1.340 2024-06-16 13:09:56
8 51.919826508 4.477162838 1 17.15 1.210 2024-06-16 13:09:52
7 51.913101196 4.482142448 3 8.02 1.340 2024-06-16 13:09:46
8 51.909149170 4.469895840 5 19.72 1.340 2024-06-16 13:09:45
7 51.910076141 4.482766151 2 0.48 1.150 2024-06-16 13:09:43
8 51.919773102 4.477487087 1 9.32 1.210 2024-06-16 13:09:42
8 51.908939362 4.469107151 5 22.13 1.340 2024-06-16 13:09:37
7 51.913433075 4.482178211 3 17.34 1.340 2024-06-16 13:09:36
9 51.919750214 4.477901936 1 10.19 1.210 2024-06-16 13:09:32
7 51.913936615 4.482138634 3 20.37 1.340 2024-06-16 13:09:26
8 51.908668518 4.468366146 5 19.74 1.090 2024-06-16 13:09:25
9 51.919700623 4.478187084 1 3.96 0.880 2024-06-16 13:09:22
8 51.914531708 4.481991768 3 25.45 1.090 2024-06-16 13:09:16
8 51.908462524 4.467675686 5 16.06 1.090 2024-06-16 13:09:15
8 51.919620514 4.478543282 1 17.46 1.200 2024-06-16 13:09:13
8 51.915214539 4.481939316 3 28.02 1.100 2024-06-16 13:09:07
7 51.915943146 4.481906414 3 27.04 1.340 2024-06-16 13:08:56
6 51.908210754 4.467061520 5 8.95 1.860 2024-06-16 13:08:46
8 51.916610718 4.481907368 3 24.04 1.340 2024-06-16 13:08:46
8 51.917308807 4.481551170 3 21.32 1.340 2024-06-16 13:08:37
8 51.919326782 4.480301857 1 14.24 0.960 2024-06-16 13:08:36
6 51.907924652 4.466581821 5 21.13 1.860 2024-06-16 13:08:35
8 51.917827606 4.481267929 3 14.19 1.340 2024-06-16 13:08:26
7 51.907634735 4.465962410 5 19.84 1.170 2024-06-16 13:08:25
8 51.918174744 4.481310368 3 9.69 1.730 2024-06-16 13:08:17
7 51.907527924 4.465276718 5 16.04 1.170 2024-06-16 13:08:15
9 51.918952942 4.480388641 1 7.58 0.880 2024-06-16 13:08:14
9 51.910221100 4.482545376 2 0.78 1.100 2024-06-16 13:08:13
7 51.907089233 4.464961052 5 13.48 1.170 2024-06-16 13:08:06
7 51.906826019 4.464441299 5 18.48 1.170 2024-06-16 13:07:55
7 51.918334961 4.481741905 3 3.89 2.290 2024-06-16 13:07:47
6 51.906665802 4.463771343 5 18.26 1.880 2024-06-16 13:07:46
8 51.918087006 4.480879307 1 19.50 1.490 2024-06-16 13:07:43
8 51.917617798 4.481269360 1 14.70 1.190 2024-06-16 13:07:35
8 51.910076141 4.482504845 2 1.19 1.100 2024-06-16 13:07:33
9 51.917358398 4.481521130 1 8.30 0.960 2024-06-16 13:07:23
8 51.918636322 4.483444214 3 16.06 1.100 2024-06-16 13:07:19
9 51.916931152 4.481787205 1 24.56 0.880 2024-06-16 13:07:16
8 51.909969330 4.482686996 2 1.48 0.920 2024-06-16 13:07:13
8 51.916294098 4.481985569 1 31.97 1.100 2024-06-16 13:07:05
7 51.906505585 4.463022709 5 1.82 1.170 2024-06-16 13:07:05
6 51.918632507 4.484024525 3 8.28 1.610 2024-06-16 13:07:01
7 51.906414032 4.462732792 5 12.19 1.170 2024-06-16 13:06:56
8 51.915462494 4.482037067 1 34.00 1.100 2024-06-16 13:06:54
7 51.914569855 4.482069969 1 36.15 1.340 2024-06-16 13:06:45
8 51.918563843 4.484596252 3 1.11 1.170 2024-06-16 13:06:40
9 51.913688660 4.482075214 1 29.46 0.880 2024-06-16 13:06:34
7 51.913047791 4.482067108 1 19.46 1.340 2024-06-16 13:06:23
7 51.918701172 4.484691143 3 2.15 1.450 2024-06-16 13:06:20
8 51.912624359 4.482128143 1 15.59 1.190 2024-06-16 13:06:13
6 51.918888092 4.484781265 3 1.94 1.360 2024-06-16 13:06:10
8 51.912292480 4.481933117 1 14.70 1.190 2024-06-16 13:06:03
7 51.906238556 4.462537289 5 0.07 1.170 2024-06-16 13:05:55
8 51.912204742 4.481149197 1 21.65 1.190 2024-06-16 13:05:54
8 51.912170410 4.480249405 1 23.41 1.180 2024-06-16 13:05:45
7 51.919277191 4.485740185 3 16.48 1.340 2024-06-16 13:05:34
7 51.912033081 4.479357719 1 21.67 1.820 2024-06-16 13:05:34
7 51.906124115 4.462416172 5 5.89 1.170 2024-06-16 13:05:25
9 51.911781311 4.478639126 1 19.32 0.880 2024-06-16 13:05:23
8 51.919277191 4.486600399 3 20.20 1.180 2024-06-16 13:05:19
7 51.905979156 4.462080002 5 13.95 1.180 2024-06-16 13:05:15
8 51.911563873 4.477961063 1 14.50 0.960 2024-06-16 13:05:14
7 51.919345856 4.487469673 3 16.26 1.340 2024-06-16 13:05:10
7 51.905757904 4.461421490 5 21.87 1.180 2024-06-16 13:05:05
8 51.911193848 4.477692604 1 11.19 0.960 2024-06-16 13:05:05
7 51.919551849 4.488160133 3 20.67 1.340 2024-06-16 13:04:59
7 51.905464172 4.460627556 5 18.41 1.180 2024-06-16 13:04:55
8 51.910930634 4.477829933 1 9.41 0.960 2024-06-16 13:04:53
7 51.919898987 4.488852024 3 9.89 1.340 2024-06-16 13:04:50
7 51.905269623 4.460078716 5 7.06 1.180 2024-06-16 13:04:45
8 51.910575867 4.478096485 1 20.85 0.970 2024-06-16 13:04:44
5 51.919975281 4.489082336 3 1.15 2.100 2024-06-16 13:04:42
7 51.905189514 4.459870338 5 7.63 1.180 2024-06-16 13:04:36
8 51.910095215 4.478209019 1 20.59 0.970 2024-06-16 13:04:34
9 51.909828186 4.482565880 2 3.37 0.880 2024-06-16 13:04:32
6 51.904994965 4.459320068 5 19.04 1.960 2024-06-16 13:04:25
7 51.909690857 4.478499413 1 19.67 1.210 2024-06-16 13:04:25
7 51.904685974 4.458424568 5 24.45 1.180 2024-06-16 13:04:15
7 51.909236908 4.478896141 1 15.78 1.210 2024-06-16 13:04:13
7 51.904449463 4.457380772 5 27.00 1.180 2024-06-16 13:04:05
8 51.908916473 4.479132652 1 7.98 1.050 2024-06-16 13:04:03
7 51.920772552 4.491105080 3 18.63 1.350 2024-06-16 13:04:01
7 51.904190063 4.456360340 5 23.91 1.180 2024-06-16 13:03:55
6 51.909118652 4.479694366 1 17.70 2.480 2024-06-16 13:03:54
7 51.909214020 4.480412006 1 19.78 1.350 2024-06-16 13:03:46
7 51.903987885 4.455375671 5 20.61 1.180 2024-06-16 13:03:45
7 51.903865814 4.454586506 5 15.06 1.180 2024-06-16 13:03:35
8 51.909469604 4.481223583 1 23.80 1.110 2024-06-16 13:03:34
8 51.909721375 4.481983662 1 17.48 1.110 2024-06-16 13:03:25
7 51.903751373 4.453965187 5 12.85 1.180 2024-06-16 13:03:25
7 51.903717041 4.453726768 5 1.46 1.180 2024-06-16 13:03:15
8 51.921298981 4.492208958 3 21.61 1.110 2024-06-16 13:03:09
7 51.903663635 4.453448296 5 10.72 1.180 2024-06-16 13:03:07
7 51.921596527 4.493118763 3 23.19 1.350 2024-06-16 13:02:58
7 51.903522491 4.452816963 5 23.58 1.180 2024-06-16 13:02:57
8 51.921943665 4.494657516 3 19.78 1.110 2024-06-16 13:02:51
7 51.903423309 4.451718807 5 27.28 1.180 2024-06-16 13:02:45
7 51.922016144 4.494903564 3 21.39 1.180 2024-06-16 13:02:39
7 51.903480530 4.450591564 5 26.11 1.180 2024-06-16 13:02:35
7 51.922298431 4.495771408 3 21.26 1.180 2024-06-16 13:02:29
7 51.903606415 4.449663162 5 25.63 1.180 2024-06-16 13:02:25
7 51.922824860 4.496941566 3 11.43 1.350 2024-06-16 13:02:21
7 51.903751373 4.448736668 5 21.69 1.180 2024-06-16 13:02:15
8 51.909729004 4.482882500 2 0.72 1.110 2024-06-16 13:02:12
7 51.903938293 4.447987556 5 19.45 1.180 2024-06-16 13:02:05
8 51.922927856 4.497354031 3 3.78 1.110 2024-06-16 13:01:58
7 51.904129028 4.447348118 5 14.11 1.180 2024-06-16 13:01:55
7 51.904224396 4.447036743 5 1.56 1.180 2024-06-16 13:01:46
7 51.904312134 4.446749210 5 13.07 1.180 2024-06-16 13:01:35
8 51.923046112 4.497488499 3 7.70 1.110 2024-06-16 13:01:28
7 51.904483795 4.446221828 5 17.87 1.190 2024-06-16 13:01:25
7 51.904739380 4.445665836 5 16.45 1.190 2024-06-16 13:01:15
8 51.923355103 4.497653008 3 0.93 1.120 2024-06-16 13:00:58
7 51.923442841 4.497483253 3 8.69 1.790 2024-06-16 13:00:48
7 51.904930115 4.445407867 5 2.22 1.190 2024-06-16 13:00:47
8 51.923671722 4.497121334 3 10.41 1.120 2024-06-16 13:00:40
7 51.905071259 4.445278645 5 15.41 1.190 2024-06-16 13:00:35
8 51.923904419 4.496786118 3 12.39 1.120 2024-06-16 13:00:30
7 51.905536652 4.445276260 5 24.89 1.190 2024-06-16 13:00:25
7 51.923892975 4.496249199 3 9.04 1.790 2024-06-16 13:00:19
7 51.906185150 4.445602894 5 25.80 1.190 2024-06-16 13:00:15
8 51.924537659 4.495978832 3 17.78 1.120 2024-06-16 13:00:10
7 51.906803131 4.445734024 5 20.46 1.190 2024-06-16 13:00:05
7 51.907310486 4.445818901 5 20.06 1.190 2024-06-16 12:59:55
7 51.907901764 4.445851803 5 22.61 1.190 2024-06-16 12:59:45
7 51.908500671 4.445878029 5 25.87 1.190 2024-06-16 12:59:37
8 51.909667969 4.483093262 2 0.22 1.120 2024-06-16 12:59:33
7 51.909141541 4.445909023 5 21.61 1.190 2024-06-16 12:59:25
8 51.926391602 4.496277332 3 1.37 1.120 2024-06-16 12:59:21
7 51.909683228 4.445914745 5 15.26 1.190 2024-06-16 12:59:15
7 51.910034180 4.446072102 5 5.43 1.190 2024-06-16 12:59:05
9 51.909912109 4.482539177 1 0.28 0.890 2024-06-16 12:58:54
7 51.910037994 4.446339607 5 8.61 1.190 2024-06-16 12:58:45
8 51.927875519 4.496440411 3 24.54 1.120 2024-06-16 12:58:44
8 51.928478241 4.496589184 3 21.63 1.120 2024-06-16 12:58:33
7 51.909980774 4.446643353 5 0.26 1.200 2024-06-16 12:58:15
7 51.929096222 4.496958733 3 9.72 1.810 2024-06-16 12:58:14
7 51.909954071 4.446887493 5 15.74 1.200 2024-06-16 12:58:06
8 51.929553986 4.496944904 3 27.30 1.120 2024-06-16 12:58:05
8 51.909660339 4.482849598 2 0.87 1.120 2024-06-16 12:58:04
7 51.909896851 4.447662830 5 19.72 1.200 2024-06-16 12:57:55
8 51.930225372 4.497008324 3 27.15 1.130 2024-06-16 12:57:53
7 51.909877777 4.448297024 5 11.19 1.200 2024-06-16 12:57:45
8 51.930870056 4.497150898 3 25.71 1.130 2024-06-16 12:57:44
7 51.909835815 4.448744297 5 12.65 1.200 2024-06-16 12:57:37
8 51.931552887 4.497308254 3 29.17 1.130 2024-06-16 12:57:33
7 51.910030365 4.449590206 5 15.52 1.200 2024-06-16 12:57:26
8 51.932189941 4.497436523 3 16.52 1.130 2024-06-16 12:57:23
8 51.909782410 4.482962608 2 0.13 1.130 2024-06-16 12:57:12
8 51.932624817 4.497241020 3 3.02 1.130 2024-06-16 12:57:03
8 51.932674408 4.496956348 3 9.07 1.130 2024-06-16 12:56:53
8 51.932704926 4.496729374 3 2.07 1.130 2024-06-16 12:56:33
7 51.910476685 4.450618744 5 19.09 1.200 2024-06-16 12:56:29
7 51.910831451 4.451261044 5 22.09 1.200 2024-06-16 12:56:18
8 51.932689667 4.496371269 3 4.57 1.130 2024-06-16 12:56:13
7 51.911136627 4.452010155 5 22.13 1.200 2024-06-16 12:56:08
8 51.932739258 4.496132851 3 4.17 1.130 2024-06-16 12:56:06
6 51.911487579 4.452711582 5 20.69 2.180 2024-06-16 12:55:59
8 51.932819366 4.495800018 3 9.48 1.130 2024-06-16 12:55:53
6 51.911888123 4.453383446 5 19.09 2.180 2024-06-16 12:55:48
8 51.932910919 4.495113850 3 17.87 1.130 2024-06-16 12:55:44
7 51.912158966 4.454000950 5 14.46 1.200 2024-06-16 12:55:39
8 51.932888031 4.494394779 3 11.26 1.130 2024-06-16 12:55:33
7 51.912254333 4.454405308 5 5.67 1.210 2024-06-16 12:55:29
8 51.932891846 4.493724346 3 23.22 1.130 2024-06-16 12:55:24
7 51.933029175 4.492559433 3 23.80 1.380 2024-06-16 12:55:13
6 51.933151245 4.491513729 3 25.32 2.200 2024-06-16 12:55:03
8 51.933269501 4.490414143 3 20.80 1.140 2024-06-16 12:54:55
7 51.912349701 4.454803467 5 8.91 1.210 2024-06-16 12:54:49
6 51.933341980 4.489356518 3 13.24 2.470 2024-06-16 12:54:43
7 51.909664154 4.482851028 2 0.20 1.380 2024-06-16 12:54:43
7 51.912448883 4.455423355